Darstellungsparameter: Aktuell verwendete Einstellungen:
Skalierung der Graphiken ... ?
xyx+y,   Skalierungsfaktor:      Skalierung: Modus: x, Faktor: 1
Darstellungszeitraum ... ?
Vom - - bis: - -   Zeitraum: 07.08.2014 - 06.08.2015
Min/Max/Avg-Anzeige ... ?
Zeige MMA aktuell
Zeige MMA Monat
Zeige MMA alles
Zeige --A aktuell
Zeige --A Monat
Zeige --A alles
Keine MMA-Anzeige
MMA:
Average (ber die Originaldaten)
MMA-Basis: 23.02.2003 - 03.08.2020
Quicknavigation für Darstellung... ?
Tage:      1T, 2T, 3T, 5T -1T -2T -3T -5T +1T +2T +3T +5T
Wochen: 1W, 2W, 3W -1W -2W -3W +1W +2W +3W
Monate: 1M, 3M, 6M -1M -3M -6M +1M +3M +6M
Jahre:    1J, 3J, 5J, 10J -1J -3J -5J -10J +1J +3J +5J +10J
Nutze für die Darstellung ... ?
Originaldaten oder ...
Mittelwerte Minima Maxima auf...
Stundenbasis Tagesbasis Wochenbasis
Monatsbasis Jahresbasis      Datenbasis: Mittelwerte auf Stundenbasis
Darstellen als:
Statistik (Auto) Statistik J:M      Darstellung:
Zur Graphik,    zurück zur Übersicht aller Sensoren.
 
Tabellarische Datenbersicht: ?
 
Sensor: Nr:Datum:Temp:Abs-Feuchte:Windchill:Wind:
Aussen-T/F 1 07-08-2014 00:00:00 15.65 C 12.81 g/m*3 15.65 C 2.40833 km/h
2 07-08-2014 01:00:00 15.58333 C 12.81 g/m*3 15.58 C 0.13333 km/h
3 07-08-2014 02:00:00 15.43333 C 12.76 g/m*3 15.43 C 0 km/h
4 07-08-2014 03:00:00 15.28333 C 12.64 g/m*3 15.28 C 0.8 km/h
5 07-08-2014 04:00:00 15.21667 C 12.6 g/m*3 15.22 C 0 km/h
6 07-08-2014 05:00:00 15.55 C 12.89 g/m*3 15.55 C 0 km/h
7 07-08-2014 06:00:00 15.8 C 13.19 g/m*3 15.8 C 0.53333 km/h
8 07-08-2014 07:00:00 16 C 13.35 g/m*3 16 C 0 km/h
9 07-08-2014 08:00:00 16.25 C 13.56 g/m*3 16.25 C 1.33333 km/h
10 07-08-2014 09:00:00 17.36667 C 13.9 g/m*3 17.37 C 3.46667 km/h
11 07-08-2014 10:00:00 18.675 C 14.07 g/m*3 18.68 C 3.075 km/h
12 07-08-2014 11:00:00 20.33333 C 14.23 g/m*3 20.33 C 4.81667 km/h
13 07-08-2014 12:00:00 22.01667 C 14 g/m*3 22.02 C 4.94167 km/h
14 07-08-2014 13:00:00 22.65 C 13.57 g/m*3 22.65 C 4.54167 km/h
15 07-08-2014 14:00:00 23.96667 C 14.1 g/m*3 23.97 C 4.95 km/h
16 07-08-2014 15:00:00 25.75 C 13.42 g/m*3 25.75 C 8.35 km/h
17 07-08-2014 16:00:00 25.43333 C 14.23 g/m*3 25.43 C 3.60833 km/h
18 07-08-2014 17:00:00 21.08333 C 15.66 g/m*3 21.08 C 0.13333 km/h
19 07-08-2014 18:00:00 22.50833 C 15.9 g/m*3 22.51 C 0.4 km/h
20 07-08-2014 19:00:00 22.38333 C 15.87 g/m*3 22.38 C 0.13333 km/h
21 07-08-2014 20:00:00 20.11667 C 14.86 g/m*3 20.12 C 0.53333 km/h
22 07-08-2014 21:00:00 18.46667 C 14.03 g/m*3 18.47 C 0.13333 km/h
23 07-08-2014 22:00:00 17.56667 C 13.52 g/m*3 17.57 C 0 km/h
24 07-08-2014 23:00:00 16.75833 C 13.13 g/m*3 16.76 C 0 km/h
25 08-08-2014 00:00:00 16.075 C 12.76 g/m*3 16.08 C 0 km/h
Sensor: Nr:Datum:Temp:Abs-Feuchte:Windchill:Wind:
Aussen-T/F 26 08-08-2014 01:00:00 15.54167 C 12.49 g/m*3 15.54 C 0 km/h
27 08-08-2014 02:00:00 15.15833 C 12.3 g/m*3 15.16 C 0 km/h
28 08-08-2014 03:00:00 14.80833 C 12.15 g/m*3 14.81 C 0 km/h
29 08-08-2014 04:00:00 14.43333 C 11.89 g/m*3 14.43 C 0 km/h
30 08-08-2014 05:00:00 14.275 C 11.88 g/m*3 14.28 C 0 km/h
31 08-08-2014 06:00:00 14.58333 C 12.13 g/m*3 14.58 C 0.93333 km/h
32 08-08-2014 07:00:00 15.04167 C 12.47 g/m*3 15.04 C 0.4 km/h
33 08-08-2014 08:00:00 15.68333 C 12.9 g/m*3 15.68 C 0 km/h
34 08-08-2014 09:00:00 16.60833 C 13.54 g/m*3 16.61 C 0 km/h
35 08-08-2014 10:00:00 18.375 C 14.7 g/m*3 18.38 C 0.93333 km/h
36 08-08-2014 11:00:00 22.93333 C 15.49 g/m*3 22.93 C 5.49167 km/h
37 08-08-2014 12:00:00 25.45 C 14.66 g/m*3 25.45 C 8.175 km/h
38 08-08-2014 13:00:00 26.50833 C 13.88 g/m*3 26.51 C 9.55 km/h
39 08-08-2014 14:00:00 26.025 C 14.99 g/m*3 26.03 C 6.44167 km/h
40 08-08-2014 15:00:00 22.73333 C 16.82 g/m*3 22.73 C 0.93333 km/h
41 08-08-2014 16:00:00 20.86667 C 16.75 g/m*3 20.87 C 0.4 km/h
42 08-08-2014 17:00:00 20.45 C 16.84 g/m*3 20.45 C 0 km/h
43 08-08-2014 18:00:00 20.625 C 17.03 g/m*3 20.63 C 0 km/h
44 08-08-2014 19:00:00 20.35 C 16.8 g/m*3 20.35 C 0 km/h
45 08-08-2014 20:00:00 20.00833 C 16.53 g/m*3 20.01 C 0.13333 km/h
46 08-08-2014 21:00:00 19.11667 C 15.71 g/m*3 19.12 C 0 km/h
47 08-08-2014 22:00:00 18.75 C 15.42 g/m*3 18.75 C 0.13333 km/h
48 08-08-2014 23:00:00 18.625 C 15.3 g/m*3 18.63 C 0.4 km/h
49 09-08-2014 00:00:00 18.64167 C 15.24 g/m*3 18.64 C 0.13333 km/h
50 09-08-2014 01:00:00 18.8 C 15.3 g/m*3 18.8 C 0 km/h
Sensor: Nr:Datum:Temp:Abs-Feuchte:Windchill:Wind:
Aussen-T/F 51 09-08-2014 02:00:00 19.40833 C 15.55 g/m*3 19.41 C 2.80833 km/h
52 09-08-2014 03:00:00 18.85 C 15.56 g/m*3 18.85 C 0.26667 km/h
53 09-08-2014 04:00:00 18.69167 C 15.52 g/m*3 18.69 C 0.26667 km/h
54 09-08-2014 05:00:00 18.35 C 15.13 g/m*3 18.35 C 5.90833 km/h
55 09-08-2014 06:00:00 18.625 C 14.66 g/m*3 18.63 C 13.01667 km/h
56 09-08-2014 07:00:00 18.69167 C 14.54 g/m*3 18.69 C 10.075 km/h
57 09-08-2014 08:00:00 19.56667 C 14.97 g/m*3 19.57 C 10.74167 km/h
58 09-08-2014 09:00:00 19.875 C 15.24 g/m*3 19.88 C 10.46667 km/h
59 09-08-2014 10:00:00 19.56667 C 14.59 g/m*3 19.57 C 9.53333 km/h
60 09-08-2014 11:00:00 20.30833 C 13.08 g/m*3 20.31 C 15.83333 km/h
61 09-08-2014 12:00:00 21.53333 C 12.37 g/m*3 21.53 C 16.1 km/h
62 09-08-2014 13:00:00 22.125 C 12.14 g/m*3 22.13 C 11.43333 km/h
63 09-08-2014 14:00:00 22.825 C 12.35 g/m*3 22.83 C 9.40833 km/h
64 09-08-2014 15:00:00 24.24167 C 12.37 g/m*3 24.24 C 12.5 km/h
65 09-08-2014 16:00:00 24.95833 C 12.08 g/m*3 24.96 C 12.75833 km/h
66 09-08-2014 17:00:00 24.71667 C 12.46 g/m*3 24.72 C 7.79167 km/h
67 09-08-2014 18:00:00 22.90833 C 14.24 g/m*3 22.91 C 1.60833 km/h
68 09-08-2014 19:00:00 21.55833 C 14.51 g/m*3 21.56 C 0.8 km/h
69 09-08-2014 20:00:00 18.9 C 13.31 g/m*3 18.9 C 1.73333 km/h
70 09-08-2014 21:00:00 17.59167 C 12.67 g/m*3 17.59 C 0.26667 km/h
71 09-08-2014 22:00:00 16.73333 C 12.4 g/m*3 16.73 C 0 km/h
72 09-08-2014 23:00:00 16.55833 C 12.35 g/m*3 16.56 C 0.26667 km/h
73 10-08-2014 00:00:00 16.25 C 12.46 g/m*3 16.25 C 0 km/h
74 10-08-2014 01:00:00 16.20833 C 12.59 g/m*3 16.21 C 0 km/h
75 10-08-2014 02:00:00 16.3 C 12.73 g/m*3 16.3 C 0 km/h
Sensor: Nr:Datum:Temp:Abs-Feuchte:Windchill:Wind:
Aussen-T/F 76 10-08-2014 03:00:00 16.34167 C 12.8 g/m*3 16.34 C 0 km/h
77 10-08-2014 04:00:00 16.175 C 12.75 g/m*3 16.18 C 0 km/h
78 10-08-2014 05:00:00 15.825 C 12.37 g/m*3 15.83 C 0 km/h
79 10-08-2014 06:00:00 15.26667 C 12.03 g/m*3 15.27 C 0.26667 km/h
80 10-08-2014 07:00:00 15.58333 C 12.41 g/m*3 15.58 C 1.61667 km/h
81 10-08-2014 08:00:00 17.63333 C 13.51 g/m*3 17.63 C 1.73333 km/h
82 10-08-2014 09:00:00 19.61667 C 14.24 g/m*3 19.62 C 2.93333 km/h
83 10-08-2014 10:00:00 21.25833 C 14.91 g/m*3 21.26 C 3.86667 km/h
84 10-08-2014 11:00:00 22.8 C 15.78 g/m*3 22.8 C 4.94167 km/h
85 10-08-2014 12:00:00 24.26667 C 15.94 g/m*3 24.27 C 6.96667 km/h
86 10-08-2014 13:00:00 23.85833 C 16.26 g/m*3 23.86 C 4.825 km/h
87 10-08-2014 14:00:00 21.55833 C 17.22 g/m*3 21.56 C 0.8 km/h
88 10-08-2014 15:00:00 20.85833 C 16.81 g/m*3 20.86 C 2.93333 km/h
89 10-08-2014 16:00:00 21.05833 C 17.29 g/m*3 21.06 C 2.26667 km/h
90 10-08-2014 17:00:00 21.00833 C 17.3 g/m*3 21.01 C 0 km/h
91 10-08-2014 18:00:00 20.25833 C 16.84 g/m*3 20.26 C 0.13333 km/h
92 10-08-2014 19:00:00 19.85 C 16.46 g/m*3 19.85 C 0 km/h
93 10-08-2014 20:00:00 19.225 C 16.02 g/m*3 19.23 C 2.68333 km/h
94 10-08-2014 21:00:00 18.975 C 15.34 g/m*3 18.98 C 3.33333 km/h
95 10-08-2014 22:00:00 18.34167 C 14.81 g/m*3 18.34 C 2 km/h
96 10-08-2014 23:00:00 17.78333 C 14.56 g/m*3 17.78 C 1.33333 km/h
97 11-08-2014 00:00:00 17.50833 C 14.06 g/m*3 17.51 C 3.20833 km/h
98 11-08-2014 01:00:00 16.31667 C 13.02 g/m*3 16.32 C 2.8 km/h
99 11-08-2014 02:00:00 15.40833 C 11.96 g/m*3 15.41 C 2.93333 km/h
100 11-08-2014 03:00:00 14.05833 C 11.45 g/m*3 14.06 C 0.53333 km/h
Sensor: Nr:Datum:Temp:Abs-Feuchte:Windchill:Wind:
Aussen-T/F 101 11-08-2014 04:00:00 13.36667 C 11.03 g/m*3 13.37 C 0.4 km/h
102 11-08-2014 05:00:00 13.14167 C 10.8 g/m*3 13.14 C 1.06667 km/h
103 11-08-2014 06:00:00 12.86667 C 10.64 g/m*3 12.87 C 0.4 km/h
104 11-08-2014 07:00:00 13.10833 C 10.83 g/m*3 13.11 C 0.66667 km/h
105 11-08-2014 08:00:00 13.86667 C 11.12 g/m*3 13.87 C 3.49167 km/h
106 11-08-2014 09:00:00 15.43333 C 11.14 g/m*3 15.43 C 12.76667 km/h
107 11-08-2014 10:00:00 16.50833 C 11.25 g/m*3 16.51 C 12.5 km/h
108 11-08-2014 11:00:00 18.25833 C 11.35 g/m*3 18.26 C 10.89167 km/h
109 11-08-2014 12:00:00 19.55 C 11.21 g/m*3 19.55 C 11.025 km/h
110 11-08-2014 13:00:00 20.375 C 11.14 g/m*3 20.38 C 13.16667 km/h
111 11-08-2014 14:00:00 20.85 C 11.38 g/m*3 20.85 C 11.96667 km/h
112 11-08-2014 15:00:00 18.66667 C 13.41 g/m*3 18.67 C 3.06667 km/h
113 11-08-2014 16:00:00 20.51667 C 13.4 g/m*3 20.52 C 6.3 km/h
114 11-08-2014 17:00:00 21.975 C 11.47 g/m*3 21.98 C 12.49167 km/h
115 11-08-2014 18:00:00 21.24167 C 11.58 g/m*3 21.24 C 6.975 km/h
116 11-08-2014 19:00:00 20.60833 C 11.83 g/m*3 20.61 C 5.625 km/h
117 11-08-2014 20:00:00 18.75833 C 11.33 g/m*3 18.76 C 3.46667 km/h
118 11-08-2014 21:00:00 16.34167 C 11.18 g/m*3 16.34 C 2.66667 km/h
119 11-08-2014 22:00:00 15.25 C 10.96 g/m*3 15.25 C 0.53333 km/h
120 11-08-2014 23:00:00 14.18333 C 10.61 g/m*3 14.18 C 0 km/h
121 12-08-2014 00:00:00 14.28333 C 10.69 g/m*3 14.28 C 0.53333 km/h
122 12-08-2014 01:00:00 16.15833 C 10.36 g/m*3 16.16 C 6.725 km/h
123 12-08-2014 02:00:00 15.51667 C 10.73 g/m*3 15.52 C 8.85833 km/h
124 12-08-2014 03:00:00 14.46667 C 10.91 g/m*3 14.47 C 2 km/h
125 12-08-2014 04:00:00 13.975 C 10.93 g/m*3 13.98 C 2.94167 km/h
Sensor: Nr:Datum:Temp:Abs-Feuchte:Windchill:Wind:
Aussen-T/F 126 12-08-2014 05:00:00 14.225 C 10.76 g/m*3 14.23 C 4.81667 km/h
127 12-08-2014 06:00:00 14.1 C 10.64 g/m*3 14.1 C 1.86667 km/h
128 12-08-2014 07:00:00 13.80833 C 10.76 g/m*3 13.81 C 0.53333 km/h
129 12-08-2014 08:00:00 14.375 C 11.11 g/m*3 14.38 C 2.54167 km/h
130 12-08-2014 09:00:00 15.88333 C 11 g/m*3 15.88 C 10.61667 km/h
131 12-08-2014 10:00:00 17.10833 C 10.63 g/m*3 17.11 C 13.56667 km/h
132 12-08-2014 11:00:00 18.5 C 10.5 g/m*3 18.5 C 13.55833 km/h
133 12-08-2014 12:00:00 19.80833 C 9.91 g/m*3 19.81 C 14.5 km/h
134 12-08-2014 13:00:00 20.46667 C 9.72 g/m*3 20.47 C 14.23333 km/h
135 12-08-2014 14:00:00 21.59167 C 9.97 g/m*3 21.59 C 14.63333 km/h
136 12-08-2014 15:00:00 22.775 C 9.93 g/m*3 22.78 C 15.96667 km/h
137 12-08-2014 16:00:00 23.30833 C 10.01 g/m*3 23.31 C 14.89167 km/h
138 12-08-2014 17:00:00 22.31667 C 9.87 g/m*3 22.32 C 14.64167 km/h
139 12-08-2014 18:00:00 22.16667 C 10.22 g/m*3 22.17 C 9.825 km/h
140 12-08-2014 19:00:00 21.04167 C 11.29 g/m*3 21.04 C 4.15 km/h
141 12-08-2014 20:00:00 18.46667 C 11.33 g/m*3 18.47 C 2 km/h
142 12-08-2014 21:00:00 17.16667 C 11.12 g/m*3 17.17 C 0.93333 km/h
143 12-08-2014 22:00:00 16.41667 C 10.86 g/m*3 16.42 C 0 km/h
144 12-08-2014 23:00:00 15.05833 C 10.64 g/m*3 15.06 C 0 km/h
145 13-08-2014 00:00:00 14.33333 C 10.8 g/m*3 14.33 C 0 km/h
146 13-08-2014 01:00:00 14.09167 C 10.93 g/m*3 14.09 C 0 km/h
147 13-08-2014 02:00:00 13.95833 C 10.95 g/m*3 13.96 C 0 km/h
148 13-08-2014 03:00:00 14.075 C 11.01 g/m*3 14.08 C 0 km/h
149 13-08-2014 04:00:00 14.125 C 11 g/m*3 14.13 C 0 km/h
150 13-08-2014 05:00:00 14.11667 C 11.06 g/m*3 14.12 C 0 km/h
Sensor: Nr:Datum:Temp:Abs-Feuchte:Windchill:Wind:
Aussen-T/F 151 13-08-2014 06:00:00 13.61667 C 10.9 g/m*3 13.62 C 0 km/h
152 13-08-2014 07:00:00 14 C 11.25 g/m*3 14 C 0 km/h
153 13-08-2014 08:00:00 14.98333 C 11.68 g/m*3 14.98 C 0 km/h
154 13-08-2014 09:00:00 16.70833 C 12.16 g/m*3 16.71 C 0 km/h
155 13-08-2014 10:00:00 18.325 C 12.21 g/m*3 18.33 C 3.75 km/h
156 13-08-2014 11:00:00 19.50833 C 12.51 g/m*3 19.51 C 3.74167 km/h
157 13-08-2014 12:00:00 19.825 C 12.67 g/m*3 19.83 C 2.8 km/h
158 13-08-2014 13:00:00 19.48333 C 13.4 g/m*3 19.48 C 0.93333 km/h
159 13-08-2014 14:00:00 18.73333 C 14.17 g/m*3 18.73 C 0 km/h
160 13-08-2014 15:00:00 17.98333 C 14.17 g/m*3 17.98 C 0 km/h
161 13-08-2014 16:00:00 17.16667 C 13.54 g/m*3 17.17 C 0.675 km/h
162 13-08-2014 17:00:00 15.85 C 12.62 g/m*3 15.85 C 4.975 km/h
163 13-08-2014 18:00:00 15.68333 C 12.8 g/m*3 15.68 C 0 km/h
164 13-08-2014 19:00:00 15.70833 C 12.86 g/m*3 15.71 C 0 km/h
165 13-08-2014 20:00:00 15.6 C 12.89 g/m*3 15.6 C 0 km/h
166 13-08-2014 21:00:00 15.28333 C 12.59 g/m*3 15.28 C 0.13333 km/h
167 13-08-2014 22:00:00 15.13333 C 12.28 g/m*3 15.13 C 0 km/h
168 13-08-2014 23:00:00 15.15 C 12.23 g/m*3 15.15 C 4.95833 km/h
169 14-08-2014 00:00:00 14.95 C 11.89 g/m*3 14.95 C 3.74167 km/h
170 14-08-2014 01:00:00 14.58333 C 11.54 g/m*3 14.58 C 2.26667 km/h
171 14-08-2014 02:00:00 13.85833 C 11.34 g/m*3 13.86 C 0 km/h
172 14-08-2014 03:00:00 13.35 C 11.14 g/m*3 13.35 C 0 km/h
173 14-08-2014 04:00:00 13.20833 C 11.14 g/m*3 13.21 C 0.13333 km/h
174 14-08-2014 05:00:00 13.06667 C 11.05 g/m*3 13.07 C 0 km/h
175 14-08-2014 06:00:00 12.91667 C 10.94 g/m*3 12.92 C 0 km/h
Sensor: Nr:Datum:Temp:Abs-Feuchte:Windchill:Wind:
Aussen-T/F 176 14-08-2014 07:00:00 13.53333 C 11.31 g/m*3 13.53 C 1.74167 km/h
177 14-08-2014 08:00:00 14.86667 C 11.36 g/m*3 14.87 C 5.36667 km/h
178 14-08-2014 09:00:00 15.51667 C 11.62 g/m*3 15.52 C 5.10833 km/h
179 14-08-2014 10:00:00 16.51667 C 11.53 g/m*3 16.52 C 11 km/h
180 14-08-2014 11:00:00 17.20833 C 11.4 g/m*3 17.21 C 11.025 km/h
181 14-08-2014 12:00:00 18.96667 C 11.63 g/m*3 18.97 C 14.76667 km/h
182 14-08-2014 13:00:00 19.525 C 11.71 g/m*3 19.52 C 13.03333 km/h
183 14-08-2014 14:00:00 19.775 C 12.07 g/m*3 19.77 C 15.03333 km/h
184 14-08-2014 15:00:00 20.125 C 11.87 g/m*3 20.13 C 12.36667 km/h
185 14-08-2014 16:00:00 19.63333 C 11.8 g/m*3 19.63 C 7.25 km/h
186 14-08-2014 17:00:00 20.83333 C 11.78 g/m*3 20.83 C 6.56667 km/h
187 14-08-2014 18:00:00 19.16667 C 11.68 g/m*3 19.17 C 10.325 km/h
188 14-08-2014 19:00:00 16.38 C 11.29 g/m*3 16.38 C 3.04 km/h
189 14-08-2014 20:00:00 15.22727 C 11.36 g/m*3 15.23 C 0.29091 km/h
190 14-08-2014 21:00:00 14.71111 C 11.32 g/m*3 14.71 C 0 km/h
191 14-08-2014 22:00:00 14.70833 C 11.42 g/m*3 14.71 C 0 km/h
192 14-08-2014 23:00:00 14.675 C 11.25 g/m*3 14.68 C 0.93333 km/h
193 15-08-2014 00:00:00 14.26667 C 10.92 g/m*3 14.27 C 0.8 km/h
194 15-08-2014 01:00:00 13.55833 C 10.61 g/m*3 13.56 C 0 km/h
195 15-08-2014 02:00:00 13.55 C 10.56 g/m*3 13.55 C 0.26667 km/h
196 15-08-2014 03:00:00 12.99167 C 10.54 g/m*3 12.99 C 0 km/h
197 15-08-2014 04:00:00 13.20833 C 10.8 g/m*3 13.21 C 0 km/h
198 15-08-2014 05:00:00 13.39167 C 10.92 g/m*3 13.39 C 0 km/h
199 15-08-2014 06:00:00 13.525 C 10.98 g/m*3 13.53 C 0 km/h
200 15-08-2014 07:00:00 13.75 C 11.11 g/m*3 13.75 C 0 km/h
Sensor: Nr:Datum:Temp:Abs-Feuchte:Windchill:Wind:
Aussen-T/F 201 15-08-2014 08:00:00 14.15 C 11.21 g/m*3 14.15 C 0.8 km/h
202 15-08-2014 09:00:00 14.68333 C 11.52 g/m*3 14.68 C 3.225 km/h
203 15-08-2014 10:00:00 15.34167 C 11.82 g/m*3 15.34 C 6.575 km/h
204 15-08-2014 11:00:00 15.69167 C 11.76 g/m*3 15.69 C 3.6 km/h
205 15-08-2014 12:00:00 15.76667 C 12.09 g/m*3 15.77 C 2.93333 km/h
206 15-08-2014 13:00:00 16.18889 C 11.82 g/m*3 16.19 C 2.48889 km/h
207 15-08-2014 14:00:00 15.68333 C 11.85 g/m*3 15.68 C 3.74167 km/h
208 15-08-2014 15:00:00 15.36667 C 12.05 g/m*3 15.37 C 1.2 km/h
209 15-08-2014 16:00:00 15.625 C 12.01 g/m*3 15.63 C 1.2 km/h
210 15-08-2014 17:00:00 14.54167 C 11.69 g/m*3 14.54 C 1.06667 km/h
211 15-08-2014 18:00:00 16.99167 C 12.87 g/m*3 16.99 C 0.66667 km/h
212 15-08-2014 19:00:00 14.875 C 11.96 g/m*3 14.88 C 0 km/h
213 15-08-2014 20:00:00 14.41667 C 11.91 g/m*3 14.42 C 0.13333 km/h
214 15-08-2014 21:00:00 14.15833 C 11.74 g/m*3 14.16 C 0.26667 km/h
215 15-08-2014 22:00:00 13.74167 C 11.51 g/m*3 13.74 C 0 km/h
216 15-08-2014 23:00:00 13.275 C 11.19 g/m*3 13.28 C 0 km/h
217 16-08-2014 00:00:00 12.83333 C 10.89 g/m*3 12.83 C 0 km/h
218 16-08-2014 01:00:00 12.725 C 10.84 g/m*3 12.73 C 0 km/h
219 16-08-2014 02:00:00 12.95833 C 11.09 g/m*3 12.96 C 0 km/h
220 16-08-2014 03:00:00 12.9 C 11.05 g/m*3 12.9 C 0 km/h
221 16-08-2014 04:00:00 12.91667 C 11.06 g/m*3 12.92 C 0 km/h
222 16-08-2014 05:00:00 12.54167 C 10.77 g/m*3 12.54 C 0 km/h
223 16-08-2014 06:00:00 12.51667 C 10.78 g/m*3 12.52 C 0 km/h
224 16-08-2014 07:00:00 12.41667 C 10.68 g/m*3 12.42 C 0 km/h
225 16-08-2014 08:00:00 13.20833 C 11.04 g/m*3 13.21 C 0 km/h
Sensor: Nr:Datum:Temp:Abs-Feuchte:Windchill:Wind:
Aussen-T/F 226 16-08-2014 09:00:00 13.975 C 11.17 g/m*3 13.98 C 3.89167 km/h
227 16-08-2014 10:00:00 15 C 11.68 g/m*3 15 C 4.83333 km/h
228 16-08-2014 11:00:00 15.09167 C 12.25 g/m*3 15.09 C 0.66667 km/h
229 16-08-2014 12:00:00 16.29167 C 12.43 g/m*3 16.29 C 3.89167 km/h
230 16-08-2014 13:00:00 17.09167 C 12.62 g/m*3 17.09 C 4.69167 km/h
231 16-08-2014 14:00:00 18.4 C 11.6 g/m*3 18.4 C 8.06667 km/h
232 16-08-2014 15:00:00 20.40833 C 11.33 g/m*3 20.41 C 11.15833 km/h
233 16-08-2014 16:00:00 20.41667 C 11.61 g/m*3 20.42 C 6.7 km/h
234 16-08-2014 17:00:00 19.56667 C 11.65 g/m*3 19.57 C 7.11667 km/h
235 16-08-2014 18:00:00 17.49167 C 11.81 g/m*3 17.49 C 4.29167 km/h
236 16-08-2014 19:00:00 15.75833 C 11.88 g/m*3 15.76 C 4.15 km/h
237 16-08-2014 20:00:00 14.68333 C 11.72 g/m*3 14.68 C 1.73333 km/h
238 16-08-2014 21:00:00 14.9 C 11.57 g/m*3 14.9 C 1.06667 km/h
239 16-08-2014 22:00:00 14.58333 C 11.73 g/m*3 14.58 C 0 km/h
240 16-08-2014 23:00:00 14.51667 C 11.83 g/m*3 14.52 C 0 km/h
241 17-08-2014 00:00:00 14.49167 C 11.63 g/m*3 14.49 C 0 km/h
242 17-08-2014 01:00:00 13.84167 C 11.19 g/m*3 13.84 C 0 km/h
243 17-08-2014 02:00:00 13.61667 C 11.13 g/m*3 13.62 C 0 km/h
244 17-08-2014 03:00:00 13.81667 C 11.2 g/m*3 13.82 C 0 km/h
245 17-08-2014 04:00:00 13.65 C 11.16 g/m*3 13.65 C 0 km/h
246 17-08-2014 05:00:00 13.525 C 11.12 g/m*3 13.53 C 0 km/h
247 17-08-2014 06:00:00 13.21667 C 10.92 g/m*3 13.22 C 0 km/h
248 17-08-2014 07:00:00 12.75 C 10.67 g/m*3 12.75 C 0 km/h
249 17-08-2014 08:00:00 13.76667 C 10.88 g/m*3 13.77 C 3.35 km/h
250 17-08-2014 09:00:00 15.525 C 10.69 g/m*3 15.53 C 10.21667 km/h
Sensor: Nr:Datum:Temp:Abs-Feuchte:Windchill:Wind:
Aussen-T/F 251 17-08-2014 10:00:00 16.61667 C 10.84 g/m*3 16.62 C 11.94167 km/h
252 17-08-2014 11:00:00 17.575 C 10.62 g/m*3 17.58 C 15.03333 km/h
253 17-08-2014 12:00:00 18.49167 C 10.19 g/m*3 18.49 C 18.5 km/h
254 17-08-2014 13:00:00 18.375 C 9.89 g/m*3 18.38 C 13.7 km/h
255 17-08-2014 14:00:00 18.09167 C 9.74 g/m*3 18.09 C 14.1 km/h
256 17-08-2014 15:00:00 18.36667 C 9.72 g/m*3 18.37 C 11.55 km/h
257 17-08-2014 16:00:00 18.66667 C 9.81 g/m*3 18.67 C 13.69167 km/h
258 17-08-2014 17:00:00 18.31667 C 9.81 g/m*3 18.32 C 8.325 km/h
259 17-08-2014 18:00:00 18.375 C 10.04 g/m*3 18.38 C 8.73333 km/h
260 17-08-2014 19:00:00 17.89167 C 10.44 g/m*3 17.89 C 6.30833 km/h
261 17-08-2014 20:00:00 17.56667 C 10.35 g/m*3 17.57 C 7.65 km/h
262 17-08-2014 21:00:00 17.18333 C 10.11 g/m*3 17.18 C 6.30833 km/h
263 17-08-2014 22:00:00 16.775 C 9.85 g/m*3 16.77 C 7.91667 km/h
264 17-08-2014 23:00:00 16.88333 C 9.91 g/m*3 16.88 C 9.13333 km/h
265 18-08-2014 00:00:00 17.05 C 10.03 g/m*3 17.05 C 12.225 km/h
266 18-08-2014 01:00:00 16.675 C 9.96 g/m*3 16.68 C 11.29167 km/h
267 18-08-2014 02:00:00 16.21667 C 9.88 g/m*3 16.22 C 10.61667 km/h
268 18-08-2014 03:00:00 15.95 C 9.94 g/m*3 15.95 C 10.35 km/h
269 18-08-2014 04:00:00 15.70833 C 10.11 g/m*3 15.71 C 11.425 km/h
270 18-08-2014 05:00:00 15.06667 C 10.34 g/m*3 15.07 C 10.74167 km/h
271 18-08-2014 06:00:00 14.95 C 10.31 g/m*3 14.95 C 10.89167 km/h
272 18-08-2014 07:00:00 14.95 C 10.39 g/m*3 14.95 C 9.55 km/h
273 18-08-2014 08:00:00 14.23333 C 10.62 g/m*3 14.23 C 8.325 km/h
274 18-08-2014 09:00:00 13.65 C 10.86 g/m*3 13.65 C 4.28333 km/h
275 18-08-2014 10:00:00 14.26667 C 11.15 g/m*3 14.27 C 6.16667 km/h
Sensor: Nr:Datum:Temp:Abs-Feuchte:Windchill:Wind:
Aussen-T/F 276 18-08-2014 11:00:00 15.84167 C 11.52 g/m*3 15.84 C 9.825 km/h
277 18-08-2014 12:00:00 17.175 C 10.98 g/m*3 17.18 C 10.89167 km/h
278 18-08-2014 13:00:00 17.4 C 10.55 g/m*3 17.4 C 13.55833 km/h
279 18-08-2014 14:00:00 16.50833 C 10.77 g/m*3 16.51 C 6.85833 km/h
280 18-08-2014 15:00:00 17.51667 C 10.96 g/m*3 17.52 C 5.75833 km/h
281 18-08-2014 16:00:00 19.4 C 10.39 g/m*3 19.4 C 11.69167 km/h
282 18-08-2014 17:00:00 20.59167 C 8.18 g/m*3 20.59 C 17.96667 km/h
283 18-08-2014 18:00:00 19.525 C 8.92 g/m*3 19.52 C 11.025 km/h
284 18-08-2014 19:00:00 18.675 C 8.78 g/m*3 18.68 C 12.35833 km/h
285 18-08-2014 20:00:00 17.03333 C 9.74 g/m*3 17.03 C 3.9 km/h
286 18-08-2014 21:00:00 14.76667 C 10.43 g/m*3 14.77 C 0.13333 km/h
287 18-08-2014 22:00:00 14.225 C 10.34 g/m*3 14.23 C 0 km/h
288 18-08-2014 23:00:00 13.925 C 10.25 g/m*3 13.93 C 0 km/h
289 19-08-2014 00:00:00 13.5 C 10.05 g/m*3 13.5 C 0 km/h
290 19-08-2014 01:00:00 12.44167 C 9.65 g/m*3 12.44 C 0 km/h
291 19-08-2014 02:00:00 11.60833 C 9.43 g/m*3 11.61 C 0 km/h
292 19-08-2014 03:00:00 10.93333 C 9.23 g/m*3 10.93 C 0 km/h
293 19-08-2014 04:00:00 10.525 C 9.07 g/m*3 10.53 C 0 km/h
294 19-08-2014 05:00:00 10.29167 C 9.06 g/m*3 10.29 C 0 km/h
295 19-08-2014 06:00:00 10.45833 C 9.19 g/m*3 10.46 C 1.46667 km/h
296 19-08-2014 07:00:00 11.00833 C 9.46 g/m*3 11.01 C 1.6 km/h
297 19-08-2014 08:00:00 12.3 C 10.01 g/m*3 12.3 C 6.96667 km/h
298 19-08-2014 09:00:00 13.99167 C 10.25 g/m*3 13.99 C 9.28333 km/h
299 19-08-2014 10:00:00 15.54167 C 10.27 g/m*3 15.54 C 14.63333 km/h
300 19-08-2014 11:00:00 16.39167 C 10.23 g/m*3 16.39 C 15.96667 km/h
Sensor: Nr:Datum:Temp:Abs-Feuchte:Windchill:Wind:
Aussen-T/F 301 19-08-2014 12:00:00 17.94167 C 10.13 g/m*3 17.94 C 15.29167 km/h
302 19-08-2014 13:00:00 19.725 C 9.92 g/m*3 19.73 C 14.625 km/h
303 19-08-2014 14:00:00 19.59167 C 10 g/m*3 19.59 C 16.63333 km/h
304 19-08-2014 15:00:00 15.925 C 10.31 g/m*3 15.93 C 12.35 km/h
305 19-08-2014 16:00:00 14.54167 C 10.94 g/m*3 14.54 C 4.175 km/h
306 19-08-2014 17:00:00 15.13333 C 11.58 g/m*3 15.13 C 0 km/h
307 19-08-2014 18:00:00 14.63333 C 11.02 g/m*3 14.63 C 4.69167 km/h
308 19-08-2014 19:00:00 13.95833 C 9.37 g/m*3 13.96 C 7.65 km/h
309 19-08-2014 20:00:00 13.89167 C 8.93 g/m*3 13.89 C 5.08333 km/h
310 19-08-2014 21:00:00 12.86667 C 9.56 g/m*3 12.87 C 1.60833 km/h
311 19-08-2014 22:00:00 11.95 C 9.56 g/m*3 11.95 C 0 km/h
312 19-08-2014 23:00:00 11.96667 C 9.3 g/m*3 11.97 C 0 km/h
313 20-08-2014 00:00:00 12.025 C 9 g/m*3 12.03 C 0 km/h
314 20-08-2014 01:00:00 11.25 C 8.73 g/m*3 11.25 C 0 km/h
315 20-08-2014 02:00:00 10.55 C 8.5 g/m*3 10.55 C 0 km/h
316 20-08-2014 03:00:00 9.49167 C 8.26 g/m*3 9.49 C 0 km/h
317 20-08-2014 04:00:00 8.61667 C 8.03 g/m*3 8.62 C 0 km/h
318 20-08-2014 05:00:00 8.33333 C 7.95 g/m*3 8.33 C 0 km/h
319 20-08-2014 06:00:00 8.14167 C 7.88 g/m*3 8.14 C 0 km/h
320 20-08-2014 07:00:00 7.98333 C 7.85 g/m*3 7.98 C 0 km/h
321 20-08-2014 08:00:00 8.675 C 8.26 g/m*3 8.68 C 1.33333 km/h
322 20-08-2014 09:00:00 10.58333 C 8.97 g/m*3 10.58 C 1.06667 km/h
323 20-08-2014 10:00:00 11.96667 C 9.42 g/m*3 11.97 C 0.4 km/h
324 20-08-2014 11:00:00 13.79167 C 9.61 g/m*3 13.79 C 0.93333 km/h
325 20-08-2014 12:00:00 16.14167 C 9.29 g/m*3 16.14 C 2.95 km/h
Sensor: Nr:Datum:Temp:Abs-Feuchte:Windchill:Wind:
Aussen-T/F 326 20-08-2014 13:00:00 14.675 C 10.52 g/m*3 14.68 C 0.675 km/h
327 20-08-2014 14:00:00 17.70833 C 8.87 g/m*3 17.71 C 6.16667 km/h
328 20-08-2014 15:00:00 17.325 C 10.52 g/m*3 17.33 C 0.66667 km/h
329 20-08-2014 16:00:00 17.79167 C 9.58 g/m*3 17.79 C 5.21667 km/h
330 20-08-2014 17:00:00 17.55833 C 10.62 g/m*3 17.56 C 0.80833 km/h
331 20-08-2014 18:00:00 17.16667 C 11.02 g/m*3 17.17 C 1.2 km/h
332 20-08-2014 19:00:00 15.01667 C 10.28 g/m*3 15.02 C 2.94167 km/h
333 20-08-2014 20:00:00 14.13333 C 10.04 g/m*3 14.13 C 0.66667 km/h
334 20-08-2014 21:00:00 12.825 C 9.13 g/m*3 12.83 C 2.28333 km/h
335 20-08-2014 22:00:00 11.83333 C 9.15 g/m*3 11.83 C 0 km/h
336 20-08-2014 23:00:00 10.9 C 8.95 g/m*3 10.9 C 0 km/h
337 21-08-2014 00:00:00 10.35833 C 8.72 g/m*3 10.36 C 0 km/h
338 21-08-2014 01:00:00 9.63333 C 8.51 g/m*3 9.63 C 0 km/h
339 21-08-2014 02:00:00 9.725 C 8.63 g/m*3 9.73 C 0 km/h
340 21-08-2014 03:00:00 9.35 C 8.41 g/m*3 9.35 C 0 km/h
341 21-08-2014 04:00:00 8.90833 C 8.26 g/m*3 8.91 C 0 km/h
342 21-08-2014 05:00:00 8.54167 C 8.13 g/m*3 8.54 C 0 km/h
343 21-08-2014 06:00:00 8.2 C 7.96 g/m*3 8.2 C 0.13333 km/h
344 21-08-2014 07:00:00 8.20833 C 8.04 g/m*3 8.21 C 0.13333 km/h
345 21-08-2014 08:00:00 8.76667 C 8.34 g/m*3 8.77 C 0.13333 km/h
346 21-08-2014 09:00:00 9.94167 C 8.92 g/m*3 9.94 C 0.4 km/h
347 21-08-2014 10:00:00 12.58333 C 9.44 g/m*3 12.58 C 6.70833 km/h
348 21-08-2014 11:00:00 14.55833 C 9.54 g/m*3 14.56 C 3.61667 km/h
349 21-08-2014 12:00:00 16.725 C 9.87 g/m*3 16.73 C 5.75833 km/h
350 21-08-2014 13:00:00 15.10833 C 10.4 g/m*3 15.11 C 1.475 km/h
Sensor: Nr:Datum:Temp:Abs-Feuchte:Windchill:Wind:
Aussen-T/F 351 21-08-2014 14:00:00 17.36667 C 9.68 g/m*3 17.37 C 3.48333 km/h
352 21-08-2014 15:00:00 17.75833 C 9.83 g/m*3 17.76 C 4.825 km/h
353 21-08-2014 16:00:00 18.6 C 9.97 g/m*3 18.6 C 4.13333 km/h
354 21-08-2014 17:00:00 18.75833 C 9.64 g/m*3 18.76 C 7.39167 km/h
355 21-08-2014 18:00:00 17.5 C 10.27 g/m*3 17.5 C 2 km/h
356 21-08-2014 19:00:00 14.91667 C 10.13 g/m*3 14.92 C 2.66667 km/h
357 21-08-2014 20:00:00 14.125 C 9.94 g/m*3 14.13 C 1.2 km/h
358 21-08-2014 21:00:00 13.75833 C 9.86 g/m*3 13.76 C 0.13333 km/h
359 21-08-2014 22:00:00 12.98333 C 9.67 g/m*3 12.98 C 0 km/h
360 21-08-2014 23:00:00 11.94167 C 9.26 g/m*3 11.94 C 0 km/h
361 22-08-2014 00:00:00 11 C 8.87 g/m*3 11 C 0 km/h
362 22-08-2014 01:00:00 10.16667 C 8.57 g/m*3 10.17 C 0 km/h
363 22-08-2014 02:00:00 9.36667 C 8.24 g/m*3 9.37 C 0 km/h
364 22-08-2014 03:00:00 8.76667 C 8.06 g/m*3 8.77 C 0 km/h
365 22-08-2014 04:00:00 8.25833 C 7.85 g/m*3 8.26 C 0 km/h
366 22-08-2014 05:00:00 8.31667 C 7.96 g/m*3 8.32 C 0 km/h
367 22-08-2014 06:00:00 9.06667 C 8.28 g/m*3 9.07 C 0 km/h
368 22-08-2014 07:00:00 10 C 8.56 g/m*3 10 C 0 km/h
369 22-08-2014 08:00:00 11.28333 C 8.76 g/m*3 11.28 C 3.35 km/h
370 22-08-2014 09:00:00 12.725 C 9.12 g/m*3 12.73 C 6.99167 km/h
371 22-08-2014 10:00:00 14.53333 C 9.66 g/m*3 14.53 C 5.61667 km/h
372 22-08-2014 11:00:00 17.275 C 9.52 g/m*3 17.27 C 10.63333 km/h
373 22-08-2014 12:00:00 18.23333 C 9.15 g/m*3 18.23 C 13.16667 km/h
374 22-08-2014 13:00:00 18.63333 C 9.13 g/m*3 18.63 C 13.03333 km/h
375 22-08-2014 14:00:00 18.51667 C 9.12 g/m*3 18.52 C 10.1 km/h
Sensor: Nr:Datum:Temp:Abs-Feuchte:Windchill:Wind:
Aussen-T/F 376 22-08-2014 15:00:00 18.81667 C 9.89 g/m*3 18.82 C 6.04167 km/h
377 22-08-2014 16:00:00 18.76667 C 10.14 g/m*3 18.77 C 7.65 km/h
378 22-08-2014 17:00:00 17.35 C 10.95 g/m*3 17.35 C 1.2 km/h
379 22-08-2014 18:00:00 18.89167 C 10.57 g/m*3 18.89 C 4.7 km/h
380 22-08-2014 19:00:00 17.70833 C 10.91 g/m*3 17.71 C 2.26667 km/h
381 22-08-2014 20:00:00 15.975 C 10.49 g/m*3 15.98 C 2 km/h
382 22-08-2014 21:00:00 14.75833 C 10.4 g/m*3 14.76 C 0.26667 km/h
383 22-08-2014 22:00:00 14.23333 C 10.32 g/m*3 14.23 C 0 km/h
384 22-08-2014 23:00:00 14.33333 C 10.52 g/m*3 14.33 C 0 km/h
385 23-08-2014 00:00:00 14.49167 C 10.27 g/m*3 14.49 C 0 km/h
386 23-08-2014 01:00:00 13.70833 C 10.27 g/m*3 13.71 C 0 km/h
387 23-08-2014 02:00:00 13.925 C 10.3 g/m*3 13.93 C 0 km/h
388 23-08-2014 03:00:00 13.93333 C 10.33 g/m*3 13.93 C 2.275 km/h
389 23-08-2014 04:00:00 13.81667 C 10.32 g/m*3 13.82 C 4.14167 km/h
390 23-08-2014 05:00:00 13.58333 C 10.37 g/m*3 13.58 C 3.20833 km/h
391 23-08-2014 06:00:00 13.28333 C 10.45 g/m*3 13.28 C 2.4 km/h
392 23-08-2014 07:00:00 13.04167 C 10.43 g/m*3 13.04 C 0.26667 km/h
393 23-08-2014 08:00:00 13.79167 C 10.61 g/m*3 13.79 C 5.35833 km/h
394 23-08-2014 09:00:00 14.85 C 10.58 g/m*3 14.85 C 10.49167 km/h
395 23-08-2014 10:00:00 16.18333 C 10.26 g/m*3 16.18 C 11.83333 km/h
396 23-08-2014 11:00:00 17.21667 C 9.61 g/m*3 17.22 C 12.5 km/h
397 23-08-2014 12:00:00 18.2 C 9.26 g/m*3 18.2 C 13.3 km/h
398 23-08-2014 13:00:00 18.79167 C 9.43 g/m*3 18.79 C 13.96667 km/h
399 23-08-2014 14:00:00 19.23333 C 9.64 g/m*3 19.23 C 13.7 km/h
400 23-08-2014 15:00:00 16.38333 C 10.04 g/m*3 16.38 C 6.55833 km/h
Sensor: Nr:Datum:Temp:Abs-Feuchte:Windchill:Wind:
Aussen-T/F 401 23-08-2014 16:00:00 14.05833 C 10.43 g/m*3 14.06 C 2.13333 km/h
402 23-08-2014 17:00:00 12.85 C 10.21 g/m*3 12.85 C 4.825 km/h
403 23-08-2014 18:00:00 13.79167 C 10.74 g/m*3 13.79 C 1.6 km/h
404 23-08-2014 19:00:00 12.54167 C 10.36 g/m*3 12.54 C 0.93333 km/h
405 23-08-2014 20:00:00 11.85833 C 9.89 g/m*3 11.86 C 1.73333 km/h
406 23-08-2014 21:00:00 11.35833 C 9.73 g/m*3 11.36 C 1.33333 km/h
407 23-08-2014 22:00:00 11.05833 C 9.55 g/m*3 11.06 C 1.06667 km/h
408 23-08-2014 23:00:00 10.5 C 9.3 g/m*3 10.5 C 0.4 km/h
409 24-08-2014 00:00:00 10.06667 C 9.06 g/m*3 10.07 C 0.26667 km/h
410 24-08-2014 01:00:00 9.725 C 8.88 g/m*3 9.73 C 0.66667 km/h
411 24-08-2014 02:00:00 10.26667 C 9.23 g/m*3 9.8 C 5.90833 km/h
412 24-08-2014 03:00:00 10.33333 C 9.09 g/m*3 10.33 C 0.8 km/h
413 24-08-2014 04:00:00 9.80833 C 8.91 g/m*3 9.81 C 0.53333 km/h
414 24-08-2014 05:00:00 8.95 C 8.44 g/m*3 8.95 C 0.26667 km/h
415 24-08-2014 06:00:00 8.90833 C 8.42 g/m*3 8.91 C 1.33333 km/h
416 24-08-2014 07:00:00 9.53333 C 8.7 g/m*3 9.53 C 2.93333 km/h
417 24-08-2014 08:00:00 10.06667 C 8.82 g/m*3 10.07 C 4.30833 km/h
418 24-08-2014 09:00:00 11.16667 C 9.11 g/m*3 11.17 C 8.89167 km/h
419 24-08-2014 10:00:00 11.93333 C 9.28 g/m*3 11.93 C 11.95833 km/h
420 24-08-2014 11:00:00 13.25833 C 9.55 g/m*3 13.26 C 11.3 km/h
421 24-08-2014 12:00:00 14.70833 C 9.92 g/m*3 14.71 C 8.59167 km/h
422 24-08-2014 13:00:00 15.66667 C 9.94 g/m*3 15.67 C 10.33333 km/h
423 24-08-2014 14:00:00 10.76667 C 9.38 g/m*3 10.77 C 1.06667 km/h
424 24-08-2014 15:00:00 12.69167 C 10.79 g/m*3 12.69 C 0.26667 km/h
425 24-08-2014 16:00:00 13.76667 C 11.42 g/m*3 13.77 C 0.13333 km/h
Sensor: Nr:Datum:Temp:Abs-Feuchte:Windchill:Wind:
Aussen-T/F 426 24-08-2014 17:00:00 13.275 C 11.11 g/m*3 13.28 C 1.2 km/h
427 24-08-2014 18:00:00 13.51667 C 11.3 g/m*3 13.52 C 0.4 km/h
428 24-08-2014 19:00:00 13.575 C 11.25 g/m*3 13.58 C 0.13333 km/h
429 24-08-2014 20:00:00 12.74167 C 10.76 g/m*3 12.74 C 0.66667 km/h
430 24-08-2014 21:00:00 11.675 C 10.11 g/m*3 11.68 C 0.26667 km/h
431 24-08-2014 22:00:00 11.225 C 9.85 g/m*3 11.23 C 0 km/h
432 24-08-2014 23:00:00 10.53333 C 9.43 g/m*3 10.53 C 0 km/h
433 25-08-2014 00:00:00 10.38333 C 9.34 g/m*3 10.38 C 0 km/h
434 25-08-2014 01:00:00 10.23333 C 9.34 g/m*3 10.23 C 0 km/h
435 25-08-2014 02:00:00 10.3 C 9.39 g/m*3 10.3 C 0 km/h
436 25-08-2014 03:00:00 10.3 C 9.39 g/m*3 10.3 C 0 km/h
437 25-08-2014 04:00:00 10.21667 C 9.34 g/m*3 10.22 C 0 km/h
438 25-08-2014 05:00:00 10.025 C 9.22 g/m*3 10.03 C 0 km/h
439 25-08-2014 06:00:00 9.75 C 9.06 g/m*3 9.75 C 0 km/h
440 25-08-2014 07:00:00 9.925 C 9.16 g/m*3 9.93 C 0 km/h
441 25-08-2014 08:00:00 10.45 C 9.47 g/m*3 10.45 C 0.26667 km/h
442 25-08-2014 09:00:00 11.16667 C 9.91 g/m*3 11.17 C 0 km/h
443 25-08-2014 10:00:00 12.775 C 10.96 g/m*3 12.78 C 0 km/h
444 25-08-2014 11:00:00 14.25833 C 11.95 g/m*3 14.26 C 0.26667 km/h
445 25-08-2014 12:00:00 15.80833 C 12.11 g/m*3 15.81 C 4.96667 km/h
446 25-08-2014 13:00:00 18.45833 C 11.44 g/m*3 18.46 C 10.88333 km/h
447 25-08-2014 14:00:00 18.25 C 11.64 g/m*3 18.25 C 6.58333 km/h
448 25-08-2014 15:00:00 16.41667 C 12.32 g/m*3 16.42 C 1.06667 km/h
449 25-08-2014 16:00:00 16.325 C 11.98 g/m*3 16.33 C 6.175 km/h
450 25-08-2014 17:00:00 16.04167 C 12.13 g/m*3 16.04 C 1.73333 km/h
Sensor: Nr:Datum:Temp:Abs-Feuchte:Windchill:Wind:
Aussen-T/F 451 25-08-2014 18:00:00 15.39167 C 12.27 g/m*3 15.39 C 0 km/h
452 25-08-2014 19:00:00 14.91667 C 12.17 g/m*3 14.92 C 0 km/h
453 25-08-2014 20:00:00 14.44167 C 11.9 g/m*3 14.44 C 0 km/h
454 25-08-2014 21:00:00 14.2 C 11.84 g/m*3 14.2 C 0 km/h
455 25-08-2014 22:00:00 14.00833 C 11.71 g/m*3 14.01 C 0 km/h
456 25-08-2014 23:00:00 13.68333 C 11.47 g/m*3 13.68 C 0.13333 km/h
457 26-08-2014 00:00:00 13.39167 C 11.27 g/m*3 13.39 C 0 km/h
458 26-08-2014 01:00:00 13.15 C 11.1 g/m*3 13.15 C 0.26667 km/h
459 26-08-2014 02:00:00 12.9 C 11.02 g/m*3 12.9 C 0.53333 km/h
460 26-08-2014 03:00:00 12.81667 C 10.94 g/m*3 12.82 C 0 km/h
461 26-08-2014 04:00:00 12.79167 C 10.97 g/m*3 12.79 C 0.26667 km/h
462 26-08-2014 05:00:00 12.7 C 10.91 g/m*3 12.7 C 0 km/h
463 26-08-2014 06:00:00 12.7 C 10.91 g/m*3 12.7 C 0 km/h
464 26-08-2014 07:00:00 12.78333 C 10.97 g/m*3 12.78 C 0 km/h
465 26-08-2014 08:00:00 13.1 C 11.18 g/m*3 13.1 C 0.13333 km/h
466 26-08-2014 09:00:00 14.13333 C 11.92 g/m*3 14.13 C 0.4 km/h
467 26-08-2014 10:00:00 15.70833 C 13.13 g/m*3 15.71 C 1.86667 km/h
468 26-08-2014 11:00:00 16.45 C 13.47 g/m*3 16.45 C 3.61667 km/h
469 26-08-2014 12:00:00 16.475 C 13.53 g/m*3 16.48 C 1.33333 km/h
470 26-08-2014 13:00:00 17.31667 C 14.07 g/m*3 17.32 C 2.675 km/h
471 26-08-2014 14:00:00 17.525 C 13.71 g/m*3 17.52 C 3.075 km/h
472 26-08-2014 15:00:00 17.425 C 14.1 g/m*3 17.43 C 1.46667 km/h
473 26-08-2014 16:00:00 16.73333 C 13.66 g/m*3 16.73 C 0.53333 km/h
474 26-08-2014 17:00:00 16.44167 C 13.51 g/m*3 16.44 C 0 km/h
475 26-08-2014 18:00:00 16.43333 C 13.57 g/m*3 16.43 C 0 km/h
Sensor: Nr:Datum:Temp:Abs-Feuchte:Windchill:Wind:
Aussen-T/F 476 26-08-2014 19:00:00 16.06667 C 13.27 g/m*3 16.07 C 0.13333 km/h
477 26-08-2014 20:00:00 15.34167 C 12.69 g/m*3 15.34 C 1.33333 km/h
478 26-08-2014 21:00:00 14.49167 C 12.06 g/m*3 14.49 C 2.66667 km/h
479 26-08-2014 22:00:00 14.24167 C 11.87 g/m*3 14.24 C 0.4 km/h
480 26-08-2014 23:00:00 13.95833 C 11.67 g/m*3 13.96 C 0.93333 km/h
481 27-08-2014 00:00:00 13.80833 C 11.61 g/m*3 13.81 C 0.66667 km/h
482 27-08-2014 01:00:00 13.64167 C 11.53 g/m*3 13.64 C 0 km/h
483 27-08-2014 02:00:00 13.59167 C 11.53 g/m*3 13.59 C 0 km/h
484 27-08-2014 03:00:00 13.55833 C 11.5 g/m*3 13.56 C 0 km/h
485 27-08-2014 04:00:00 13.4 C 11.39 g/m*3 13.4 C 0 km/h
486 27-08-2014 05:00:00 13.18333 C 11.24 g/m*3 13.18 C 0 km/h
487 27-08-2014 06:00:00 12.63333 C 10.86 g/m*3 12.63 C 0 km/h
488 27-08-2014 07:00:00 12.33333 C 10.66 g/m*3 12.33 C 0 km/h
489 27-08-2014 08:00:00 13.28182 C 11.39 g/m*3 13.28 C 0 km/h
490 27-08-2014 09:00:00 13.425 C 11.41 g/m*3 13.43 C 0 km/h
491 27-08-2014 10:00:00 14.325 C 11.98 g/m*3 14.33 C 0 km/h
492 27-08-2014 11:00:00 15.475 C 11.85 g/m*3 15.48 C 3.46667 km/h
493 27-08-2014 12:00:00 16.04167 C 12.26 g/m*3 16.04 C 2.00833 km/h
494 27-08-2014 13:00:00 18.08333 C 12.41 g/m*3 18.08 C 3.2 km/h
495 27-08-2014 14:00:00 18.33333 C 13.03 g/m*3 18.33 C 3.75 km/h
496 27-08-2014 15:00:00 20.79167 C 12.34 g/m*3 20.79 C 4.4 km/h
497 27-08-2014 16:00:00 20.48333 C 12.7 g/m*3 20.48 C 1.86667 km/h
498 27-08-2014 17:00:00 19.31667 C 13.13 g/m*3 19.32 C 1.86667 km/h
499 27-08-2014 18:00:00 17.325 C 13.27 g/m*3 17.33 C 0.13333 km/h
500 27-08-2014 19:00:00 16.75 C 12.9 g/m*3 16.75 C 0.26667 km/h
Sensor: Nr:Datum:Temp:Abs-Feuchte:Windchill:Wind:
Aussen-T/F 501 27-08-2014 20:00:00 15.01667 C 11.96 g/m*3 15.02 C 0.53333 km/h
502 27-08-2014 21:00:00 14.61667 C 11.88 g/m*3 14.62 C 0 km/h
503 27-08-2014 22:00:00 14.05833 C 11.47 g/m*3 14.06 C 0 km/h
504 27-08-2014 23:00:00 13.35833 C 11.04 g/m*3 13.36 C 0 km/h
505 28-08-2014 00:00:00 12.78333 C 10.74 g/m*3 12.78 C 0 km/h
506 28-08-2014 01:00:00 12.4 C 10.59 g/m*3 12.4 C 0 km/h
507 28-08-2014 02:00:00 12.13333 C 10.42 g/m*3 12.13 C 0 km/h
508 28-08-2014 03:00:00 12.09167 C 10.4 g/m*3 12.09 C 0 km/h
509 28-08-2014 04:00:00 11.75 C 10.19 g/m*3 11.75 C 0 km/h
510 28-08-2014 05:00:00 11.73333 C 10.19 g/m*3 11.73 C 0 km/h
511 28-08-2014 06:00:00 11.69167 C 10.24 g/m*3 11.69 C 0 km/h
512 28-08-2014 07:00:00 11.61667 C 10.19 g/m*3 11.62 C 0 km/h
513 28-08-2014 08:00:00 11.875 C 10.36 g/m*3 11.88 C 0 km/h
514 28-08-2014 09:00:00 12.79167 C 10.97 g/m*3 12.79 C 0 km/h
515 28-08-2014 10:00:00 14.7 C 12.34 g/m*3 14.7 C 0 km/h
516 28-08-2014 11:00:00 16.75 C 13.68 g/m*3 16.75 C 2 km/h
517 28-08-2014 12:00:00 19.64167 C 14.55 g/m*3 19.64 C 0.66667 km/h
518 28-08-2014 13:00:00 19.575 C 14.65 g/m*3 19.58 C 0.53333 km/h
519 28-08-2014 14:00:00 21.4 C 15.3 g/m*3 21.4 C 2.14167 km/h
520 28-08-2014 15:00:00 21.15 C 14.58 g/m*3 21.15 C 3.475 km/h
521 28-08-2014 16:00:00 20.59167 C 15.15 g/m*3 20.59 C 0.66667 km/h
522 28-08-2014 17:00:00 19.975 C 14.67 g/m*3 19.98 C 2.13333 km/h
523 28-08-2014 18:00:00 19.50833 C 14.97 g/m*3 19.51 C 0.53333 km/h
524 28-08-2014 19:00:00 18.60833 C 14.73 g/m*3 18.61 C 0 km/h
525 28-08-2014 20:00:00 17.61667 C 14.05 g/m*3 17.62 C 0 km/h
Sensor: Nr:Datum:Temp:Abs-Feuchte:Windchill:Wind:
Aussen-T/F 526 28-08-2014 21:00:00 16.8 C 13.65 g/m*3 16.8 C 0.13333 km/h
527 28-08-2014 22:00:00 16.74167 C 13.68 g/m*3 16.74 C 0 km/h
528 28-08-2014 23:00:00 16.25 C 13.31 g/m*3 16.25 C 0 km/h
529 29-08-2014 00:00:00 16.11667 C 13.25 g/m*3 16.12 C 0 km/h
530 29-08-2014 01:00:00 16.05833 C 13.26 g/m*3 16.06 C 0 km/h
531 29-08-2014 02:00:00 16.125 C 13.32 g/m*3 16.13 C 0.13333 km/h
532 29-08-2014 03:00:00 16.33333 C 13.48 g/m*3 16.33 C 0 km/h
533 29-08-2014 04:00:00 16.3 C 13.46 g/m*3 16.3 C 0 km/h
534 29-08-2014 05:00:00 16.00833 C 13.22 g/m*3 16.01 C 0 km/h
535 29-08-2014 06:00:00 15.875 C 13.12 g/m*3 15.88 C 0 km/h
536 29-08-2014 07:00:00 15.725 C 13 g/m*3 15.73 C 0 km/h
537 29-08-2014 08:00:00 16 C 13.17 g/m*3 16 C 0.26667 km/h
538 29-08-2014 09:00:00 17.15833 C 13.32 g/m*3 17.16 C 3.06667 km/h
539 29-08-2014 10:00:00 17.98333 C 13.41 g/m*3 17.98 C 2.675 km/h
540 29-08-2014 11:00:00 18.49167 C 13.35 g/m*3 18.49 C 3.75 km/h
541 29-08-2014 12:00:00 20.08333 C 13.79 g/m*3 20.08 C 3.48333 km/h
542 29-08-2014 13:00:00 22.30833 C 14.13 g/m*3 22.31 C 6.725 km/h
543 29-08-2014 14:00:00 23.80833 C 13.42 g/m*3 23.81 C 7.38333 km/h
544 29-08-2014 15:00:00 23.5 C 13.83 g/m*3 23.5 C 7.25 km/h
545 29-08-2014 16:00:00 22.725 C 14.16 g/m*3 22.73 C 9.8 km/h
546 29-08-2014 17:00:00 20.74167 C 14.38 g/m*3 20.74 C 6.58333 km/h
547 29-08-2014 18:00:00 19.06667 C 14.23 g/m*3 19.07 C 3.36667 km/h
548 29-08-2014 19:00:00 18.05 C 14.39 g/m*3 18.05 C 0.26667 km/h
549 29-08-2014 20:00:00 16.975 C 13.74 g/m*3 16.98 C 0 km/h
550 29-08-2014 21:00:00 16.33333 C 13.35 g/m*3 16.33 C 0 km/h
Sensor: Nr:Datum:Temp:Abs-Feuchte:Windchill:Wind:
Aussen-T/F 551 29-08-2014 22:00:00 15.96667 C 13.14 g/m*3 15.97 C 0.4 km/h
552 29-08-2014 23:00:00 15.53333 C 12.85 g/m*3 15.53 C 0 km/h
553 30-08-2014 00:00:00 15.36667 C 12.72 g/m*3 15.37 C 0 km/h
554 30-08-2014 01:00:00 14.54167 C 12.1 g/m*3 14.54 C 0 km/h
555 30-08-2014 02:00:00 14.475 C 12.08 g/m*3 14.48 C 0 km/h
556 30-08-2014 03:00:00 14.1 C 11.78 g/m*3 14.1 C 0 km/h
557 30-08-2014 04:00:00 13.475 C 11.33 g/m*3 13.48 C 0 km/h
558 30-08-2014 05:00:00 13.06667 C 11.09 g/m*3 13.07 C 0 km/h
559 30-08-2014 06:00:00 13.29167 C 11.31 g/m*3 13.29 C 0 km/h
560 30-08-2014 07:00:00 13.63333 C 11.47 g/m*3 13.63 C 0.4 km/h
561 30-08-2014 08:00:00 14.175 C 11.77 g/m*3 14.18 C 4.55 km/h
562 30-08-2014 09:00:00 15.44167 C 12.21 g/m*3 15.44 C 6.575 km/h
563 30-08-2014 10:00:00 17.075 C 12.62 g/m*3 17.08 C 5.49167 km/h
564 30-08-2014 11:00:00 17.98333 C 12.71 g/m*3 17.98 C 4.15 km/h
565 30-08-2014 12:00:00 19.425 C 12.71 g/m*3 19.43 C 8.48333 km/h
566 30-08-2014 13:00:00 19.78333 C 13 g/m*3 19.78 C 6.03333 km/h
567 30-08-2014 14:00:00 20.575 C 13.08 g/m*3 20.58 C 7.65833 km/h
568 30-08-2014 15:00:00 21.125 C 13.07 g/m*3 21.13 C 10.33333 km/h
569 30-08-2014 16:00:00 19.40833 C 13.05 g/m*3 19.41 C 4.15 km/h
570 30-08-2014 17:00:00 16.825 C 13.33 g/m*3 16.83 C 1.875 km/h
571 30-08-2014 18:00:00 16.475 C 13.4 g/m*3 16.48 C 0.4 km/h
572 30-08-2014 19:00:00 16.26667 C 13.29 g/m*3 16.27 C 0 km/h
573 30-08-2014 20:00:00 15.89167 C 13.08 g/m*3 15.89 C 0.13333 km/h
574 30-08-2014 21:00:00 15.73333 C 13 g/m*3 15.73 C 0 km/h
575 30-08-2014 22:00:00 15.775 C 13.04 g/m*3 15.78 C 0 km/h
Sensor: Nr:Datum:Temp:Abs-Feuchte:Windchill:Wind:
Aussen-T/F 576 30-08-2014 23:00:00 15.68333 C 13.02 g/m*3 15.68 C 2.425 km/h
577 31-08-2014 00:00:00 15.125 C 12.17 g/m*3 15.13 C 3.625 km/h
578 31-08-2014 01:00:00 14.65 C 12.05 g/m*3 14.65 C 0 km/h
579 31-08-2014 02:00:00 14.475 C 12.05 g/m*3 14.48 C 0 km/h
580 31-08-2014 03:00:00 14.375 C 11.97 g/m*3 14.38 C 0 km/h
581 31-08-2014 04:00:00 14.275 C 11.9 g/m*3 14.28 C 0 km/h
582 31-08-2014 05:00:00 13.90833 C 11.63 g/m*3 13.91 C 0 km/h
583 31-08-2014 06:00:00 13.76667 C 11.53 g/m*3 13.77 C 0 km/h
584 31-08-2014 07:00:00 13.85833 C 11.6 g/m*3 13.86 C 0 km/h
585 31-08-2014 08:00:00 13.9 C 11.63 g/m*3 13.9 C 0 km/h
586 31-08-2014 09:00:00 15 C 11.86 g/m*3 15 C 0.8 km/h
587 31-08-2014 10:00:00 16.275 C 11.73 g/m*3 16.27 C 4.14167 km/h
588 31-08-2014 11:00:00 17.25833 C 11.99 g/m*3 17.26 C 2.4 km/h
589 31-08-2014 12:00:00 17.51667 C 11.8 g/m*3 17.52 C 8.2 km/h
590 31-08-2014 13:00:00 18.06667 C 11.91 g/m*3 18.07 C 10.09167 km/h
591 31-08-2014 14:00:00 17.99167 C 12.14 g/m*3 17.99 C 3.35 km/h
592 31-08-2014 15:00:00 14.69167 C 11.37 g/m*3 14.69 C 2.55 km/h
593 31-08-2014 16:00:00 14.5 C 11.85 g/m*3 14.5 C 0 km/h
594 31-08-2014 17:00:00 14.09167 C 11.66 g/m*3 14.09 C 0 km/h
595 31-08-2014 18:00:00 13.81667 C 11.56 g/m*3 13.82 C 0 km/h
596 31-08-2014 19:00:00 13.74167 C 11.52 g/m*3 13.74 C 0 km/h
597 31-08-2014 20:00:00 13.38333 C 11.26 g/m*3 13.38 C 0.4 km/h
598 31-08-2014 21:00:00 13.175 C 11.12 g/m*3 13.18 C 0.8 km/h
599 31-08-2014 22:00:00 12.53333 C 10.69 g/m*3 12.53 C 0 km/h
600 31-08-2014 23:00:00 12.44167 C 10.69 g/m*3 12.44 C 0 km/h
Sensor: Nr:Datum:Temp:Abs-Feuchte:Windchill:Wind:
Aussen-T/F 601 01-09-2014 00:00:00 12.45 C 10.74 g/m*3 12.45 C 0 km/h
602 01-09-2014 01:00:00 12.4 C 10.71 g/m*3 12.4 C 0 km/h
603 01-09-2014 02:00:00 12.70833 C 10.91 g/m*3 12.71 C 0 km/h
604 01-09-2014 03:00:00 12.8 C 10.98 g/m*3 12.8 C 2.26667 km/h
605 01-09-2014 04:00:00 12.80833 C 10.98 g/m*3 12.81 C 0.4 km/h
606 01-09-2014 05:00:00 12.73333 C 10.93 g/m*3 12.73 C 0 km/h
607 01-09-2014 06:00:00 12.7 C 10.91 g/m*3 12.7 C 0 km/h
608 01-09-2014 07:00:00 12.76667 C 10.95 g/m*3 12.77 C 0 km/h
609 01-09-2014 08:00:00 13.225 C 11.25 g/m*3 13.23 C 0 km/h
610 01-09-2014 09:00:00 14.04167 C 11.39 g/m*3 14.04 C 2.66667 km/h
611 01-09-2014 10:00:00 14.825 C 11.29 g/m*3 14.83 C 2.66667 km/h
612 01-09-2014 11:00:00 16.00833 C 11.35 g/m*3 16.01 C 6.16667 km/h
613 01-09-2014 12:00:00 16.49167 C 11.38 g/m*3 16.49 C 4.26667 km/h
614 01-09-2014 13:00:00 17.33333 C 11.85 g/m*3 17.33 C 2 km/h
615 01-09-2014 14:00:00 18.03333 C 11.73 g/m*3 18.03 C 4.54167 km/h
616 01-09-2014 15:00:00 18.75833 C 11.66 g/m*3 18.76 C 3.06667 km/h
617 01-09-2014 16:00:00 17.325 C 12.38 g/m*3 17.33 C 0.53333 km/h
618 01-09-2014 17:00:00 15.90833 C 12.33 g/m*3 15.91 C 0 km/h
619 01-09-2014 18:00:00 15.84167 C 12.44 g/m*3 15.84 C 0 km/h
620 01-09-2014 19:00:00 15.3 C 12.25 g/m*3 15.3 C 0 km/h
621 01-09-2014 20:00:00 14.79167 C 11.88 g/m*3 14.79 C 0.4 km/h
622 01-09-2014 21:00:00 14.45833 C 11.65 g/m*3 14.46 C 0.13333 km/h
623 01-09-2014 22:00:00 13.80833 C 11.19 g/m*3 13.81 C 0 km/h
624 01-09-2014 23:00:00 13.01667 C 10.77 g/m*3 13.02 C 0 km/h
625 02-09-2014 00:00:00 12.71667 C 10.75 g/m*3 12.72 C 0 km/h
Sensor: Nr:Datum:Temp:Abs-Feuchte:Windchill:Wind:
Aussen-T/F 626 02-09-2014 01:00:00 12.45833 C 10.54 g/m*3 12.46 C 0 km/h
627 02-09-2014 02:00:00 11.70833 C 10.1 g/m*3 11.71 C 0 km/h
628 02-09-2014 03:00:00 11.375 C 9.94 g/m*3 11.38 C 0 km/h
629 02-09-2014 04:00:00 11.33333 C 9.91 g/m*3 11.33 C 0 km/h
630 02-09-2014 05:00:00 11.26667 C 9.9 g/m*3 11.27 C 0 km/h
631 02-09-2014 06:00:00 11.01667 C 9.74 g/m*3 11.02 C 0 km/h
632 02-09-2014 07:00:00 10.775 C 9.64 g/m*3 10.78 C 0 km/h
633 02-09-2014 08:00:00 10.85 C 9.72 g/m*3 10.85 C 0 km/h
634 02-09-2014 09:00:00 11.20833 C 9.94 g/m*3 11.21 C 0 km/h
635 02-09-2014 10:00:00 11.95 C 10.41 g/m*3 11.95 C 0 km/h
636 02-09-2014 11:00:00 13.73333 C 11.32 g/m*3 13.73 C 0 km/h
637 02-09-2014 12:00:00 15.81667 C 12.08 g/m*3 15.82 C 1.075 km/h
638 02-09-2014 13:00:00 20.025 C 12.16 g/m*3 20.02 C 8.45833 km/h
639 02-09-2014 14:00:00 20.84167 C 11.47 g/m*3 20.84 C 6.70833 km/h
640 02-09-2014 15:00:00 21.725 C 11.83 g/m*3 21.73 C 6.30833 km/h
641 02-09-2014 16:00:00 18.8 C 13.09 g/m*3 18.8 C 1.46667 km/h
642 02-09-2014 17:00:00 17.69167 C 13.22 g/m*3 17.69 C 0.93333 km/h
643 02-09-2014 18:00:00 17.09167 C 13.03 g/m*3 17.09 C 0.4 km/h
644 02-09-2014 19:00:00 16.45 C 12.88 g/m*3 16.45 C 0 km/h
645 02-09-2014 20:00:00 16.24167 C 12.85 g/m*3 16.24 C 0 km/h
646 02-09-2014 21:00:00 15.61667 C 12.44 g/m*3 15.62 C 0 km/h
647 02-09-2014 22:00:00 15.40833 C 12.48 g/m*3 15.41 C 0 km/h
648 02-09-2014 23:00:00 14.75833 C 11.98 g/m*3 14.76 C 0 km/h
649 03-09-2014 00:00:00 14.725 C 12.15 g/m*3 14.73 C 0 km/h
650 03-09-2014 01:00:00 14.98333 C 12.39 g/m*3 14.98 C 0 km/h
Sensor: Nr:Datum:Temp:Abs-Feuchte:Windchill:Wind:
Aussen-T/F 651 03-09-2014 02:00:00 15 C 12.36 g/m*3 15 C 0 km/h
652 03-09-2014 03:00:00 14.24167 C 11.75 g/m*3 14.24 C 0 km/h
653 03-09-2014 04:00:00 13.29167 C 11.05 g/m*3 13.29 C 0 km/h
654 03-09-2014 05:00:00 12.475 C 10.54 g/m*3 12.48 C 0 km/h
655 03-09-2014 06:00:00 12.00833 C 10.24 g/m*3 12.01 C 0 km/h
656 03-09-2014 07:00:00 11.725 C 10.08 g/m*3 11.73 C 0 km/h
657 03-09-2014 08:00:00 12.56667 C 10.67 g/m*3 12.57 C 0.26667 km/h
658 03-09-2014 09:00:00 13.875 C 10.75 g/m*3 13.88 C 1.86667 km/h
659 03-09-2014 10:00:00 15.06667 C 10.78 g/m*3 15.07 C 3.48333 km/h
660 03-09-2014 11:00:00 16.00833 C 10.78 g/m*3 16.01 C 6.975 km/h
661 03-09-2014 12:00:00 16.73333 C 11.06 g/m*3 16.73 C 7.25833 km/h
662 03-09-2014 13:00:00 16.85 C 11.16 g/m*3 16.85 C 7.8 km/h
663 03-09-2014 14:00:00 16.80833 C 11.35 g/m*3 16.81 C 7.24167 km/h
664 03-09-2014 15:00:00 16.85833 C 11.61 g/m*3 16.86 C 5.90833 km/h
665 03-09-2014 16:00:00 17.28333 C 11.96 g/m*3 17.28 C 2.66667 km/h
666 03-09-2014 17:00:00 16.74167 C 12.5 g/m*3 16.74 C 0 km/h
667 03-09-2014 18:00:00 16.3 C 12.75 g/m*3 16.3 C 0 km/h
668 03-09-2014 19:00:00 16.08333 C 12.64 g/m*3 16.08 C 0 km/h
669 03-09-2014 20:00:00 15.575 C 12.23 g/m*3 15.58 C 0 km/h
670 03-09-2014 21:00:00 15.25 C 12.09 g/m*3 15.25 C 0 km/h
671 03-09-2014 22:00:00 15.16667 C 12.05 g/m*3 15.17 C 0 km/h
672 03-09-2014 23:00:00 15.175 C 12.09 g/m*3 15.18 C 0 km/h
673 04-09-2014 00:00:00 14.98333 C 11.93 g/m*3 14.98 C 0 km/h
674 04-09-2014 01:00:00 14.56667 C 11.6 g/m*3 14.57 C 0 km/h
675 04-09-2014 02:00:00 14.25833 C 11.51 g/m*3 14.26 C 0 km/h
Sensor: Nr:Datum:Temp:Abs-Feuchte:Windchill:Wind:
Aussen-T/F 676 04-09-2014 03:00:00 13.45 C 11.02 g/m*3 13.45 C 0 km/h
677 04-09-2014 04:00:00 13.34167 C 11.12 g/m*3 13.34 C 0 km/h
678 04-09-2014 05:00:00 13.64167 C 11.35 g/m*3 13.64 C 0 km/h
679 04-09-2014 06:00:00 13.88333 C 11.5 g/m*3 13.88 C 0 km/h
680 04-09-2014 07:00:00 14.31667 C 11.89 g/m*3 14.32 C 0 km/h
681 04-09-2014 08:00:00 15.01667 C 12.33 g/m*3 15.02 C 0 km/h
682 04-09-2014 09:00:00 16.05833 C 12.81 g/m*3 16.06 C 0 km/h
683 04-09-2014 10:00:00 18.06667 C 13.2 g/m*3 18.07 C 0 km/h
684 04-09-2014 11:00:00 19.38333 C 13.15 g/m*3 19.38 C 6.05 km/h
685 04-09-2014 12:00:00 19.81667 C 13.26 g/m*3 19.82 C 8.46667 km/h
686 04-09-2014 13:00:00 19.65 C 13.18 g/m*3 19.65 C 6.84167 km/h
687 04-09-2014 14:00:00 20.025 C 13.49 g/m*3 20.02 C 8.20833 km/h
688 04-09-2014 15:00:00 20.14167 C 13.5 g/m*3 20.14 C 4.825 km/h
689 04-09-2014 16:00:00 19.68333 C 13.49 g/m*3 19.68 C 2.28333 km/h
690 04-09-2014 17:00:00 19.05 C 14.06 g/m*3 19.05 C 0 km/h
691 04-09-2014 18:00:00 17.90833 C 13.94 g/m*3 17.91 C 0 km/h
692 04-09-2014 19:00:00 17.30833 C 13.71 g/m*3 17.31 C 0 km/h
693 04-09-2014 20:00:00 17.04167 C 13.6 g/m*3 17.04 C 0 km/h
694 04-09-2014 21:00:00 16.85 C 13.58 g/m*3 16.85 C 0 km/h
695 04-09-2014 22:00:00 16.8 C 13.58 g/m*3 16.8 C 0 km/h
696 04-09-2014 23:00:00 16.525 C 13.36 g/m*3 16.52 C 0 km/h
697 05-09-2014 00:00:00 16.01667 C 13.08 g/m*3 16.02 C 0 km/h
698 05-09-2014 01:00:00 15.7 C 12.92 g/m*3 15.7 C 0 km/h
699 05-09-2014 02:00:00 15.88333 C 13.12 g/m*3 15.88 C 0 km/h
700 05-09-2014 03:00:00 16 C 13.22 g/m*3 16 C 0 km/h
Sensor: Nr:Datum:Temp:Abs-Feuchte:Windchill:Wind:
Aussen-T/F 701 05-09-2014 04:00:00 15.93333 C 13.16 g/m*3 15.93 C 0 km/h
702 05-09-2014 05:00:00 15.88333 C 13.12 g/m*3 15.88 C 0 km/h
703 05-09-2014 06:00:00 15.70833 C 12.98 g/m*3 15.71 C 0 km/h
704 05-09-2014 07:00:00 15.70833 C 12.98 g/m*3 15.71 C 0 km/h
705 05-09-2014 08:00:00 16.11667 C 13.38 g/m*3 16.12 C 0 km/h
706 05-09-2014 09:00:00 16.7 C 13.71 g/m*3 16.7 C 0 km/h
707 05-09-2014 10:00:00 18.025 C 14.13 g/m*3 18.02 C 0 km/h
708 05-09-2014 11:00:00 19.48333 C 14.68 g/m*3 19.48 C 0 km/h
709 05-09-2014 12:00:00 20.23333 C 15.02 g/m*3 20.23 C 0 km/h
710 05-09-2014 13:00:00 22.45833 C 16.06 g/m*3 22.46 C 0 km/h
711 05-09-2014 14:00:00 22.61667 C 16.45 g/m*3 22.62 C 0 km/h
712 05-09-2014 15:00:00 22.25833 C 15.91 g/m*3 22.26 C 0 km/h
713 05-09-2014 16:00:00 22.15 C 16.07 g/m*3 22.15 C 0 km/h
714 05-09-2014 17:00:00 21.65833 C 16.1 g/m*3 21.66 C 0 km/h
715 05-09-2014 18:00:00 20.33333 C 15.43 g/m*3 20.33 C 0 km/h
716 05-09-2014 19:00:00 18.99167 C 14.67 g/m*3 18.99 C 0 km/h
717 05-09-2014 20:00:00 18.125 C 14.13 g/m*3 18.13 C 0 km/h
718 05-09-2014 21:00:00 17.29167 C 13.61 g/m*3 17.29 C 0 km/h
719 05-09-2014 22:00:00 16.56667 C 13.19 g/m*3 16.57 C 0 km/h
720 05-09-2014 23:00:00 15.975 C 12.88 g/m*3 15.98 C 0 km/h
721 06-09-2014 00:00:00 15.68333 C 12.81 g/m*3 15.68 C 0 km/h
722 06-09-2014 01:00:00 15.59167 C 12.76 g/m*3 15.59 C 0 km/h
723 06-09-2014 02:00:00 15.125 C 12.45 g/m*3 15.13 C 0 km/h
724 06-09-2014 03:00:00 14.73333 C 12.24 g/m*3 14.73 C 0 km/h
725 06-09-2014 04:00:00 14.11667 C 11.78 g/m*3 14.12 C 0 km/h
Sensor: Nr:Datum:Temp:Abs-Feuchte:Windchill:Wind:
Aussen-T/F 726 06-09-2014 05:00:00 13.925 C 11.69 g/m*3 13.93 C 0 km/h
727 06-09-2014 06:00:00 13.85 C 11.64 g/m*3 13.85 C 0 km/h
728 06-09-2014 07:00:00 13.76667 C 11.65 g/m*3 13.77 C 0 km/h
729 06-09-2014 08:00:00 13.96667 C 11.8 g/m*3 13.97 C 0 km/h
730 06-09-2014 09:00:00 14.39167 C 12.11 g/m*3 14.39 C 0 km/h
731 06-09-2014 10:00:00 15.13333 C 12.67 g/m*3 15.13 C 0 km/h
732 06-09-2014 11:00:00 17.11667 C 14.17 g/m*3 17.12 C 0 km/h
733 06-09-2014 12:00:00 19.25833 C 15.03 g/m*3 19.26 C 0 km/h
734 06-09-2014 13:00:00 20.925 C 16.08 g/m*3 20.93 C 0 km/h
735 06-09-2014 14:00:00 21.04167 C 15.9 g/m*3 21.04 C 0 km/h
736 06-09-2014 15:00:00 21.38333 C 16.3 g/m*3 21.38 C 0 km/h
737 06-09-2014 16:00:00 22.90833 C 15.81 g/m*3 22.91 C 1.2 km/h
738 06-09-2014 17:00:00 20.76667 C 15.89 g/m*3 20.77 C 0.66667 km/h
739 06-09-2014 18:00:00 23.55 C 16.6 g/m*3 23.55 C 0.26667 km/h
740 06-09-2014 19:00:00 20.86667 C 15.8 g/m*3 20.87 C 0.26667 km/h
741 06-09-2014 20:00:00 18.6 C 14.76 g/m*3 18.6 C 0 km/h
742 06-09-2014 21:00:00 17.99167 C 14.44 g/m*3 17.99 C 0 km/h
743 06-09-2014 22:00:00 17.325 C 13.95 g/m*3 17.33 C 0 km/h
744 06-09-2014 23:00:00 16.925 C 13.78 g/m*3 16.93 C 0 km/h
745 07-09-2014 00:00:00 16.6 C 13.56 g/m*3 16.6 C 0 km/h
746 07-09-2014 01:00:00 16.1 C 13.2 g/m*3 16.1 C 0 km/h
747 07-09-2014 02:00:00 15.925 C 13.16 g/m*3 15.93 C 0 km/h
748 07-09-2014 03:00:00 16.26667 C 13.43 g/m*3 16.27 C 1.33333 km/h
749 07-09-2014 04:00:00 16.35833 C 13.5 g/m*3 16.36 C 0.66667 km/h
750 07-09-2014 05:00:00 16.51667 C 13.56 g/m*3 16.52 C 0.66667 km/h
Sensor: Nr:Datum:Temp:Abs-Feuchte:Windchill:Wind:
Aussen-T/F 751 07-09-2014 06:00:00 16.75833 C 13.7 g/m*3 16.76 C 0.26667 km/h
752 07-09-2014 07:00:00 17.03333 C 13.91 g/m*3 17.03 C 0 km/h
753 07-09-2014 08:00:00 17.21667 C 13.91 g/m*3 17.22 C 0 km/h
754 07-09-2014 09:00:00 17.56667 C 13.68 g/m*3 17.57 C 2.4 km/h
755 07-09-2014 10:00:00 18.15 C 13.56 g/m*3 18.15 C 6.16667 km/h
756 07-09-2014 11:00:00 18 C 13.21 g/m*3 18 C 6.45 km/h
757 07-09-2014 12:00:00 18.51667 C 13.26 g/m*3 18.52 C 3.46667 km/h
758 07-09-2014 14:00:00 20.77143 C 14.54 g/m*3 20.77 C 3.9 km/h
759 07-09-2014 15:00:00 22.025 C 13.69 g/m*3 22.03 C 5.09167 km/h
760 07-09-2014 16:00:00 22.80833 C 13.82 g/m*3 22.81 C 3.73333 km/h
761 07-09-2014 17:00:00 23.125 C 13.37 g/m*3 23.13 C 5.625 km/h
762 07-09-2014 18:00:00 21.94167 C 13.6 g/m*3 21.94 C 5.075 km/h
763 07-09-2014 19:00:00 18.375 C 13.61 g/m*3 18.38 C 0.13333 km/h
764 07-09-2014 20:00:00 17.075 C 13.11 g/m*3 17.08 C 0 km/h
765 07-09-2014 21:00:00 16.85 C 13.12 g/m*3 16.85 C 0 km/h
766 07-09-2014 22:00:00 16.725 C 13.09 g/m*3 16.73 C 0 km/h
767 07-09-2014 23:00:00 16.38333 C 12.89 g/m*3 16.38 C 0.13333 km/h
768 08-09-2014 00:00:00 15.71667 C 12.5 g/m*3 15.72 C 0 km/h
769 08-09-2014 01:00:00 15.41667 C 12.43 g/m*3 15.42 C 0 km/h
770 08-09-2014 02:00:00 15.05 C 12.22 g/m*3 15.05 C 0 km/h
771 08-09-2014 03:00:00 15.04167 C 12.32 g/m*3 15.04 C 0 km/h
772 08-09-2014 04:00:00 14.83333 C 12.17 g/m*3 14.83 C 0 km/h
773 08-09-2014 05:00:00 14.33333 C 11.88 g/m*3 14.33 C 0 km/h
774 08-09-2014 06:00:00 14.325 C 11.94 g/m*3 14.33 C 0 km/h
775 08-09-2014 07:00:00 14.33333 C 11.94 g/m*3 14.33 C 0 km/h
Sensor: Nr:Datum:Temp:Abs-Feuchte:Windchill:Wind:
Aussen-T/F 776 08-09-2014 08:00:00 14.94167 C 12.39 g/m*3 14.94 C 0 km/h
777 08-09-2014 09:00:00 16.11667 C 13.01 g/m*3 16.12 C 0.13333 km/h
778 08-09-2014 10:00:00 17.28333 C 13.15 g/m*3 17.28 C 0.4 km/h
779 08-09-2014 11:00:00 17.78333 C 13.49 g/m*3 17.78 C 0.13333 km/h
780 08-09-2014 12:00:00 18.53333 C 13.71 g/m*3 18.53 C 0.53333 km/h
781 08-09-2014 13:00:00 21.96667 C 14.16 g/m*3 21.97 C 5.375 km/h
782 08-09-2014 14:00:00 22.85833 C 13.2 g/m*3 22.86 C 6.16667 km/h
783 08-09-2014 15:00:00 23.36667 C 12.96 g/m*3 23.37 C 6.425 km/h
784 08-09-2014 16:00:00 24.25833 C 12.68 g/m*3 24.26 C 7.11667 km/h
785 08-09-2014 17:00:00 23.41667 C 12.8 g/m*3 23.42 C 5.35 km/h
786 08-09-2014 18:00:00 22.36667 C 12.49 g/m*3 22.37 C 7.25833 km/h
787 08-09-2014 19:00:00 21.00833 C 12.33 g/m*3 21.01 C 4.94167 km/h
788 08-09-2014 20:00:00 17.9 C 12.53 g/m*3 17.9 C 1.86667 km/h
789 08-09-2014 21:00:00 16.29167 C 12.02 g/m*3 16.29 C 0.93333 km/h
790 08-09-2014 22:00:00 15.56667 C 11.82 g/m*3 15.57 C 0.13333 km/h
791 08-09-2014 23:00:00 15.30833 C 11.8 g/m*3 15.31 C 0.4 km/h
792 09-09-2014 00:00:00 14.48333 C 11.36 g/m*3 14.48 C 0.26667 km/h
793 09-09-2014 01:00:00 13.825 C 11.13 g/m*3 13.83 C 0 km/h
794 09-09-2014 02:00:00 13.4 C 10.96 g/m*3 13.4 C 0.13333 km/h
795 09-09-2014 03:00:00 12.90833 C 10.71 g/m*3 12.91 C 0 km/h
796 09-09-2014 04:00:00 12.50833 C 10.54 g/m*3 12.51 C 0 km/h
797 09-09-2014 05:00:00 12.1 C 10.29 g/m*3 12.1 C 0 km/h
798 09-09-2014 06:00:00 11.675 C 10.04 g/m*3 11.68 C 0.13333 km/h
799 09-09-2014 07:00:00 11.6 C 10.06 g/m*3 11.6 C 0.26667 km/h
800 09-09-2014 08:00:00 12.21667 C 10.48 g/m*3 12.22 C 0.13333 km/h
Sensor: Nr:Datum:Temp:Abs-Feuchte:Windchill:Wind:
Aussen-T/F 801 09-09-2014 09:00:00 12.975 C 10.82 g/m*3 12.98 C 0.4 km/h
802 09-09-2014 10:00:00 14.40833 C 11.23 g/m*3 14.41 C 2.53333 km/h
803 09-09-2014 11:00:00 15.95833 C 11.53 g/m*3 15.96 C 2.66667 km/h
804 09-09-2014 12:00:00 17.26667 C 11.15 g/m*3 17.27 C 4.95 km/h
805 09-09-2014 13:00:00 19.30833 C 11.45 g/m*3 19.31 C 6.025 km/h
806 09-09-2014 14:00:00 20.175 C 10.88 g/m*3 20.18 C 7.51667 km/h
807 09-09-2014 15:00:00 21.025 C 10.62 g/m*3 21.03 C 7.79167 km/h
808 09-09-2014 16:00:00 21.84167 C 10.24 g/m*3 21.84 C 8.19167 km/h
809 09-09-2014 17:00:00 21.91667 C 9.82 g/m*3 21.92 C 8.05833 km/h
810 09-09-2014 18:00:00 21.45 C 10.12 g/m*3 21.45 C 6.83333 km/h
811 09-09-2014 19:00:00 19.45833 C 10.35 g/m*3 19.46 C 7.24167 km/h
812 09-09-2014 20:00:00 15.9 C 10.54 g/m*3 15.9 C 1.74167 km/h
813 09-09-2014 21:00:00 13.85 C 10.21 g/m*3 13.85 C 0.53333 km/h
814 09-09-2014 22:00:00 12.975 C 10.07 g/m*3 12.98 C 0.13333 km/h
815 09-09-2014 23:00:00 12.36667 C 9.88 g/m*3 12.37 C 0 km/h
816 10-09-2014 00:00:00 11.675 C 9.63 g/m*3 11.68 C 0 km/h
817 10-09-2014 01:00:00 11.56667 C 9.73 g/m*3 11.57 C 0 km/h
818 10-09-2014 02:00:00 11.625 C 9.79 g/m*3 11.63 C 0 km/h
819 10-09-2014 03:00:00 11.63333 C 9.8 g/m*3 11.63 C 0 km/h
820 10-09-2014 04:00:00 11.65833 C 9.91 g/m*3 11.66 C 0.26667 km/h
821 10-09-2014 05:00:00 11.83333 C 10.02 g/m*3 11.83 C 0.4 km/h
822 10-09-2014 06:00:00 11.95833 C 10.1 g/m*3 11.96 C 0 km/h
823 10-09-2014 07:00:00 12.24167 C 10.28 g/m*3 12.24 C 0.13333 km/h
824 10-09-2014 08:00:00 12.9 C 10.68 g/m*3 12.9 C 0.66667 km/h
825 10-09-2014 09:00:00 14.06667 C 11.14 g/m*3 14.07 C 0.8 km/h
Sensor: Nr:Datum:Temp:Abs-Feuchte:Windchill:Wind:
Aussen-T/F 826 10-09-2014 10:00:00 15.10833 C 11.25 g/m*3 15.11 C 6.04167 km/h
827 10-09-2014 11:00:00 15.86667 C 11.06 g/m*3 15.87 C 6.56667 km/h
828 10-09-2014 12:00:00 16.55833 C 10.7 g/m*3 16.56 C 9.275 km/h
829 10-09-2014 13:00:00 16.85833 C 10.51 g/m*3 16.86 C 8.20833 km/h
830 10-09-2014 14:00:00 17.44167 C 10.16 g/m*3 17.44 C 8.61667 km/h
831 10-09-2014 15:00:00 17.14167 C 10.01 g/m*3 17.14 C 8.88333 km/h
832 10-09-2014 16:00:00 17.31667 C 9.7 g/m*3 17.32 C 8.60833 km/h
833 10-09-2014 17:00:00 17.15833 C 9.11 g/m*3 17.16 C 9.00833 km/h
834 10-09-2014 18:00:00 16.98333 C 9.08 g/m*3 16.98 C 6.975 km/h
835 10-09-2014 19:00:00 15.84167 C 9.69 g/m*3 15.84 C 2.80833 km/h
836 10-09-2014 20:00:00 14.5 C 10.2 g/m*3 14.5 C 0.53333 km/h
837 10-09-2014 21:00:00 14.375 C 10.4 g/m*3 14.38 C 0.4 km/h
838 10-09-2014 22:00:00 13.84167 C 10.31 g/m*3 13.84 C 0.26667 km/h
839 10-09-2014 23:00:00 12.54167 C 9.98 g/m*3 12.54 C 0.26667 km/h
840 11-09-2014 00:00:00 12.3 C 10.04 g/m*3 12.3 C 0.13333 km/h
841 11-09-2014 01:00:00 12.10833 C 10.02 g/m*3 12.11 C 0.26667 km/h
842 11-09-2014 02:00:00 12.00833 C 10.07 g/m*3 12.01 C 0.26667 km/h
843 11-09-2014 03:00:00 12.14167 C 10.18 g/m*3 12.14 C 0.93333 km/h
844 11-09-2014 04:00:00 12.56667 C 10.45 g/m*3 12.57 C 0.26667 km/h
845 11-09-2014 05:00:00 12.60833 C 10.42 g/m*3 12.61 C 0.13333 km/h
846 11-09-2014 06:00:00 12.54167 C 10.51 g/m*3 12.54 C 0.4 km/h
847 11-09-2014 07:00:00 13.025 C 10.8 g/m*3 13.03 C 0.53333 km/h
848 11-09-2014 08:00:00 13.76667 C 11.19 g/m*3 13.77 C 0.93333 km/h
849 11-09-2014 09:00:00 14.825 C 11.52 g/m*3 14.83 C 5.75833 km/h
850 11-09-2014 10:00:00 15.85 C 11.58 g/m*3 15.85 C 6.44167 km/h
Sensor: Nr:Datum:Temp:Abs-Feuchte:Windchill:Wind:
Aussen-T/F 851 11-09-2014 11:00:00 16.76667 C 11.36 g/m*3 16.77 C 8.2 km/h
852 11-09-2014 12:00:00 17.75833 C 11.28 g/m*3 17.76 C 8.45833 km/h
853 11-09-2014 13:00:00 18.19167 C 11.13 g/m*3 18.19 C 10.23333 km/h
854 11-09-2014 14:00:00 18.81667 C 10.85 g/m*3 18.82 C 12.76667 km/h
855 11-09-2014 15:00:00 19.39167 C 10.58 g/m*3 19.39 C 9.275 km/h
856 11-09-2014 16:00:00 18.91667 C 10.07 g/m*3 18.92 C 10.225 km/h
857 11-09-2014 17:00:00 18.975 C 9.9 g/m*3 18.98 C 9.95 km/h
858 11-09-2014 18:00:00 18.14167 C 10.87 g/m*3 18.14 C 3.48333 km/h
859 11-09-2014 19:00:00 15.95 C 10.78 g/m*3 15.95 C 1.34167 km/h
860 11-09-2014 20:00:00 14.675 C 9.84 g/m*3 14.68 C 1.60833 km/h
861 11-09-2014 21:00:00 13.40833 C 9.77 g/m*3 13.41 C 1.06667 km/h
862 11-09-2014 22:00:00 12.56667 C 9.64 g/m*3 12.57 C 0.4 km/h
863 11-09-2014 23:00:00 11.76667 C 9.53 g/m*3 11.77 C 0 km/h
864 12-09-2014 00:00:00 11.15833 C 9.35 g/m*3 11.16 C 0 km/h
865 12-09-2014 01:00:00 10.54167 C 9.12 g/m*3 10.54 C 0 km/h
866 12-09-2014 02:00:00 10.05833 C 8.95 g/m*3 10.06 C 0.13333 km/h
867 12-09-2014 03:00:00 9.7 C 8.8 g/m*3 9.7 C 0.13333 km/h
868 12-09-2014 04:00:00 9.825 C 8.92 g/m*3 9.82 C 0 km/h
869 12-09-2014 05:00:00 9.40833 C 8.69 g/m*3 9.41 C 0.13333 km/h
870 12-09-2014 06:00:00 8.93333 C 8.43 g/m*3 8.93 C 0 km/h
871 12-09-2014 07:00:00 9.31667 C 8.73 g/m*3 9.32 C 0 km/h
872 12-09-2014 08:00:00 10 C 9.11 g/m*3 10 C 0.26667 km/h
873 12-09-2014 09:00:00 11.03333 C 9.71 g/m*3 11.03 C 0.26667 km/h
874 12-09-2014 10:00:00 12.45833 C 10.09 g/m*3 12.46 C 4 km/h
875 12-09-2014 11:00:00 14.175 C 10.54 g/m*3 14.18 C 7.50833 km/h
Sensor: Nr:Datum:Temp:Abs-Feuchte:Windchill:Wind:
Aussen-T/F 876 12-09-2014 12:00:00 16.36667 C 11.21 g/m*3 16.37 C 9.55 km/h
877 12-09-2014 13:00:00 18.21667 C 11.4 g/m*3 18.22 C 12.35833 km/h
878 12-09-2014 14:00:00 19.99167 C 10.61 g/m*3 19.99 C 14.9 km/h
879 12-09-2014 15:00:00 19.4 C 10.51 g/m*3 19.4 C 13.96667 km/h
880 12-09-2014 16:00:00 18.95 C 10.64 g/m*3 18.95 C 10.49167 km/h
881 12-09-2014 17:00:00 18.34167 C 10.88 g/m*3 18.34 C 12.5 km/h
882 12-09-2014 18:00:00 17.65 C 11.27 g/m*3 17.65 C 6.975 km/h
883 12-09-2014 19:00:00 17.20833 C 11.42 g/m*3 17.21 C 4.15 km/h
884 12-09-2014 20:00:00 16.74167 C 11.65 g/m*3 16.74 C 3.46667 km/h
885 12-09-2014 21:00:00 16.54167 C 11.73 g/m*3 16.54 C 3.34167 km/h
886 12-09-2014 22:00:00 16.5 C 11.75 g/m*3 16.5 C 2.53333 km/h
887 12-09-2014 23:00:00 16.4 C 11.84 g/m*3 16.4 C 0.8 km/h
888 13-09-2014 00:00:00 16.14167 C 11.93 g/m*3 16.14 C 0.4 km/h
889 13-09-2014 01:00:00 15.88333 C 11.91 g/m*3 15.88 C 0.53333 km/h
890 13-09-2014 02:00:00 15.325 C 11.68 g/m*3 15.33 C 0.4 km/h
891 13-09-2014 03:00:00 15.21667 C 11.8 g/m*3 15.22 C 0.13333 km/h
892 13-09-2014 04:00:00 15.16667 C 11.97 g/m*3 15.17 C 0 km/h
893 13-09-2014 05:00:00 14.86667 C 11.96 g/m*3 14.87 C 0 km/h
894 13-09-2014 06:00:00 14.95833 C 11.84 g/m*3 14.96 C 0.4 km/h
895 13-09-2014 07:00:00 15.125 C 11.76 g/m*3 15.13 C 2.80833 km/h
896 13-09-2014 08:00:00 15.2 C 11.74 g/m*3 15.2 C 2.275 km/h
897 13-09-2014 09:00:00 15.7 C 11.85 g/m*3 15.7 C 4.68333 km/h
898 13-09-2014 10:00:00 15.9 C 11.87 g/m*3 15.9 C 6.84167 km/h
899 13-09-2014 11:00:00 15.88333 C 11.91 g/m*3 15.88 C 5.75833 km/h
900 13-09-2014 12:00:00 16.29167 C 12.12 g/m*3 16.29 C 4.675 km/h
Sensor: Nr:Datum:Temp:Abs-Feuchte:Windchill:Wind:
Aussen-T/F 901 13-09-2014 13:00:00 17.15833 C 12.54 g/m*3 17.16 C 5.61667 km/h
902 13-09-2014 14:00:00 17.525 C 12.64 g/m*3 17.52 C 6.83333 km/h
903 13-09-2014 15:00:00 17.45833 C 12.73 g/m*3 17.46 C 3.875 km/h
904 13-09-2014 16:00:00 17.56667 C 12.82 g/m*3 17.57 C 5.5 km/h
905 13-09-2014 17:00:00 17.775 C 12.57 g/m*3 17.77 C 6.3 km/h
906 13-09-2014 18:00:00 17.29167 C 12.56 g/m*3 17.29 C 2.4 km/h
907 13-09-2014 19:00:00 16.41667 C 12.61 g/m*3 16.42 C 0.4 km/h
908 13-09-2014 20:00:00 16.35 C 12.48 g/m*3 16.35 C 1.33333 km/h
909 13-09-2014 21:00:00 16.175 C 12.45 g/m*3 16.18 C 0 km/h
910 13-09-2014 22:00:00 15.85 C 12.31 g/m*3 15.85 C 0 km/h
911 13-09-2014 23:00:00 15.68333 C 12.3 g/m*3 15.68 C 0 km/h
912 14-09-2014 00:00:00 15.6 C 12.23 g/m*3 15.6 C 0 km/h
913 14-09-2014 01:00:00 15.625 C 12.31 g/m*3 15.63 C 0 km/h
914 14-09-2014 02:00:00 15.64167 C 12.27 g/m*3 15.64 C 0.13333 km/h
915 14-09-2014 03:00:00 15.45 C 12.21 g/m*3 15.45 C 0 km/h
916 14-09-2014 04:00:00 15.3 C 12.1 g/m*3 15.3 C 0 km/h
917 14-09-2014 05:00:00 15.21667 C 11.92 g/m*3 15.22 C 0.26667 km/h
918 14-09-2014 06:00:00 15.13333 C 11.76 g/m*3 15.13 C 0.66667 km/h
919 14-09-2014 07:00:00 14.95833 C 11.55 g/m*3 14.96 C 0.93333 km/h
920 14-09-2014 08:00:00 15.03333 C 11.66 g/m*3 15.03 C 0.66667 km/h
921 14-09-2014 09:00:00 15.425 C 11.75 g/m*3 15.43 C 0.93333 km/h
922 14-09-2014 10:00:00 16.05833 C 11.99 g/m*3 16.06 C 2.66667 km/h
923 14-09-2014 11:00:00 16.80833 C 12.23 g/m*3 16.81 C 3.6 km/h
924 14-09-2014 12:00:00 17.06667 C 12.43 g/m*3 17.07 C 1.46667 km/h
925 14-09-2014 13:00:00 17.72 C 12.75 g/m*3 17.72 C 0.96 km/h
Sensor: Nr:Datum:Temp:Abs-Feuchte:Windchill:Wind:
Aussen-T/F 926 14-09-2014 14:00:00 18.55833 C 13.24 g/m*3 18.56 C 0.93333 km/h
927 14-09-2014 15:00:00 18.625 C 13.34 g/m*3 18.63 C 0.4 km/h
928 14-09-2014 16:00:00 20.3 C 13.66 g/m*3 20.3 C 2.4 km/h
929 14-09-2014 17:00:00 21.6 C 13.67 g/m*3 21.6 C 2.93333 km/h
930 14-09-2014 18:00:00 20.7 C 14 g/m*3 20.7 C 0.93333 km/h
931 14-09-2014 19:00:00 18.425 C 13.51 g/m*3 18.43 C 0 km/h
932 14-09-2014 20:00:00 16.18333 C 12.59 g/m*3 16.18 C 0.26667 km/h
933 14-09-2014 21:00:00 15.60833 C 12.3 g/m*3 15.61 C 0 km/h
934 14-09-2014 22:00:00 15.00833 C 12.11 g/m*3 15.01 C 0 km/h
935 14-09-2014 23:00:00 14.225 C 11.59 g/m*3 14.23 C 0 km/h
936 15-09-2014 00:00:00 13.58333 C 11.28 g/m*3 13.58 C 0 km/h
937 15-09-2014 01:00:00 13.05833 C 10.93 g/m*3 13.06 C 0 km/h
938 15-09-2014 02:00:00 12.55 C 10.65 g/m*3 12.55 C 0 km/h
939 15-09-2014 03:00:00 12.26667 C 10.51 g/m*3 12.27 C 0 km/h
940 15-09-2014 04:00:00 12.775 C 10.86 g/m*3 12.78 C 0.13333 km/h
941 15-09-2014 05:00:00 12.86667 C 10.99 g/m*3 12.87 C 0 km/h
942 15-09-2014 06:00:00 12.99167 C 11.11 g/m*3 12.99 C 0 km/h
943 15-09-2014 07:00:00 13.1 C 11.18 g/m*3 13.1 C 0.26667 km/h
944 15-09-2014 08:00:00 13.28333 C 11.31 g/m*3 13.28 C 0 km/h
945 15-09-2014 09:00:00 13.76667 C 11.65 g/m*3 13.77 C 0 km/h
946 15-09-2014 10:00:00 14.22 C 11.98 g/m*3 14.22 C 0.32 km/h
947 15-09-2014 11:00:00 16.625 C 13.29 g/m*3 16.63 C 1.86667 km/h
948 15-09-2014 12:00:00 19.025 C 13.83 g/m*3 19.02 C 6.025 km/h
949 15-09-2014 13:00:00 20.26667 C 14.04 g/m*3 20.27 C 3.33333 km/h
950 15-09-2014 14:00:00 19.80833 C 14.44 g/m*3 19.81 C 1.06667 km/h
Sensor: Nr:Datum:Temp:Abs-Feuchte:Windchill:Wind:
Aussen-T/F 951 15-09-2014 15:00:00 20.93333 C 14.29 g/m*3 20.93 C 5.48333 km/h
952 15-09-2014 16:00:00 21.91667 C 14.49 g/m*3 21.92 C 6.29167 km/h
953 15-09-2014 17:00:00 20.95 C 14.64 g/m*3 20.95 C 2.53333 km/h
954 15-09-2014 18:00:00 19.51667 C 14.66 g/m*3 19.52 C 0.4 km/h
955 15-09-2014 19:00:00 17.99167 C 13.79 g/m*3 17.99 C 0.13333 km/h
956 15-09-2014 20:00:00 16.53333 C 13.04 g/m*3 16.53 C 0.4 km/h
957 15-09-2014 21:00:00 16.09167 C 12.83 g/m*3 16.09 C 0.13333 km/h
958 15-09-2014 22:00:00 15.59167 C 12.63 g/m*3 15.59 C 0 km/h
959 15-09-2014 23:00:00 15.1 C 12.34 g/m*3 15.1 C 0 km/h
960 16-09-2014 00:00:00 14.5 C 11.98 g/m*3 14.5 C 0 km/h
961 16-09-2014 01:00:00 14.13333 C 11.77 g/m*3 14.13 C 0 km/h
962 16-09-2014 02:00:00 13.66667 C 11.46 g/m*3 13.67 C 0 km/h
963 16-09-2014 03:00:00 13.25833 C 11.18 g/m*3 13.26 C 0 km/h
964 16-09-2014 04:00:00 13.45833 C 11.36 g/m*3 13.46 C 0 km/h
965 16-09-2014 05:00:00 13.70833 C 11.61 g/m*3 13.71 C 0 km/h
966 16-09-2014 06:00:00 13.775 C 11.65 g/m*3 13.78 C 0 km/h
967 16-09-2014 07:00:00 13.9 C 11.75 g/m*3 13.9 C 0.13333 km/h
968 16-09-2014 08:00:00 14.10833 C 11.9 g/m*3 14.11 C 0.93333 km/h
969 16-09-2014 09:00:00 14.6 C 12.26 g/m*3 14.6 C 1.6 km/h
970 16-09-2014 10:00:00 15.43333 C 12.9 g/m*3 15.43 C 0.8 km/h
971 16-09-2014 11:00:00 17.20833 C 13.69 g/m*3 17.21 C 5.63333 km/h
972 16-09-2014 12:00:00 19.05833 C 14.05 g/m*3 19.06 C 4.68333 km/h
973 16-09-2014 13:00:00 22.09167 C 14.99 g/m*3 22.09 C 7.10833 km/h
974 16-09-2014 14:00:00 23.09167 C 14.96 g/m*3 23.09 C 6.44167 km/h
975 16-09-2014 15:00:00 21.69167 C 15.16 g/m*3 21.69 C 2.94167 km/h
Sensor: Nr:Datum:Temp:Abs-Feuchte:Windchill:Wind:
Aussen-T/F 976 16-09-2014 16:00:00 24.63333 C 14.86 g/m*3 24.63 C 4.95 km/h
977 16-09-2014 17:00:00 22.30833 C 14.98 g/m*3 22.31 C 1.2 km/h
978 16-09-2014 18:00:00 20.45 C 14.77 g/m*3 20.45 C 0.4 km/h
979 16-09-2014 19:00:00 18.53333 C 13.81 g/m*3 18.53 C 1.06667 km/h
980 16-09-2014 20:00:00 16.85 C 12.94 g/m*3 16.85 C 0.26667 km/h
981 16-09-2014 21:00:00 16.025 C 12.61 g/m*3 16.02 C 0 km/h
982 16-09-2014 22:00:00 15.35 C 12.28 g/m*3 15.35 C 0 km/h
983 16-09-2014 23:00:00 14.55 C 11.8 g/m*3 14.55 C 0 km/h
984 17-09-2014 00:00:00 13.91667 C 11.5 g/m*3 13.92 C 0 km/h
985 17-09-2014 01:00:00 13.625 C 11.33 g/m*3 13.63 C 0 km/h
986 17-09-2014 02:00:00 13.2 C 11.09 g/m*3 13.2 C 0 km/h
987 17-09-2014 03:00:00 12.63333 C 10.75 g/m*3 12.63 C 0 km/h
988 17-09-2014 04:00:00 12.15 C 10.43 g/m*3 12.15 C 0 km/h
989 17-09-2014 05:00:00 12.24167 C 10.54 g/m*3 12.24 C 0 km/h
990 17-09-2014 06:00:00 12.35833 C 10.68 g/m*3 12.36 C 0 km/h
991 17-09-2014 07:00:00 12.175 C 10.56 g/m*3 12.18 C 0 km/h
992 17-09-2014 08:00:00 12.35 C 10.67 g/m*3 12.35 C 0 km/h
993 17-09-2014 09:00:00 12.86667 C 11.02 g/m*3 12.87 C 0 km/h
994 17-09-2014 10:00:00 13.6 C 11.53 g/m*3 13.6 C 0 km/h
995 17-09-2014 11:00:00 14.88333 C 12.51 g/m*3 14.88 C 0 km/h
996 17-09-2014 12:00:00 16.725 C 13.84 g/m*3 16.73 C 0.66667 km/h
997 17-09-2014 13:00:00 20.76667 C 15.32 g/m*3 20.77 C 2.66667 km/h
998 17-09-2014 14:00:00 22.73333 C 15.59 g/m*3 22.73 C 3.61667 km/h
999 17-09-2014 15:00:00 22.15 C 15.5 g/m*3 22.15 C 0.94167 km/h
1000 17-09-2014 16:00:00 22.575 C 15.43 g/m*3 22.58 C 0.4 km/h
Sensor: Nr:Datum:Temp:Abs-Feuchte:Windchill:Wind:
Aussen-T/F 1001 17-09-2014 17:00:00 21.29167 C 15.34 g/m*3 21.29 C 0 km/h
1002 17-09-2014 18:00:00 20.225 C 15.15 g/m*3 20.23 C 0 km/h
1003 17-09-2014 19:00:00 18.45 C 14.13 g/m*3 18.45 C 0 km/h
1004 17-09-2014 20:00:00 17.20833 C 13.38 g/m*3 17.21 C 0 km/h
1005 17-09-2014 21:00:00 16.35833 C 12.81 g/m*3 16.36 C 0 km/h
1006 17-09-2014 22:00:00 15.64167 C 12.47 g/m*3 15.64 C 0 km/h
1007 17-09-2014 23:00:00 15.10833 C 12.21 g/m*3 15.11 C 0 km/h
1008 18-09-2014 00:00:00 14.73333 C 12.07 g/m*3 14.73 C 0 km/h
1009 18-09-2014 01:00:00 14.43333 C 11.9 g/m*3 14.43 C 0 km/h
1010 18-09-2014 02:00:00 14.28333 C 11.9 g/m*3 14.28 C 0 km/h
1011 18-09-2014 03:00:00 14.29167 C 11.91 g/m*3 14.29 C 0 km/h
1012 18-09-2014 04:00:00 14.825 C 12.35 g/m*3 14.83 C 0.4 km/h
1013 18-09-2014 05:00:00 15.08333 C 12.56 g/m*3 15.08 C 0.53333 km/h
1014 18-09-2014 06:00:00 15.2 C 12.63 g/m*3 15.2 C 0 km/h
1015 18-09-2014 07:00:00 15.21667 C 12.73 g/m*3 15.22 C 0 km/h
1016 18-09-2014 08:00:00 15.675 C 13.09 g/m*3 15.68 C 0 km/h
1017 18-09-2014 09:00:00 16.23333 C 13.54 g/m*3 16.23 C 0 km/h
1018 18-09-2014 10:00:00 17.175 C 14.33 g/m*3 17.18 C 0 km/h
1019 18-09-2014 11:00:00 17.90833 C 14.95 g/m*3 17.91 C 0 km/h
1020 18-09-2014 12:00:00 18.91667 C 15.47 g/m*3 18.92 C 0 km/h
1021 18-09-2014 13:00:00 19.83333 C 16 g/m*3 19.83 C 0 km/h
1022 18-09-2014 14:00:00 21.13333 C 16.54 g/m*3 21.13 C 0.4 km/h
1023 18-09-2014 15:00:00 22.31667 C 16.7 g/m*3 22.32 C 0.93333 km/h
1024 18-09-2014 16:00:00 21.64167 C 16.6 g/m*3 21.64 C 0.26667 km/h
1025 18-09-2014 17:00:00 20.25833 C 16.49 g/m*3 20.26 C 0 km/h
Sensor: Nr:Datum:Temp:Abs-Feuchte:Windchill:Wind:
Aussen-T/F 1026 18-09-2014 18:00:00 19.94167 C 16.43 g/m*3 19.94 C 0.4 km/h
1027 18-09-2014 19:00:00 19.04167 C 15.82 g/m*3 19.04 C 0 km/h
1028 18-09-2014 20:00:00 18.075 C 14.97 g/m*3 18.08 C 0 km/h
1029 18-09-2014 21:00:00 17.71667 C 14.76 g/m*3 17.72 C 0 km/h
1030 18-09-2014 22:00:00 17.875 C 14.94 g/m*3 17.88 C 0 km/h
1031 18-09-2014 23:00:00 17.89167 C 14.96 g/m*3 17.89 C 0 km/h
1032 19-09-2014 00:00:00 17.39167 C 14.52 g/m*3 17.39 C 0 km/h
1033 19-09-2014 01:00:00 16.9 C 14.1 g/m*3 16.9 C 0 km/h
1034 19-09-2014 02:00:00 16.475 C 13.74 g/m*3 16.48 C 0 km/h
1035 19-09-2014 03:00:00 16.14167 C 13.47 g/m*3 16.14 C 0 km/h
1036 19-09-2014 04:00:00 16.275 C 13.58 g/m*3 16.27 C 0 km/h
1037 19-09-2014 05:00:00 15.825 C 13.21 g/m*3 15.83 C 0 km/h
1038 19-09-2014 06:00:00 15.84167 C 13.3 g/m*3 15.84 C 0 km/h
1039 19-09-2014 07:00:00 16.33333 C 13.73 g/m*3 16.33 C 0.4 km/h
1040 19-09-2014 08:00:00 16.68333 C 14.06 g/m*3 16.68 C 0 km/h
1041 19-09-2014 09:00:00 17.18333 C 14.48 g/m*3 17.18 C 0.13333 km/h
1042 19-09-2014 10:00:00 17.83333 C 15.06 g/m*3 17.83 C 0.26667 km/h
1043 19-09-2014 11:00:00 18.275 C 15.46 g/m*3 18.27 C 0.13333 km/h
1044 19-09-2014 12:00:00 19.60833 C 16.51 g/m*3 19.61 C 3.35833 km/h
1045 19-09-2014 13:00:00 22.7 C 17.12 g/m*3 22.7 C 5.36667 km/h
1046 19-09-2014 14:00:00 23.00833 C 17.02 g/m*3 23.01 C 4.96667 km/h
1047 19-09-2014 15:00:00 21.70833 C 17.16 g/m*3 21.71 C 0.13333 km/h
1048 19-09-2014 16:00:00 21.45833 C 17.29 g/m*3 21.46 C 0.26667 km/h
1049 19-09-2014 17:00:00 21.70833 C 17.35 g/m*3 21.71 C 0.53333 km/h
1050 19-09-2014 18:00:00 20.76667 C 16.39 g/m*3 20.77 C 1.6 km/h
Sensor: Nr:Datum:Temp:Abs-Feuchte:Windchill:Wind:
Aussen-T/F 1051 19-09-2014 19:00:00 19.25833 C 15.35 g/m*3 19.26 C 2.66667 km/h
1052 19-09-2014 20:00:00 18.375 C 14.84 g/m*3 18.38 C 0.26667 km/h
1053 19-09-2014 21:00:00 17.8 C 14.57 g/m*3 17.8 C 0.13333 km/h
1054 19-09-2014 22:00:00 17.075 C 13.99 g/m*3 17.08 C 0 km/h
1055 19-09-2014 23:00:00 16.73333 C 13.81 g/m*3 16.73 C 0 km/h
1056 20-09-2014 00:00:00 16.53333 C 13.74 g/m*3 16.53 C 0 km/h
1057 20-09-2014 01:00:00 16.55 C 13.8 g/m*3 16.55 C 0 km/h
1058 20-09-2014 02:00:00 16.44167 C 13.71 g/m*3 16.44 C 0 km/h
1059 20-09-2014 03:00:00 15.925 C 13.29 g/m*3 15.93 C 0 km/h
1060 20-09-2014 04:00:00 15.7 C 13.11 g/m*3 15.7 C 0 km/h
1061 20-09-2014 05:00:00 15.475 C 12.93 g/m*3 15.48 C 0 km/h
1062 20-09-2014 06:00:00 15.63333 C 13.06 g/m*3 15.63 C 0.26667 km/h
1063 20-09-2014 07:00:00 15.225 C 12.74 g/m*3 15.23 C 0 km/h
1064 20-09-2014 08:00:00 16.04167 C 13.44 g/m*3 16.04 C 0 km/h
1065 20-09-2014 09:00:00 17.05 C 14.27 g/m*3 17.05 C 1.33333 km/h
1066 20-09-2014 10:00:00 18.14167 C 14.81 g/m*3 18.14 C 0.93333 km/h
1067 20-09-2014 11:00:00 19.375 C 15.17 g/m*3 19.38 C 0.4 km/h
1068 20-09-2014 12:00:00 20.5 C 15.93 g/m*3 20.5 C 0 km/h
1069 20-09-2014 13:00:00 20.63333 C 15.97 g/m*3 20.63 C 0.26667 km/h
1070 20-09-2014 14:00:00 17.66667 C 14.43 g/m*3 17.67 C 0.66667 km/h
1071 20-09-2014 15:00:00 17.33333 C 14.24 g/m*3 17.33 C 1.875 km/h
1072 20-09-2014 16:00:00 18.50833 C 15.41 g/m*3 18.51 C 0.26667 km/h
1073 20-09-2014 17:00:00 19.06667 C 15.76 g/m*3 19.07 C 0 km/h
1074 20-09-2014 18:00:00 18.25833 C 15.06 g/m*3 18.26 C 0 km/h
1075 20-09-2014 19:00:00 17.75833 C 14.69 g/m*3 17.76 C 0 km/h
Sensor: Nr:Datum:Temp:Abs-Feuchte:Windchill:Wind:
Aussen-T/F 1076 20-09-2014 20:00:00 16.63333 C 13.73 g/m*3 16.63 C 0.66667 km/h
1077 20-09-2014 21:00:00 15.65833 C 12.99 g/m*3 15.66 C 0 km/h
1078 20-09-2014 22:00:00 15.56667 C 13.01 g/m*3 15.57 C 0 km/h
1079 20-09-2014 23:00:00 15.90833 C 13.2 g/m*3 15.91 C 1.73333 km/h
1080 21-09-2014 00:00:00 15.45833 C 12.9 g/m*3 15.46 C 0 km/h
1081 21-09-2014 01:00:00 15.70833 C 13.12 g/m*3 15.71 C 1.875 km/h
1082 21-09-2014 02:00:00 15.775 C 13.17 g/m*3 15.78 C 0 km/h
1083 21-09-2014 03:00:00 15.76667 C 13.17 g/m*3 15.77 C 0 km/h
1084 21-09-2014 04:00:00 15.75833 C 13.16 g/m*3 15.76 C 0 km/h
1085 21-09-2014 05:00:00 15.8 C 13.19 g/m*3 15.8 C 0 km/h
1086 21-09-2014 06:00:00 15.675 C 13.09 g/m*3 15.68 C 0 km/h
1087 21-09-2014 07:00:00 15.40833 C 12.89 g/m*3 15.41 C 0 km/h
1088 21-09-2014 08:00:00 15.69167 C 13.15 g/m*3 15.69 C 0 km/h
1089 21-09-2014 09:00:00 15.96667 C 13.46 g/m*3 15.97 C 0 km/h
1090 21-09-2014 10:00:00 16.3 C 13.73 g/m*3 16.3 C 0 km/h
1091 21-09-2014 11:00:00 16.575 C 13.96 g/m*3 16.58 C 0 km/h
1092 21-09-2014 12:00:00 16.59167 C 13.83 g/m*3 16.59 C 3.76667 km/h
1093 21-09-2014 13:00:00 16.36667 C 13.26 g/m*3 16.37 C 7.775 km/h
1094 21-09-2014 14:00:00 16.55 C 13.2 g/m*3 16.55 C 5.91667 km/h
1095 21-09-2014 15:00:00 17.01667 C 13.25 g/m*3 17.02 C 7.25 km/h
1096 21-09-2014 16:00:00 16.80833 C 12.8 g/m*3 16.81 C 6.98333 km/h
1097 21-09-2014 17:00:00 16.425 C 12.13 g/m*3 16.43 C 7.50833 km/h
1098 21-09-2014 18:00:00 16.33333 C 11.89 g/m*3 16.33 C 4.55 km/h
1099 21-09-2014 19:00:00 14.925 C 11.57 g/m*3 14.93 C 2.95 km/h
1100 21-09-2014 20:00:00 13.45 C 10.86 g/m*3 13.45 C 0.53333 km/h
Sensor: Nr:Datum:Temp:Abs-Feuchte:Windchill:Wind:
Aussen-T/F 1101 21-09-2014 21:00:00 12.63333 C 10.53 g/m*3 12.63 C 0 km/h
1102 21-09-2014 22:00:00 12.15 C 10.18 g/m*3 12.15 C 0 km/h
1103 21-09-2014 23:00:00 11.94167 C 10.04 g/m*3 11.94 C 0 km/h
1104 22-09-2014 00:00:00 12.11667 C 10.05 g/m*3 12.12 C 0 km/h
1105 22-09-2014 01:00:00 11.95833 C 10.07 g/m*3 11.96 C 0 km/h
1106 22-09-2014 02:00:00 11.925 C 9.98 g/m*3 11.93 C 0 km/h
1107 22-09-2014 03:00:00 12.29167 C 10.08 g/m*3 12.29 C 0 km/h
1108 22-09-2014 04:00:00 12.64167 C 10.2 g/m*3 12.64 C 0.80833 km/h
1109 22-09-2014 05:00:00 12.55833 C 10.07 g/m*3 12.56 C 0.66667 km/h
1110 22-09-2014 06:00:00 12.175 C 9.82 g/m*3 12.18 C 3.61667 km/h
1111 22-09-2014 07:00:00 11.26667 C 9.49 g/m*3 11.27 C 0 km/h
1112 22-09-2014 08:00:00 11.525 C 9.53 g/m*3 11.53 C 0.26667 km/h
1113 22-09-2014 09:00:00 12.98333 C 9.5 g/m*3 12.98 C 5.1 km/h
1114 22-09-2014 10:00:00 13.63333 C 9.16 g/m*3 13.63 C 8.71667 km/h
1115 22-09-2014 11:00:00 13.69167 C 9.28 g/m*3 13.69 C 10.49167 km/h
1116 22-09-2014 12:00:00 14.39167 C 9.34 g/m*3 14.39 C 11.425 km/h
1117 22-09-2014 13:00:00 15.08333 C 9.29 g/m*3 15.08 C 14.76667 km/h
1118 22-09-2014 14:00:00 14.075 C 9.39 g/m*3 14.08 C 19.86667 km/h
1119 22-09-2014 15:00:00 12.89167 C 9.44 g/m*3 12.89 C 9.41667 km/h
1120 22-09-2014 16:00:00 13.75833 C 9.48 g/m*3 13.76 C 9.95 km/h
1121 22-09-2014 17:00:00 14.4 C 9.15 g/m*3 14.4 C 9.28333 km/h
1122 22-09-2014 18:00:00 14.65 C 9.17 g/m*3 14.65 C 5.35833 km/h
1123 22-09-2014 19:00:00 11.9 C 9.36 g/m*3 11.9 C 0.4 km/h
1124 22-09-2014 20:00:00 10.85 C 9.11 g/m*3 10.85 C 0.66667 km/h
1125 22-09-2014 21:00:00 10.25 C 8.87 g/m*3 10.25 C 0 km/h
Sensor: Nr:Datum:Temp:Abs-Feuchte:Windchill:Wind:
Aussen-T/F 1126 22-09-2014 22:00:00 9.86667 C 8.75 g/m*3 9.87 C 0 km/h
1127 22-09-2014 23:00:00 9.88333 C 8.74 g/m*3 9.88 C 0 km/h
1128 23-09-2014 00:00:00 9.11667 C 8.43 g/m*3 9.12 C 0 km/h
1129 23-09-2014 01:00:00 8.56667 C 8.19 g/m*3 8.57 C 0 km/h
1130 23-09-2014 02:00:00 8.025 C 7.95 g/m*3 8.03 C 0 km/h
1131 23-09-2014 03:00:00 7.66667 C 7.81 g/m*3 7.67 C 0 km/h
1132 23-09-2014 04:00:00 7.28333 C 7.66 g/m*3 7.28 C 0 km/h
1133 23-09-2014 05:00:00 6.75 C 7.39 g/m*3 6.75 C 0 km/h
1134 23-09-2014 06:00:00 6.875 C 7.5 g/m*3 6.88 C 1.20833 km/h
1135 23-09-2014 07:00:00 6.75833 C 7.43 g/m*3 6.76 C 2.68333 km/h
1136 23-09-2014 08:00:00 6.95 C 7.57 g/m*3 6.95 C 0.93333 km/h
1137 23-09-2014 09:00:00 7.69167 C 7.94 g/m*3 7.69 C 2.13333 km/h
1138 23-09-2014 10:00:00 8.65833 C 8.38 g/m*3 8.66 C 3.73333 km/h
1139 23-09-2014 11:00:00 9.90833 C 8.73 g/m*3 9.91 C 1.2 km/h
1140 23-09-2014 12:00:00 10.99167 C 9.22 g/m*3 10.99 C 0 km/h
1141 23-09-2014 13:00:00 13.04167 C 9.93 g/m*3 13.04 C 0 km/h
1142 23-09-2014 14:00:00 13.975 C 9.8 g/m*3 13.98 C 0.4 km/h
1143 23-09-2014 15:00:00 14.10833 C 9.34 g/m*3 14.11 C 0 km/h
1144 23-09-2014 16:00:00 16.45 C 8.83 g/m*3 16.45 C 0.53333 km/h
1145 23-09-2014 17:00:00 15.00833 C 9.44 g/m*3 15.01 C 0 km/h
1146 23-09-2014 18:00:00 12.61667 C 9.51 g/m*3 12.62 C 0 km/h
1147 23-09-2014 19:00:00 10.98333 C 8.91 g/m*3 10.98 C 0 km/h
1148 23-09-2014 20:00:00 9.95833 C 8.57 g/m*3 9.96 C 0 km/h
1149 23-09-2014 21:00:00 9.15 C 8.32 g/m*3 9.15 C 0 km/h
1150 23-09-2014 22:00:00 9.00833 C 8.31 g/m*3 9.01 C 0 km/h
Sensor: Nr:Datum:Temp:Abs-Feuchte:Windchill:Wind:
Aussen-T/F 1151 23-09-2014 23:00:00 8.33333 C 8 g/m*3 8.33 C 0 km/h
1152 24-09-2014 00:00:00 8.24167 C 8.05 g/m*3 8.24 C 0 km/h
1153 24-09-2014 01:00:00 8.325 C 8.1 g/m*3 8.32 C 0 km/h
1154 24-09-2014 02:00:00 7.96667 C 7.92 g/m*3 7.97 C 0 km/h
1155 24-09-2014 03:00:00 7.69167 C 7.79 g/m*3 7.69 C 0 km/h
1156 24-09-2014 04:00:00 7.55 C 7.74 g/m*3 7.55 C 0 km/h
1157 24-09-2014 05:00:00 7.325 C 7.68 g/m*3 7.33 C 0 km/h
1158 24-09-2014 06:00:00 7.29167 C 7.66 g/m*3 7.29 C 0 km/h
1159 24-09-2014 07:00:00 7.06667 C 7.55 g/m*3 7.07 C 0 km/h
1160 24-09-2014 08:00:00 7.2 C 7.63 g/m*3 7.2 C 0 km/h
1161 24-09-2014 09:00:00 7.7 C 7.89 g/m*3 7.7 C 0 km/h
1162 24-09-2014 10:00:00 8.475 C 8.26 g/m*3 8.48 C 0 km/h
1163 24-09-2014 11:00:00 10.15833 C 8.87 g/m*3 10.16 C 0 km/h
1164 24-09-2014 12:00:00 12.9 C 9.46 g/m*3 12.9 C 0 km/h
1165 24-09-2014 13:00:00 15.08333 C 9.81 g/m*3 15.08 C 0 km/h
1166 24-09-2014 14:00:00 15.75833 C 10.18 g/m*3 15.76 C 0 km/h
1167 24-09-2014 15:00:00 15.04167 C 10.93 g/m*3 15.04 C 0 km/h
1168 24-09-2014 16:00:00 16.25833 C 10.43 g/m*3 16.26 C 0 km/h
1169 24-09-2014 17:00:00 15.80833 C 10.54 g/m*3 15.81 C 0 km/h
1170 24-09-2014 18:00:00 14.03333 C 10.57 g/m*3 14.03 C 0 km/h
1171 24-09-2014 19:00:00 13.11667 C 10.38 g/m*3 13.12 C 0 km/h
1172 24-09-2014 20:00:00 13.69167 C 9.96 g/m*3 13.69 C 0 km/h
1173 24-09-2014 21:00:00 13.88333 C 10.01 g/m*3 13.88 C 5.5 km/h
1174 24-09-2014 22:00:00 13.04167 C 10.16 g/m*3 13.04 C 3.86667 km/h
1175 24-09-2014 23:00:00 12.9 C 10.08 g/m*3 12.9 C 3.88333 km/h
Sensor: Nr:Datum:Temp:Abs-Feuchte:Windchill:Wind:
Aussen-T/F 1176 25-09-2014 00:00:00 12.425 C 9.84 g/m*3 12.43 C 0.4 km/h
1177 25-09-2014 01:00:00 11.925 C 9.62 g/m*3 11.93 C 0.8 km/h
1178 25-09-2014 02:00:00 11.4 C 9.57 g/m*3 11.4 C 1.06667 km/h
1179 25-09-2014 03:00:00 11.39167 C 9.61 g/m*3 11.39 C 1.46667 km/h
1180 25-09-2014 04:00:00 11.41667 C 9.62 g/m*3 11.42 C 0.8 km/h
1181 25-09-2014 05:00:00 11.625 C 9.77 g/m*3 11.63 C 0.53333 km/h
1182 25-09-2014 06:00:00 11.6 C 9.7 g/m*3 11.6 C 0 km/h
1183 25-09-2014 07:00:00 11.60833 C 9.7 g/m*3 11.61 C 1.86667 km/h
1184 25-09-2014 08:00:00 12.125 C 9.83 g/m*3 12.13 C 4.00833 km/h
1185 25-09-2014 09:00:00 12.675 C 10.03 g/m*3 12.68 C 5.89167 km/h
1186 25-09-2014 10:00:00 13.65833 C 10.37 g/m*3 13.66 C 2.275 km/h
1187 25-09-2014 11:00:00 14.46667 C 10.65 g/m*3 14.47 C 4.275 km/h
1188 25-09-2014 12:00:00 15.56667 C 10.7 g/m*3 15.57 C 7.38333 km/h
1189 25-09-2014 13:00:00 16.01667 C 10.74 g/m*3 16.02 C 4.81667 km/h
1190 25-09-2014 14:00:00 16.35 C 11.19 g/m*3 16.35 C 1.33333 km/h
1191 25-09-2014 15:00:00 16.94167 C 10.68 g/m*3 16.94 C 5.09167 km/h
1192 25-09-2014 16:00:00 17.83333 C 9.72 g/m*3 17.83 C 7.79167 km/h
1193 25-09-2014 17:00:00 17.41667 C 9.77 g/m*3 17.42 C 6.575 km/h
1194 25-09-2014 18:00:00 15.9 C 10.1 g/m*3 15.9 C 3.88333 km/h
1195 25-09-2014 19:00:00 13.675 C 10.16 g/m*3 13.68 C 1.33333 km/h
1196 25-09-2014 20:00:00 13.39167 C 10.16 g/m*3 13.39 C 1.06667 km/h
1197 25-09-2014 21:00:00 13.125 C 10.15 g/m*3 13.13 C 0.66667 km/h
1198 25-09-2014 22:00:00 12.89167 C 10.12 g/m*3 12.89 C 0 km/h
1199 25-09-2014 23:00:00 12.875 C 10.03 g/m*3 12.88 C 1.06667 km/h
1200 26-09-2014 00:00:00 12.46667 C 9.86 g/m*3 12.47 C 0.53333 km/h
Sensor: Nr:Datum:Temp:Abs-Feuchte:Windchill:Wind:
Aussen-T/F 1201 26-09-2014 01:00:00 12.74167 C 9.88 g/m*3 12.74 C 0.13333 km/h
1202 26-09-2014 02:00:00 12.46667 C 9.88 g/m*3 12.47 C 0 km/h
1203 26-09-2014 03:00:00 11.90833 C 9.62 g/m*3 11.91 C 0 km/h
1204 26-09-2014 04:00:00 11.10833 C 9.31 g/m*3 11.11 C 0 km/h
1205 26-09-2014 05:00:00 10.68333 C 9.17 g/m*3 10.68 C 0 km/h
1206 26-09-2014 06:00:00 10.65833 C 9.18 g/m*3 10.66 C 0 km/h
1207 26-09-2014 07:00:00 10.925 C 9.3 g/m*3 10.93 C 0 km/h
1208 26-09-2014 08:00:00 11.74167 C 9.62 g/m*3 11.74 C 0 km/h
1209 26-09-2014 09:00:00 12.85 C 9.82 g/m*3 12.85 C 8.06667 km/h
1210 26-09-2014 10:00:00 13.85833 C 10.15 g/m*3 13.86 C 9 km/h
1211 26-09-2014 11:00:00 15.15833 C 10.77 g/m*3 15.16 C 8.20833 km/h
1212 26-09-2014 12:00:00 16.48333 C 11.18 g/m*3 16.48 C 10.48333 km/h
1213 26-09-2014 13:00:00 17.275 C 11.41 g/m*3 17.27 C 8.20833 km/h
1214 26-09-2014 14:00:00 17.975 C 11.71 g/m*3 17.98 C 7.25 km/h
1215 26-09-2014 15:00:00 17.20833 C 12.26 g/m*3 17.21 C 1.34167 km/h
1216 26-09-2014 16:00:00 16.76667 C 12.79 g/m*3 16.77 C 0.13333 km/h
1217 26-09-2014 17:00:00 16.89167 C 12.88 g/m*3 16.89 C 0.26667 km/h
1218 26-09-2014 18:00:00 16.26667 C 12.6 g/m*3 16.27 C 0.26667 km/h
1219 26-09-2014 19:00:00 15.64167 C 12.29 g/m*3 15.64 C 0.8 km/h
1220 26-09-2014 20:00:00 15.80833 C 12.44 g/m*3 15.81 C 3.46667 km/h
1221 26-09-2014 21:00:00 15.53333 C 12.32 g/m*3 15.53 C 0.8 km/h
1222 26-09-2014 22:00:00 14.925 C 12.13 g/m*3 14.93 C 0 km/h
1223 26-09-2014 23:00:00 14.63333 C 12.02 g/m*3 14.63 C 0 km/h
1224 27-09-2014 00:00:00 14.43333 C 11.89 g/m*3 14.43 C 0 km/h
1225 27-09-2014 01:00:00 14.56667 C 11.99 g/m*3 14.57 C 0 km/h
Sensor: Nr:Datum:Temp:Abs-Feuchte:Windchill:Wind:
Aussen-T/F 1226 27-09-2014 02:00:00 14.56667 C 11.99 g/m*3 14.57 C 0 km/h
1227 27-09-2014 03:00:00 14.4 C 11.87 g/m*3 14.4 C 0 km/h
1228 27-09-2014 04:00:00 14.3 C 11.79 g/m*3 14.3 C 0 km/h
1229 27-09-2014 05:00:00 14.18333 C 11.73 g/m*3 14.18 C 0 km/h
1230 27-09-2014 06:00:00 14.1 C 11.77 g/m*3 14.1 C 0 km/h
1231 27-09-2014 07:00:00 14.03333 C 11.72 g/m*3 14.03 C 0 km/h
1232 27-09-2014 08:00:00 14.06667 C 11.77 g/m*3 14.07 C 0 km/h
1233 27-09-2014 09:00:00 14.89167 C 12.28 g/m*3 14.89 C 0 km/h
1234 27-09-2014 10:00:00 16.31667 C 12.74 g/m*3 16.32 C 0 km/h
1235 27-09-2014 11:00:00 17.23333 C 12.59 g/m*3 17.23 C 0 km/h
1236 27-09-2014 12:00:00 17.59167 C 12.6 g/m*3 17.59 C 0 km/h
1237 27-09-2014 13:00:00 18.675 C 13.2 g/m*3 18.68 C 0 km/h
1238 27-09-2014 14:00:00 19.04167 C 13.55 g/m*3 19.04 C 0 km/h
1239 27-09-2014 15:00:00 18.48333 C 13.09 g/m*3 18.48 C 0 km/h
1240 27-09-2014 16:00:00 19.29167 C 12.78 g/m*3 19.29 C 1.60833 km/h
1241 27-09-2014 17:00:00 18.53333 C 13.16 g/m*3 18.53 C 0.4 km/h
1242 27-09-2014 18:00:00 17.09167 C 12.8 g/m*3 17.09 C 0.4 km/h
1243 27-09-2014 19:00:00 15.675 C 12.05 g/m*3 15.68 C 0.93333 km/h
1244 27-09-2014 20:00:00 14.56667 C 11.56 g/m*3 14.57 C 0 km/h
1245 27-09-2014 21:00:00 13.49167 C 11.02 g/m*3 13.49 C 0 km/h
1246 27-09-2014 22:00:00 12.73333 C 10.68 g/m*3 12.73 C 0 km/h
1247 27-09-2014 23:00:00 12.125 C 10.31 g/m*3 12.13 C 0 km/h
1248 28-09-2014 00:00:00 11.70833 C 10.12 g/m*3 11.71 C 0 km/h
1249 28-09-2014 01:00:00 11.38333 C 9.95 g/m*3 11.38 C 0 km/h
1250 28-09-2014 02:00:00 10.94167 C 9.67 g/m*3 10.94 C 0 km/h
Sensor: Nr:Datum:Temp:Abs-Feuchte:Windchill:Wind:
Aussen-T/F 1251 28-09-2014 03:00:00 11 C 9.77 g/m*3 11 C 0 km/h
1252 28-09-2014 04:00:00 10.8 C 9.68 g/m*3 10.8 C 0 km/h
1253 28-09-2014 05:00:00 10.58333 C 9.55 g/m*3 10.58 C 0 km/h
1254 28-09-2014 06:00:00 10.39167 C 9.44 g/m*3 10.39 C 0 km/h
1255 28-09-2014 07:00:00 10.65 C 9.6 g/m*3 10.65 C 0 km/h
1256 28-09-2014 08:00:00 10.775 C 9.67 g/m*3 10.78 C 1.06667 km/h
1257 28-09-2014 09:00:00 11.01667 C 9.82 g/m*3 11.02 C 0.93333 km/h
1258 28-09-2014 10:00:00 12.09167 C 10.54 g/m*3 12.09 C 0.66667 km/h
1259 28-09-2014 11:00:00 13.33333 C 11.37 g/m*3 13.33 C 1.46667 km/h
1260 28-09-2014 12:00:00 15.33333 C 12.38 g/m*3 15.33 C 0.13333 km/h
1261 28-09-2014 13:00:00 17.55833 C 13.7 g/m*3 17.56 C 0 km/h
1262 28-09-2014 14:00:00 18.53333 C 14.41 g/m*3 18.53 C 0.4 km/h
1263 28-09-2014 15:00:00 19.65833 C 14.88 g/m*3 19.66 C 0.53333 km/h
1264 28-09-2014 16:00:00 19.96667 C 15.03 g/m*3 19.97 C 0.26667 km/h
1265 28-09-2014 17:00:00 19 C 14.69 g/m*3 19 C 1.2 km/h
1266 28-09-2014 18:00:00 18.16667 C 14.23 g/m*3 18.17 C 0.13333 km/h
1267 28-09-2014 19:00:00 16.95833 C 13.51 g/m*3 16.96 C 0.53333 km/h
1268 28-09-2014 20:00:00 16.7 C 13.29 g/m*3 16.7 C 0.8 km/h
1269 28-09-2014 21:00:00 15.78333 C 12.74 g/m*3 15.78 C 0 km/h
1270 28-09-2014 22:00:00 14.88333 C 12.22 g/m*3 14.88 C 0 km/h
1271 28-09-2014 23:00:00 14.24167 C 11.86 g/m*3 14.24 C 0 km/h
1272 29-09-2014 00:00:00 13.75 C 11.52 g/m*3 13.75 C 0 km/h
1273 29-09-2014 01:00:00 13.075 C 11.05 g/m*3 13.08 C 0 km/h
1274 29-09-2014 02:00:00 12.69167 C 10.81 g/m*3 12.69 C 0 km/h
1275 29-09-2014 03:00:00 12.39167 C 10.69 g/m*3 12.39 C 0 km/h
Sensor: Nr:Datum:Temp:Abs-Feuchte:Windchill:Wind:
Aussen-T/F 1276 29-09-2014 04:00:00 12.44167 C 10.74 g/m*3 12.44 C 0 km/h
1277 29-09-2014 05:00:00 12.29167 C 10.64 g/m*3 12.29 C 0 km/h
1278 29-09-2014 06:00:00 12.08333 C 10.5 g/m*3 12.08 C 0 km/h
1279 29-09-2014 07:00:00 11.925 C 10.4 g/m*3 11.93 C 0 km/h
1280 29-09-2014 08:00:00 12.275 C 10.64 g/m*3 12.28 C 0 km/h
1281 29-09-2014 09:00:00 12.9 C 11.1 g/m*3 12.9 C 0 km/h
1282 29-09-2014 10:00:00 14.23333 C 12.11 g/m*3 14.23 C 0 km/h
1283 29-09-2014 11:00:00 15.85833 C 13.31 g/m*3 15.86 C 0 km/h
1284 29-09-2014 12:00:00 16.94167 C 13.85 g/m*3 16.94 C 0 km/h
1285 29-09-2014 13:00:00 19.05833 C 14.38 g/m*3 19.06 C 1.2 km/h
1286 29-09-2014 14:00:00 19.6 C 14.42 g/m*3 19.6 C 2.14167 km/h
1287 29-09-2014 15:00:00 20.35 C 14.63 g/m*3 20.35 C 2 km/h
1288 29-09-2014 16:00:00 19.44167 C 14.61 g/m*3 19.44 C 0.4 km/h
1289 29-09-2014 17:00:00 18.34167 C 14.08 g/m*3 18.34 C 0.4 km/h
1290 29-09-2014 18:00:00 17.65833 C 13.85 g/m*3 17.66 C 0.13333 km/h
1291 29-09-2014 19:00:00 17.18333 C 13.78 g/m*3 17.18 C 0.53333 km/h
1292 29-09-2014 20:00:00 17.01667 C 13.66 g/m*3 17.02 C 1.33333 km/h
1293 29-09-2014 21:00:00 16.4 C 13.45 g/m*3 16.4 C 0.13333 km/h
1294 29-09-2014 22:00:00 16.09167 C 13.29 g/m*3 16.09 C 0 km/h
1295 29-09-2014 23:00:00 15.95833 C 13.28 g/m*3 15.96 C 0 km/h
1296 30-09-2014 00:00:00 15.55833 C 12.96 g/m*3 15.56 C 0 km/h
1297 30-09-2014 01:00:00 15.325 C 12.78 g/m*3 15.33 C 0 km/h
1298 30-09-2014 02:00:00 15.29167 C 12.79 g/m*3 15.29 C 0 km/h
1299 30-09-2014 03:00:00 15.30833 C 12.8 g/m*3 15.31 C 0 km/h
1300 30-09-2014 04:00:00 15.24167 C 12.75 g/m*3 15.24 C 0 km/h
Sensor: Nr:Datum:Temp:Abs-Feuchte:Windchill:Wind:
Aussen-T/F 1301 30-09-2014 05:00:00 14.60833 C 12.27 g/m*3 14.61 C 0 km/h
1302 30-09-2014 06:00:00 14.66667 C 12.31 g/m*3 14.67 C 0 km/h
1303 30-09-2014 07:00:00 14.80833 C 12.42 g/m*3 14.81 C 0.53333 km/h
1304 30-09-2014 08:00:00 14.70833 C 12.34 g/m*3 14.71 C 0 km/h
1305 30-09-2014 09:00:00 15.05833 C 12.61 g/m*3 15.06 C 0 km/h
1306 30-09-2014 10:00:00 15.85833 C 13.15 g/m*3 15.86 C 2.275 km/h
1307 30-09-2014 11:00:00 17.725 C 13.62 g/m*3 17.73 C 4.16667 km/h
1308 30-09-2014 12:00:00 19.025 C 13.93 g/m*3 19.02 C 6.45833 km/h
1309 30-09-2014 13:00:00 19.05 C 13.84 g/m*3 19.05 C 3.75833 km/h
1310 30-09-2014 14:00:00 19.8 C 14.09 g/m*3 19.8 C 3.08333 km/h
1311 30-09-2014 15:00:00 20.38333 C 14.21 g/m*3 20.38 C 5.36667 km/h
1312 30-09-2014 16:00:00 20.41667 C 14.33 g/m*3 20.42 C 1.33333 km/h
1313 30-09-2014 17:00:00 19.91667 C 14.85 g/m*3 19.92 C 0.4 km/h
1314 30-09-2014 18:00:00 18.375 C 14.44 g/m*3 18.38 C 0 km/h
1315 30-09-2014 19:00:00 17.275 C 13.86 g/m*3 17.27 C 0 km/h
1316 30-09-2014 20:00:00 16.94167 C 13.7 g/m*3 16.94 C 0 km/h
1317 30-09-2014 21:00:00 16.70833 C 13.59 g/m*3 16.71 C 0 km/h
1318 30-09-2014 22:00:00 16.2 C 13.23 g/m*3 16.2 C 0 km/h
1319 30-09-2014 23:00:00 15.775 C 13 g/m*3 15.78 C 0 km/h
1320 01-10-2014 00:00:00 15.68333 C 12.97 g/m*3 15.68 C 0 km/h
1321 01-10-2014 01:00:00 15.425 C 12.76 g/m*3 15.43 C 0 km/h
1322 01-10-2014 02:00:00 15.19167 C 12.64 g/m*3 15.19 C 0 km/h
1323 01-10-2014 03:00:00 15.10833 C 12.63 g/m*3 15.11 C 0 km/h
1324 01-10-2014 04:00:00 14.9 C 12.48 g/m*3 14.9 C 0 km/h
1325 01-10-2014 05:00:00 14.75833 C 12.38 g/m*3 14.76 C 0 km/h
Sensor: Nr:Datum:Temp:Abs-Feuchte:Windchill:Wind:
Aussen-T/F 1326 01-10-2014 06:00:00 14.6 C 12.26 g/m*3 14.6 C 0 km/h
1327 01-10-2014 07:00:00 14.475 C 12.17 g/m*3 14.48 C 0 km/h
1328 01-10-2014 08:00:00 14.35833 C 12.08 g/m*3 14.36 C 0 km/h
1329 01-10-2014 09:00:00 14.40833 C 12.12 g/m*3 14.41 C 0 km/h
1330 01-10-2014 10:00:00 14.74167 C 12.37 g/m*3 14.74 C 0 km/h
1331 01-10-2014 11:00:00 15.55 C 12.73 g/m*3 15.55 C 0 km/h
1332 01-10-2014 12:00:00 16.36667 C 13.06 g/m*3 16.37 C 0 km/h
1333 01-10-2014 13:00:00 19.2 C 14.25 g/m*3 19.2 C 0 km/h
1334 01-10-2014 14:00:00 19.25 C 14.29 g/m*3 19.25 C 0 km/h
1335 01-10-2014 15:00:00 18.775 C 14.15 g/m*3 18.77 C 0 km/h
1336 01-10-2014 16:00:00 18.89167 C 14.1 g/m*3 18.89 C 0 km/h
1337 01-10-2014 17:00:00 17.73333 C 13.71 g/m*3 17.73 C 0 km/h
1338 01-10-2014 18:00:00 16.75833 C 13.13 g/m*3 16.76 C 0 km/h
1339 01-10-2014 19:00:00 16.25833 C 12.94 g/m*3 16.26 C 0 km/h
1340 01-10-2014 20:00:00 15.80833 C 12.69 g/m*3 15.81 C 0 km/h
1341 01-10-2014 21:00:00 14.875 C 12.11 g/m*3 14.88 C 0 km/h
1342 01-10-2014 22:00:00 14.16667 C 11.68 g/m*3 14.17 C 0 km/h
1343 01-10-2014 23:00:00 13.78333 C 11.55 g/m*3 13.78 C 0 km/h
1344 02-10-2014 00:00:00 13.5 C 11.35 g/m*3 13.5 C 0 km/h
1345 02-10-2014 01:00:00 13.425 C 11.29 g/m*3 13.43 C 0 km/h
1346 02-10-2014 02:00:00 13.26667 C 11.19 g/m*3 13.27 C 0 km/h
1347 02-10-2014 03:00:00 12.79167 C 10.91 g/m*3 12.79 C 0 km/h
1348 02-10-2014 04:00:00 12.60833 C 10.85 g/m*3 12.61 C 0 km/h
1349 02-10-2014 05:00:00 12.40833 C 10.71 g/m*3 12.41 C 0 km/h
1350 02-10-2014 06:00:00 12.24167 C 10.6 g/m*3 12.24 C 0 km/h
Sensor: Nr:Datum:Temp:Abs-Feuchte:Windchill:Wind:
Aussen-T/F 1351 02-10-2014 07:00:00 12.1 C 10.51 g/m*3 12.1 C 0 km/h
1352 02-10-2014 08:00:00 12.18333 C 10.56 g/m*3 12.18 C 0 km/h
1353 02-10-2014 09:00:00 12.34167 C 10.71 g/m*3 12.34 C 0 km/h
1354 02-10-2014 10:00:00 12.71667 C 10.99 g/m*3 12.72 C 0 km/h
1355 02-10-2014 11:00:00 13.36667 C 11.47 g/m*3 13.37 C 0 km/h
1356 02-10-2014 12:00:00 14.40833 C 12.18 g/m*3 14.41 C 0 km/h
1357 02-10-2014 13:00:00 17.19167 C 13.65 g/m*3 17.19 C 0 km/h
1358 02-10-2014 14:00:00 18.13333 C 14.24 g/m*3 18.13 C 0 km/h
1359 02-10-2014 15:00:00 18.325 C 14.11 g/m*3 18.33 C 0 km/h
1360 02-10-2014 16:00:00 18.225 C 14.02 g/m*3 18.23 C 0 km/h
1361 02-10-2014 17:00:00 17.60833 C 13.77 g/m*3 17.61 C 0 km/h
1362 02-10-2014 18:00:00 16.8 C 13.17 g/m*3 16.8 C 0 km/h
1363 02-10-2014 19:00:00 15.71667 C 12.49 g/m*3 15.72 C 0 km/h
1364 02-10-2014 20:00:00 14.89167 C 12.02 g/m*3 14.89 C 0 km/h
1365 02-10-2014 21:00:00 13.98333 C 11.49 g/m*3 13.98 C 0 km/h
1366 02-10-2014 22:00:00 13.45833 C 11.2 g/m*3 13.46 C 0 km/h
1367 02-10-2014 23:00:00 12.9 C 10.89 g/m*3 12.9 C 0 km/h
1368 03-10-2014 00:00:00 12.55833 C 10.7 g/m*3 12.56 C 0 km/h
1369 03-10-2014 01:00:00 12.03333 C 10.38 g/m*3 12.03 C 0 km/h
1370 03-10-2014 02:00:00 11.63333 C 10.16 g/m*3 11.63 C 0 km/h
1371 03-10-2014 03:00:00 11.73333 C 10.27 g/m*3 11.73 C 0 km/h
1372 03-10-2014 04:00:00 11.90833 C 10.38 g/m*3 11.91 C 0 km/h
1373 03-10-2014 05:00:00 11.975 C 10.43 g/m*3 11.98 C 0 km/h
1374 03-10-2014 06:00:00 11.625 C 10.2 g/m*3 11.63 C 0 km/h
1375 03-10-2014 07:00:00 11.125 C 9.89 g/m*3 11.13 C 0 km/h
Sensor: Nr:Datum:Temp:Abs-Feuchte:Windchill:Wind:
Aussen-T/F 1376 03-10-2014 08:00:00 11 C 9.83 g/m*3 11 C 0 km/h
1377 03-10-2014 09:00:00 11.34167 C 10.05 g/m*3 11.34 C 0 km/h
1378 03-10-2014 10:00:00 11.825 C 10.42 g/m*3 11.83 C 0 km/h
1379 03-10-2014 11:00:00 12.85 C 11.12 g/m*3 12.85 C 0 km/h
1380 03-10-2014 12:00:00 13.85 C 11.83 g/m*3 13.85 C 0 km/h
1381 03-10-2014 13:00:00 16.45 C 13.5 g/m*3 16.45 C 0 km/h
1382 03-10-2014 14:00:00 17.90833 C 14.12 g/m*3 17.91 C 0 km/h
1383 03-10-2014 15:00:00 19.15833 C 14.2 g/m*3 19.16 C 1.34167 km/h
1384 03-10-2014 16:00:00 19.18333 C 14.35 g/m*3 19.18 C 0.26667 km/h
1385 03-10-2014 17:00:00 17.60833 C 13.52 g/m*3 17.61 C 0 km/h
1386 03-10-2014 18:00:00 16.5 C 12.79 g/m*3 16.5 C 0 km/h
1387 03-10-2014 19:00:00 15.00833 C 11.87 g/m*3 15.01 C 0 km/h
1388 03-10-2014 20:00:00 14.19167 C 11.41 g/m*3 14.19 C 0 km/h
1389 03-10-2014 21:00:00 13.325 C 10.89 g/m*3 13.33 C 0.13333 km/h
1390 03-10-2014 22:00:00 12.61667 C 10.54 g/m*3 12.62 C 0 km/h
1391 03-10-2014 23:00:00 12.3 C 10.42 g/m*3 12.3 C 0 km/h
1392 04-10-2014 00:00:00 11.58333 C 9.99 g/m*3 11.58 C 0 km/h
1393 04-10-2014 01:00:00 11.125 C 9.79 g/m*3 11.13 C 0 km/h
1394 04-10-2014 02:00:00 10.69167 C 9.52 g/m*3 10.69 C 0 km/h
1395 04-10-2014 03:00:00 10.48333 C 9.45 g/m*3 10.48 C 0 km/h
1396 04-10-2014 04:00:00 10.49167 C 9.5 g/m*3 10.49 C 0 km/h
1397 04-10-2014 05:00:00 10.18333 C 9.32 g/m*3 10.18 C 0 km/h
1398 04-10-2014 06:00:00 9.94167 C 9.17 g/m*3 9.94 C 0 km/h
1399 04-10-2014 07:00:00 9.9 C 9.15 g/m*3 9.9 C 0 km/h
1400 04-10-2014 08:00:00 9.85833 C 9.13 g/m*3 9.86 C 0 km/h
Sensor: Nr:Datum:Temp:Abs-Feuchte:Windchill:Wind:
Aussen-T/F 1401 04-10-2014 09:00:00 10.35833 C 9.5 g/m*3 10.36 C 0 km/h
1402 04-10-2014 10:00:00 11 C 9.89 g/m*3 11 C 0 km/h
1403 04-10-2014 11:00:00 12.03333 C 10.57 g/m*3 12.03 C 0 km/h
1404 04-10-2014 12:00:00 13.5 C 11.58 g/m*3 13.5 C 0 km/h
1405 04-10-2014 13:00:00 16.425 C 12.49 g/m*3 16.43 C 0 km/h
1406 04-10-2014 14:00:00 17.7 C 12.07 g/m*3 17.7 C 0 km/h
1407 04-10-2014 15:00:00 18.8 C 11.6 g/m*3 18.8 C 1.88333 km/h
1408 04-10-2014 16:00:00 18.25 C 12.04 g/m*3 18.25 C 2.4 km/h
1409 04-10-2014 17:00:00 16.45 C 12.14 g/m*3 16.45 C 0.4 km/h
1410 04-10-2014 18:00:00 15.1 C 11.65 g/m*3 15.1 C 0.13333 km/h
1411 04-10-2014 19:00:00 13.98333 C 10.99 g/m*3 13.98 C 0 km/h
1412 04-10-2014 20:00:00 13.53333 C 10.88 g/m*3 13.53 C 0 km/h
1413 04-10-2014 21:00:00 13.10833 C 10.66 g/m*3 13.11 C 0 km/h
1414 04-10-2014 22:00:00 12.50833 C 10.4 g/m*3 12.51 C 0 km/h
1415 04-10-2014 23:00:00 11.86667 C 10.13 g/m*3 11.87 C 0 km/h
1416 05-10-2014 00:00:00 11.53333 C 9.97 g/m*3 11.53 C 0 km/h
1417 05-10-2014 01:00:00 11.25 C 9.86 g/m*3 11.25 C 0 km/h
1418 05-10-2014 02:00:00 10.91667 C 9.66 g/m*3 10.92 C 0.53333 km/h
1419 05-10-2014 03:00:00 10.71667 C 9.54 g/m*3 10.72 C 0 km/h
1420 05-10-2014 04:00:00 10.69167 C 9.61 g/m*3 10.69 C 0 km/h
1421 05-10-2014 05:00:00 10.975 C 9.79 g/m*3 10.98 C 0 km/h
1422 05-10-2014 06:00:00 10.95833 C 9.78 g/m*3 10.96 C 0 km/h
1423 05-10-2014 07:00:00 10.95 C 9.78 g/m*3 10.95 C 0 km/h
1424 05-10-2014 08:00:00 11.55833 C 10.16 g/m*3 11.56 C 0 km/h
1425 05-10-2014 09:00:00 12.01667 C 10.45 g/m*3 12.02 C 0 km/h
Sensor: Nr:Datum:Temp:Abs-Feuchte:Windchill:Wind:
Aussen-T/F 1426 05-10-2014 10:00:00 12.51667 C 10.76 g/m*3 12.52 C 0 km/h
1427 05-10-2014 11:00:00 13.25833 C 10.95 g/m*3 13.26 C 0.53333 km/h
1428 05-10-2014 12:00:00 14.84167 C 11.32 g/m*3 14.84 C 0.66667 km/h
1429 05-10-2014 13:00:00 15.725 C 11.52 g/m*3 15.73 C 2.4 km/h
1430 05-10-2014 14:00:00 15.75 C 11.72 g/m*3 15.75 C 5.225 km/h
1431 05-10-2014 15:00:00 15.81667 C 11.78 g/m*3 15.82 C 3.6 km/h
1432 05-10-2014 16:00:00 15.85833 C 11.73 g/m*3 15.86 C 6.01667 km/h
1433 05-10-2014 17:00:00 15.325 C 11.52 g/m*3 15.33 C 4.54167 km/h
1434 05-10-2014 18:00:00 14.53333 C 11.28 g/m*3 14.53 C 0.93333 km/h
1435 05-10-2014 19:00:00 13.34167 C 10.82 g/m*3 13.34 C 0 km/h
1436 05-10-2014 20:00:00 13.1 C 10.9 g/m*3 13.1 C 0 km/h
1437 05-10-2014 21:00:00 13.14167 C 10.87 g/m*3 13.14 C 0.13333 km/h
1438 05-10-2014 22:00:00 13.05 C 10.81 g/m*3 13.05 C 0 km/h
1439 05-10-2014 23:00:00 12.75833 C 10.69 g/m*3 12.76 C 0 km/h
1440 06-10-2014 00:00:00 12.53333 C 10.58 g/m*3 12.53 C 0 km/h
1441 06-10-2014 01:00:00 12.33333 C 10.45 g/m*3 12.33 C 0 km/h
1442 06-10-2014 02:00:00 12.20833 C 10.36 g/m*3 12.21 C 0 km/h
1443 06-10-2014 03:00:00 12.2 C 10.36 g/m*3 12.2 C 0 km/h
1444 06-10-2014 04:00:00 12.25833 C 10.4 g/m*3 12.26 C 0 km/h
1445 06-10-2014 05:00:00 12.3 C 10.42 g/m*3 12.3 C 0 km/h
1446 06-10-2014 06:00:00 12.40833 C 10.49 g/m*3 12.41 C 0 km/h
1447 06-10-2014 07:00:00 12.575 C 10.6 g/m*3 12.58 C 0 km/h
1448 06-10-2014 08:00:00 12.84167 C 10.76 g/m*3 12.84 C 0.53333 km/h
1449 06-10-2014 09:00:00 13.35833 C 10.94 g/m*3 13.36 C 2.13333 km/h
1450 06-10-2014 10:00:00 14.04167 C 11.1 g/m*3 14.04 C 5.09167 km/h
Sensor: Nr:Datum:Temp:Abs-Feuchte:Windchill:Wind:
Aussen-T/F 1451 06-10-2014 11:00:00 15.025 C 11.49 g/m*3 15.03 C 3.2 km/h
1452 06-10-2014 12:00:00 16.2 C 11.68 g/m*3 16.2 C 4.00833 km/h
1453 06-10-2014 13:00:00 17.31667 C 11.93 g/m*3 17.32 C 5.48333 km/h
1454 06-10-2014 14:00:00 17.73333 C 11.85 g/m*3 17.73 C 6.025 km/h
1455 06-10-2014 15:00:00 18.025 C 11.87 g/m*3 18.02 C 6.7 km/h
1456 06-10-2014 16:00:00 18.5 C 11.97 g/m*3 18.5 C 5.20833 km/h
1457 06-10-2014 17:00:00 17.40833 C 12.05 g/m*3 17.41 C 2.8 km/h
1458 06-10-2014 18:00:00 15.45 C 11.65 g/m*3 15.45 C 1.06667 km/h
1459 06-10-2014 19:00:00 13.83333 C 10.98 g/m*3 13.83 C 0.53333 km/h
1460 06-10-2014 20:00:00 13.16667 C 10.79 g/m*3 13.17 C 0 km/h
1461 06-10-2014 21:00:00 13.51667 C 11.01 g/m*3 13.52 C 0.66667 km/h
1462 06-10-2014 22:00:00 13.74167 C 11 g/m*3 13.74 C 1.475 km/h
1463 06-10-2014 23:00:00 14.225 C 11.05 g/m*3 14.23 C 3.86667 km/h
1464 07-10-2014 00:00:00 14.15 C 11 g/m*3 14.15 C 3.06667 km/h
1465 07-10-2014 01:00:00 13.96667 C 10.95 g/m*3 13.97 C 3.46667 km/h
1466 07-10-2014 02:00:00 13.85 C 11 g/m*3 13.85 C 2.13333 km/h
1467 07-10-2014 03:00:00 13.44167 C 11.01 g/m*3 13.44 C 2.66667 km/h
1468 07-10-2014 04:00:00 13.3 C 11.07 g/m*3 13.3 C 1.86667 km/h
1469 07-10-2014 05:00:00 13.25833 C 11.14 g/m*3 13.26 C 0.4 km/h
1470 07-10-2014 06:00:00 13.26667 C 11.18 g/m*3 13.27 C 2.26667 km/h
1471 07-10-2014 07:00:00 13.35 C 11.25 g/m*3 13.35 C 1.2 km/h
1472 07-10-2014 08:00:00 13.70833 C 11.56 g/m*3 13.71 C 2.94167 km/h
1473 07-10-2014 09:00:00 14.425 C 12.03 g/m*3 14.43 C 2.13333 km/h
1474 07-10-2014 10:00:00 15.05 C 12.35 g/m*3 15.05 C 7.78333 km/h
1475 07-10-2014 11:00:00 14.925 C 11.82 g/m*3 14.93 C 11.26667 km/h
Sensor: Nr:Datum:Temp:Abs-Feuchte:Windchill:Wind:
Aussen-T/F 1476 07-10-2014 12:00:00 14.80833 C 11.61 g/m*3 14.81 C 13.7 km/h
1477 07-10-2014 13:00:00 16.05833 C 11.67 g/m*3 16.06 C 14.36667 km/h
1478 07-10-2014 14:00:00 16.78333 C 11.32 g/m*3 16.78 C 11.7 km/h
1479 07-10-2014 15:00:00 16.04167 C 11.63 g/m*3 16.04 C 3.625 km/h
1480 07-10-2014 16:00:00 14.40833 C 10.74 g/m*3 14.41 C 7.78333 km/h
1481 07-10-2014 17:00:00 13.1 C 9.8 g/m*3 13.1 C 7.78333 km/h
1482 07-10-2014 18:00:00 12.70833 C 9.99 g/m*3 12.71 C 3.06667 km/h
1483 07-10-2014 19:00:00 12.23333 C 10.04 g/m*3 12.23 C 1.46667 km/h
1484 07-10-2014 20:00:00 12.08333 C 9.93 g/m*3 12.08 C 1.46667 km/h
1485 07-10-2014 21:00:00 11.34167 C 9.74 g/m*3 11.34 C 0.13333 km/h
1486 07-10-2014 22:00:00 11.33333 C 9.87 g/m*3 11.33 C 0 km/h
1487 07-10-2014 23:00:00 11.64167 C 10.04 g/m*3 11.64 C 1.2 km/h
1488 08-10-2014 00:00:00 11.50833 C 9.96 g/m*3 11.51 C 0.53333 km/h
1489 08-10-2014 01:00:00 11.36667 C 9.94 g/m*3 11.37 C 0 km/h
1490 08-10-2014 02:00:00 11.28333 C 9.88 g/m*3 11.28 C 0 km/h
1491 08-10-2014 03:00:00 11.075 C 9.77 g/m*3 11.08 C 0 km/h
1492 08-10-2014 04:00:00 11.05833 C 9.85 g/m*3 11.06 C 0 km/h
1493 08-10-2014 05:00:00 11.13333 C 9.89 g/m*3 11.13 C 0 km/h
1494 08-10-2014 06:00:00 11.25 C 9.96 g/m*3 11.25 C 0 km/h
1495 08-10-2014 07:00:00 11.34167 C 10.02 g/m*3 11.34 C 0 km/h
1496 08-10-2014 08:00:00 11.775 C 10.3 g/m*3 11.78 C 0 km/h
1497 08-10-2014 09:00:00 12.50833 C 10.78 g/m*3 12.51 C 0 km/h
1498 08-10-2014 10:00:00 13.425 C 11.39 g/m*3 13.43 C 0 km/h
1499 08-10-2014 11:00:00 14.39167 C 11.78 g/m*3 14.39 C 0 km/h
1500 08-10-2014 12:00:00 14.29167 C 11.74 g/m*3 14.29 C 0 km/h
Sensor: Nr:Datum:Temp:Abs-Feuchte:Windchill:Wind:
Aussen-T/F 1501 08-10-2014 13:00:00 14.14167 C 11.8 g/m*3 14.14 C 0.93333 km/h
1502 08-10-2014 14:00:00 14.17 C 11.86 g/m*3 14.17 C 0.16 km/h
1503 08-10-2014 15:00:00 15.0625 C 12.61 g/m*3 15.06 C 1.6 km/h
1504 08-10-2014 16:00:00 15.21667 C 12.72 g/m*3 15.22 C 0 km/h
1505 08-10-2014 17:00:00 15.2 C 12.72 g/m*3 15.2 C 0 km/h
1506 08-10-2014 19:00:00 15.25556 C 12.76 g/m*3 15.26 C 0.17778 km/h
1507 08-10-2014 20:00:00 15.16667 C 12.69 g/m*3 15.17 C 0 km/h
1508 08-10-2014 21:00:00 15.26667 C 12.88 g/m*3 15.27 C 0.53333 km/h
1509 08-10-2014 22:00:00 15.85833 C 13.37 g/m*3 15.86 C 0.93333 km/h
1510 08-10-2014 23:00:00 16.16667 C 13.62 g/m*3 16.17 C 0.93333 km/h
1511 09-10-2014 00:00:00 16.19167 C 13.65 g/m*3 16.19 C 0 km/h
1512 09-10-2014 01:00:00 16.35833 C 13.78 g/m*3 16.36 C 4.28333 km/h
1513 09-10-2014 02:00:00 16.80833 C 13.8 g/m*3 16.81 C 6.43333 km/h
1514 09-10-2014 03:00:00 16.00833 C 13.21 g/m*3 16.01 C 1.86667 km/h
1515 09-10-2014 04:00:00 15.61667 C 12.99 g/m*3 15.62 C 1.2 km/h
1516 09-10-2014 05:00:00 15.55 C 12.99 g/m*3 15.55 C 1.2 km/h
1517 09-10-2014 06:00:00 15.6 C 13.03 g/m*3 15.6 C 0.13333 km/h
1518 09-10-2014 07:00:00 15.61111 C 13.04 g/m*3 15.61 C 0 km/h
1519 09-10-2014 11:00:00 16.9 C 14.24 g/m*3 16.9 C 0 km/h
1520 09-10-2014 12:00:00 16.96 C 14.29 g/m*3 16.96 C 0 km/h
1521 09-10-2014 14:00:00 15.54 C 12.67 g/m*3 15.54 C 7.24 km/h
1522 09-10-2014 15:00:00 15.41667 C 12.65 g/m*3 15.42 C 0.53333 km/h
1523 09-10-2014 16:00:00 15.15 C 12.61 g/m*3 15.15 C 0.94167 km/h
1524 09-10-2014 17:00:00 14.94167 C 12.52 g/m*3 14.94 C 0.53333 km/h
1525 09-10-2014 18:00:00 14.8 C 12.41 g/m*3 14.8 C 0 km/h
Sensor: Nr:Datum:Temp:Abs-Feuchte:Windchill:Wind:
Aussen-T/F 1526 09-10-2014 19:00:00 13.625 C 11.55 g/m*3 13.63 C 0 km/h
1527 09-10-2014 20:00:00 13.4 C 11.39 g/m*3 13.4 C 0 km/h
1528 09-10-2014 21:00:00 13.65 C 11.57 g/m*3 13.65 C 0 km/h
1529 09-10-2014 22:00:00 12.88333 C 11.02 g/m*3 12.88 C 1.74167 km/h
1530 09-10-2014 23:00:00 12.375 C 10.69 g/m*3 12.38 C 0 km/h
1531 10-10-2014 00:00:00 12.15833 C 10.55 g/m*3 12.16 C 0 km/h
1532 10-10-2014 01:00:00 12.19167 C 10.57 g/m*3 12.19 C 0 km/h
1533 10-10-2014 02:00:00 12.25833 C 10.61 g/m*3 12.26 C 0 km/h
1534 10-10-2014 03:00:00 12.60833 C 10.86 g/m*3 12.61 C 0 km/h
1535 10-10-2014 04:00:00 12.65833 C 10.92 g/m*3 12.66 C 0 km/h
1536 10-10-2014 05:00:00 12.725 C 10.99 g/m*3 12.73 C 0 km/h
1537 10-10-2014 06:00:00 12.69167 C 10.91 g/m*3 12.69 C 0.13333 km/h
1538 10-10-2014 07:00:00 12.83333 C 11.1 g/m*3 12.83 C 0 km/h
1539 10-10-2014 10:00:00 14.06667 C 12.01 g/m*3 14.07 C 0 km/h
1540 10-10-2014 11:00:00 14.675 C 12.28 g/m*3 14.68 C 0.93333 km/h
1541 10-10-2014 12:00:00 15.99167 C 12.7 g/m*3 15.99 C 0.53333 km/h
1542 10-10-2014 13:00:00 17.03333 C 12.72 g/m*3 17.03 C 1.46667 km/h
1543 10-10-2014 14:00:00 17.25 C 12.93 g/m*3 17.25 C 2.13333 km/h
1544 10-10-2014 15:00:00 16.40833 C 13.11 g/m*3 16.41 C 0 km/h
1545 10-10-2014 16:00:00 15.95833 C 13 g/m*3 15.96 C 0 km/h
1546 10-10-2014 17:00:00 15.75 C 12.93 g/m*3 15.75 C 0 km/h
1547 10-10-2014 18:00:00 15.10833 C 12.52 g/m*3 15.11 C 0 km/h
1548 10-10-2014 19:00:00 14.35833 C 11.96 g/m*3 14.36 C 0 km/h
1549 10-10-2014 20:00:00 14.13333 C 11.84 g/m*3 14.13 C 0 km/h
1550 10-10-2014 21:00:00 13.81667 C 11.66 g/m*3 13.82 C 0 km/h
Sensor: Nr:Datum:Temp:Abs-Feuchte:Windchill:Wind:
Aussen-T/F 1551 10-10-2014 22:00:00 13.79167 C 11.67 g/m*3 13.79 C 0 km/h
1552 10-10-2014 23:00:00 13.71667 C 11.62 g/m*3 13.72 C 0 km/h
1553 11-10-2014 00:00:00 13.83333 C 11.7 g/m*3 13.83 C 0 km/h
1554 11-10-2014 01:00:00 14.01667 C 11.83 g/m*3 14.02 C 0 km/h
1555 11-10-2014 02:00:00 13.49167 C 11.46 g/m*3 13.49 C 0 km/h
1556 11-10-2014 03:00:00 13.48333 C 11.49 g/m*3 13.48 C 0 km/h
1557 11-10-2014 04:00:00 13.56667 C 11.56 g/m*3 13.57 C 0 km/h
1558 11-10-2014 05:00:00 13.61667 C 11.61 g/m*3 13.62 C 0.13333 km/h
1559 11-10-2014 06:00:00 13.24167 C 11.36 g/m*3 13.24 C 0 km/h
1560 11-10-2014 07:00:00 13.55 C 11.62 g/m*3 13.55 C 0 km/h
1561 11-10-2014 08:00:00 13.66667 C 11.7 g/m*3 13.67 C 0 km/h
1562 11-10-2014 09:00:00 13.98333 C 11.93 g/m*3 13.98 C 0.26667 km/h
1563 11-10-2014 10:00:00 14.13333 C 12.04 g/m*3 14.13 C 0.4 km/h
1564 11-10-2014 11:00:00 14.66667 C 12.34 g/m*3 14.67 C 0 km/h
1565 11-10-2014 12:00:00 15.975 C 13.15 g/m*3 15.98 C 1.06667 km/h
1566 11-10-2014 13:00:00 16.81667 C 13.36 g/m*3 16.82 C 0.4 km/h
1567 11-10-2014 14:00:00 17.16667 C 13.71 g/m*3 17.17 C 1.6 km/h
1568 11-10-2014 15:00:00 17.625 C 13.83 g/m*3 17.63 C 1.33333 km/h
1569 11-10-2014 16:00:00 17.71667 C 13.69 g/m*3 17.72 C 0.4 km/h
1570 11-10-2014 17:00:00 17.06667 C 13.4 g/m*3 17.07 C 0.13333 km/h
1571 11-10-2014 18:00:00 15.85833 C 12.57 g/m*3 15.86 C 0.4 km/h
1572 11-10-2014 19:00:00 14.76667 C 12.09 g/m*3 14.77 C 1.33333 km/h
1573 11-10-2014 20:00:00 14.25833 C 11.76 g/m*3 14.26 C 1.06667 km/h
1574 11-10-2014 21:00:00 14.68333 C 11.62 g/m*3 14.68 C 0.8 km/h
1575 11-10-2014 22:00:00 14.03333 C 11.28 g/m*3 14.03 C 1.73333 km/h
Sensor: Nr:Datum:Temp:Abs-Feuchte:Windchill:Wind:
Aussen-T/F 1576 11-10-2014 23:00:00 13.46667 C 10.88 g/m*3 13.47 C 0.4 km/h
1577 12-10-2014 00:00:00 12.2 C 10.4 g/m*3 12.2 C 0 km/h
1578 12-10-2014 01:00:00 11.63333 C 10.1 g/m*3 11.63 C 0 km/h
1579 12-10-2014 02:00:00 11.04167 C 9.75 g/m*3 11.04 C 0 km/h
1580 12-10-2014 03:00:00 10.325 C 9.33 g/m*3 10.33 C 0 km/h
1581 12-10-2014 04:00:00 9.975 C 9.19 g/m*3 9.98 C 0.26667 km/h
1582 12-10-2014 05:00:00 10.24167 C 9.35 g/m*3 10.24 C 0.53333 km/h
1583 12-10-2014 06:00:00 9.975 C 9.19 g/m*3 9.98 C 0.4 km/h
1584 12-10-2014 07:00:00 9.725 C 9.06 g/m*3 9.73 C 0.66667 km/h
1585 12-10-2014 08:00:00 9.70833 C 9.12 g/m*3 9.71 C 1.06667 km/h
1586 12-10-2014 09:00:00 9.96667 C 9.28 g/m*3 9.97 C 0.4 km/h
1587 12-10-2014 10:00:00 10.5 C 9.6 g/m*3 10.5 C 1.34167 km/h
1588 12-10-2014 11:00:00 11.45 C 10.19 g/m*3 11.45 C 2.80833 km/h
1589 12-10-2014 12:00:00 13.02727 C 10.95 g/m*3 13.03 C 6.12727 km/h
1590 12-10-2014 13:00:00 14.65 C 11.17 g/m*3 14.65 C 4.675 km/h
1591 12-10-2014 14:00:00 15.85 C 11.54 g/m*3 15.85 C 3.2 km/h
1592 12-10-2014 15:00:00 17.04167 C 11.82 g/m*3 17.04 C 5.625 km/h
1593 12-10-2014 16:00:00 16.65 C 12.36 g/m*3 16.65 C 1.6 km/h
1594 12-10-2014 17:00:00 15.75 C 11.89 g/m*3 15.75 C 2.15 km/h
1595 12-10-2014 18:00:00 14.4 C 11.65 g/m*3 14.4 C 0 km/h
1596 12-10-2014 19:00:00 13.7 C 11.44 g/m*3 13.7 C 0.13333 km/h
1597 12-10-2014 20:00:00 13.625 C 11.51 g/m*3 13.63 C 0.93333 km/h
1598 12-10-2014 21:00:00 13.89167 C 11.74 g/m*3 13.89 C 3.475 km/h
1599 12-10-2014 22:00:00 14.13333 C 11.89 g/m*3 14.13 C 1.33333 km/h
1600 12-10-2014 23:00:00 14.00833 C 11.83 g/m*3 14.01 C 0 km/h
Sensor: Nr:Datum:Temp:Abs-Feuchte:Windchill:Wind:
Aussen-T/F 1601 13-10-2014 00:00:00 13.99167 C 11.81 g/m*3 13.99 C 0 km/h
1602 13-10-2014 01:00:00 14.03333 C 11.85 g/m*3 14.03 C 0.13333 km/h
1603 13-10-2014 02:00:00 13.70833 C 11.61 g/m*3 13.71 C 0 km/h
1604 13-10-2014 03:00:00 13.71667 C 11.66 g/m*3 13.72 C 0 km/h
1605 13-10-2014 04:00:00 13.58333 C 11.62 g/m*3 13.58 C 0 km/h
1606 13-10-2014 05:00:00 13.775 C 11.78 g/m*3 13.78 C 0 km/h
1607 13-10-2014 06:00:00 13.91667 C 11.88 g/m*3 13.92 C 0.13333 km/h
1608 13-10-2014 07:00:00 13.8 C 11.8 g/m*3 13.8 C 0 km/h
1609 13-10-2014 08:00:00 13.88333 C 11.86 g/m*3 13.88 C 1.46667 km/h
1610 13-10-2014 09:00:00 14.78333 C 12.53 g/m*3 14.78 C 0.53333 km/h
1611 13-10-2014 10:00:00 15.54167 C 13.12 g/m*3 15.54 C 0 km/h
1612 13-10-2014 11:00:00 16.075 C 13.55 g/m*3 16.08 C 0.13333 km/h
1613 13-10-2014 12:00:00 16.675 C 14.05 g/m*3 16.68 C 0.66667 km/h
1614 13-10-2014 13:00:00 16.55 C 13.85 g/m*3 16.55 C 0.66667 km/h
1615 13-10-2014 14:00:00 16.925 C 13.95 g/m*3 16.93 C 0.93333 km/h
1616 13-10-2014 15:00:00 18.06667 C 13.56 g/m*3 18.07 C 3.21667 km/h
1617 13-10-2014 16:00:00 17.81667 C 13.04 g/m*3 17.82 C 4.16667 km/h
1618 13-10-2014 17:00:00 16.63333 C 12.98 g/m*3 16.63 C 0.93333 km/h
1619 13-10-2014 18:00:00 14.94167 C 12.12 g/m*3 14.94 C 0.13333 km/h
1620 13-10-2014 19:00:00 13.9 C 11.51 g/m*3 13.9 C 0.13333 km/h
1621 13-10-2014 20:00:00 13.325 C 11.11 g/m*3 13.33 C 0.26667 km/h
1622 13-10-2014 21:00:00 13.05 C 11.03 g/m*3 13.05 C 0.66667 km/h
1623 13-10-2014 22:00:00 12.55833 C 10.7 g/m*3 12.56 C 0 km/h
1624 13-10-2014 23:00:00 12.03333 C 10.42 g/m*3 12.03 C 0 km/h
1625 14-10-2014 00:00:00 11.69167 C 10.24 g/m*3 11.69 C 0 km/h
Sensor: Nr:Datum:Temp:Abs-Feuchte:Windchill:Wind:
Aussen-T/F 1626 14-10-2014 01:00:00 11.425 C 10.07 g/m*3 11.43 C 0 km/h
1627 14-10-2014 02:00:00 10.825 C 9.7 g/m*3 10.83 C 0 km/h
1628 14-10-2014 03:00:00 10.45 C 9.47 g/m*3 10.45 C 0 km/h
1629 14-10-2014 04:00:00 10.075 C 9.25 g/m*3 10.07 C 0 km/h
1630 14-10-2014 05:00:00 10.075 C 9.28 g/m*3 10.07 C 0.13333 km/h
1631 14-10-2014 06:00:00 10.275 C 9.46 g/m*3 10.28 C 0 km/h
1632 14-10-2014 07:00:00 10.29167 C 9.48 g/m*3 10.29 C 0 km/h
1633 14-10-2014 08:00:00 10.13333 C 9.37 g/m*3 10.13 C 0.93333 km/h
1634 14-10-2014 09:00:00 10.60833 C 9.67 g/m*3 10.61 C 0 km/h
1635 14-10-2014 10:00:00 11.6 C 10.29 g/m*3 11.6 C 0.4 km/h
1636 14-10-2014 11:00:00 12.775 C 11.07 g/m*3 12.78 C 0.26667 km/h
1637 14-10-2014 12:00:00 14.19167 C 11.88 g/m*3 14.19 C 0.66667 km/h
1638 14-10-2014 13:00:00 15.51667 C 12.37 g/m*3 15.52 C 1.34167 km/h
1639 14-10-2014 14:00:00 16.8 C 12.1 g/m*3 16.8 C 3.61667 km/h
1640 14-10-2014 15:00:00 17.25833 C 12.05 g/m*3 17.26 C 4.43333 km/h
1641 14-10-2014 16:00:00 17.23333 C 11.92 g/m*3 17.23 C 3.88333 km/h
1642 14-10-2014 17:00:00 15.65833 C 11.76 g/m*3 15.66 C 0.53333 km/h
1643 14-10-2014 18:00:00 14.10833 C 11.31 g/m*3 14.11 C 0.4 km/h
1644 14-10-2014 19:00:00 13.13333 C 10.82 g/m*3 13.13 C 0 km/h
1645 14-10-2014 20:00:00 12.37273 C 10.47 g/m*3 12.37 C 0 km/h
1646 14-10-2014 21:00:00 11.78333 C 10.18 g/m*3 11.78 C 0 km/h
1647 14-10-2014 22:00:00 11.44167 C 9.98 g/m*3 11.44 C 0 km/h
1648 14-10-2014 23:00:00 11.34167 C 10.01 g/m*3 11.34 C 0 km/h
1649 15-10-2014 00:00:00 11.45833 C 10.1 g/m*3 11.46 C 0.4 km/h
1650 15-10-2014 01:00:00 11.33333 C 10.02 g/m*3 11.33 C 1.46667 km/h
Sensor: Nr:Datum:Temp:Abs-Feuchte:Windchill:Wind:
Aussen-T/F 1651 15-10-2014 02:00:00 11.2 C 9.93 g/m*3 11.2 C 2.53333 km/h
1652 15-10-2014 03:00:00 11.025 C 9.82 g/m*3 11.03 C 0.66667 km/h
1653 15-10-2014 04:00:00 10.73333 C 9.62 g/m*3 10.73 C 0.4 km/h
1654 15-10-2014 05:00:00 10.09167 C 9.19 g/m*3 10.09 C 0.4 km/h
1655 15-10-2014 06:00:00 9.36667 C 8.77 g/m*3 9.37 C 1.86667 km/h
1656 15-10-2014 07:00:00 9.225 C 8.77 g/m*3 8.81 C 5.21667 km/h
1657 15-10-2014 08:00:00 9.28333 C 8.8 g/m*3 8.92 C 5.08333 km/h
1658 15-10-2014 09:00:00 9.40833 C 8.87 g/m*3 9.41 C 3.06667 km/h
1659 15-10-2014 10:00:00 9.5 C 8.92 g/m*3 9.5 C 0.93333 km/h
1660 15-10-2014 11:00:00 10.51667 C 9.56 g/m*3 10.52 C 0.26667 km/h
1661 15-10-2014 12:00:00 12.375 C 10.46 g/m*3 12.38 C 2.14167 km/h
1662 15-10-2014 13:00:00 14.18333 C 10.87 g/m*3 14.18 C 0.66667 km/h
1663 15-10-2014 14:00:00 15.30833 C 10.79 g/m*3 15.31 C 3.75833 km/h
1664 15-10-2014 15:00:00 14.58333 C 11.16 g/m*3 14.58 C 0 km/h
1665 15-10-2014 16:00:00 14.52 C 11.32 g/m*3 14.52 C 0.16 km/h
1666 15-10-2014 17:00:00 14.3 C 11.4 g/m*3 14.3 C 0 km/h
1667 15-10-2014 19:00:00 12.88333 C 10.58 g/m*3 12.88 C 0 km/h
1668 15-10-2014 20:00:00 12.50833 C 10.41 g/m*3 12.51 C 0 km/h
1669 15-10-2014 21:00:00 12.31667 C 10.33 g/m*3 12.32 C 0 km/h
1670 15-10-2014 22:00:00 12.1 C 10.29 g/m*3 12.1 C 0 km/h
1671 15-10-2014 23:00:00 12.11667 C 10.39 g/m*3 12.12 C 0 km/h
1672 16-10-2014 00:00:00 12.425 C 10.65 g/m*3 12.43 C 0.4 km/h
1673 16-10-2014 01:00:00 12.65833 C 10.88 g/m*3 12.66 C 0 km/h
1674 16-10-2014 02:00:00 12.575 C 10.82 g/m*3 12.58 C 0.13333 km/h
1675 16-10-2014 03:00:00 12.475 C 10.76 g/m*3 12.48 C 0 km/h
Sensor: Nr:Datum:Temp:Abs-Feuchte:Windchill:Wind:
Aussen-T/F 1676 16-10-2014 04:00:00 12.4 C 10.71 g/m*3 12.4 C 0.13333 km/h
1677 16-10-2014 05:00:00 12.625 C 10.86 g/m*3 12.63 C 0 km/h
1678 16-10-2014 06:00:00 12.69167 C 10.97 g/m*3 12.69 C 0 km/h
1679 16-10-2014 07:00:00 12.81667 C 11.1 g/m*3 12.82 C 0 km/h
1680 16-10-2014 10:00:00 14.46667 C 12.08 g/m*3 14.47 C 4.26667 km/h
1681 16-10-2014 11:00:00 16.00909 C 12.37 g/m*3 16.01 C 7.90909 km/h
1682 16-10-2014 12:00:00 16.45 C 12.46 g/m*3 16.45 C 3.8 km/h
1683 16-10-2014 13:00:00 15.58182 C 12.51 g/m*3 15.58 C 3.5 km/h
1684 16-10-2014 14:00:00 16.55 C 12.98 g/m*3 16.55 C 3.46667 km/h
1685 16-10-2014 15:00:00 16.4 C 12.7 g/m*3 16.4 C 5.65 km/h
1686 16-10-2014 16:00:00 17 C 12.43 g/m*3 17 C 4.1 km/h
1687 16-10-2014 17:00:00 16.66 C 12.38 g/m*3 16.66 C 2.56 km/h
1688 16-10-2014 18:00:00 15.5125 C 11.99 g/m*3 15.51 C 1.6 km/h
1689 16-10-2014 19:00:00 14.625 C 11.94 g/m*3 14.63 C 0.2 km/h
1690 16-10-2014 20:00:00 14.55833 C 11.76 g/m*3 14.56 C 0.13333 km/h
1691 16-10-2014 21:00:00 14.33333 C 11.53 g/m*3 14.33 C 0 km/h
1692 16-10-2014 22:00:00 13.35833 C 11.13 g/m*3 13.36 C 0 km/h
1693 16-10-2014 23:00:00 12.96667 C 10.98 g/m*3 12.97 C 0 km/h
1694 17-10-2014 00:00:00 12.79167 C 10.92 g/m*3 12.79 C 0 km/h
1695 17-10-2014 01:00:00 12.83333 C 11 g/m*3 12.83 C 0 km/h
1696 17-10-2014 02:00:00 12.825 C 10.99 g/m*3 12.83 C 0 km/h
1697 17-10-2014 03:00:00 12.81667 C 10.99 g/m*3 12.82 C 0 km/h
1698 17-10-2014 04:00:00 12.83333 C 11 g/m*3 12.83 C 0 km/h
1699 17-10-2014 05:00:00 12.9 C 11.05 g/m*3 12.9 C 0 km/h
1700 17-10-2014 06:00:00 13.075 C 11.21 g/m*3 13.08 C 0 km/h
Sensor: Nr:Datum:Temp:Abs-Feuchte:Windchill:Wind:
Aussen-T/F 1701 17-10-2014 07:00:00 12.925 C 11.06 g/m*3 12.93 C 0 km/h
1702 17-10-2014 08:00:00 12.86667 C 11.06 g/m*3 12.87 C 0 km/h
1703 17-10-2014 09:00:00 13.70833 C 11.32 g/m*3 13.71 C 4.55833 km/h
1704 17-10-2014 11:00:00 15.1 C 11.83 g/m*3 15.1 C 6.43333 km/h
1705 17-10-2014 12:00:00 15.85833 C 12.1 g/m*3 15.86 C 6.575 km/h
1706 17-10-2014 13:00:00 16.85833 C 12.42 g/m*3 16.86 C 11.025 km/h
1707 17-10-2014 14:00:00 17.13333 C 12.45 g/m*3 17.13 C 10.08333 km/h
1708 17-10-2014 15:00:00 17.075 C 12.25 g/m*3 17.08 C 7.5 km/h
1709 17-10-2014 16:00:00 17.1 C 12.48 g/m*3 17.1 C 4.55833 km/h
1710 17-10-2014 17:00:00 16.49167 C 12.16 g/m*3 16.49 C 2.53333 km/h
1711 17-10-2014 18:00:00 15.46667 C 11.85 g/m*3 15.47 C 0.66667 km/h
1712 17-10-2014 19:00:00 14.44167 C 11.53 g/m*3 14.44 C 0 km/h
1713 17-10-2014 20:00:00 13.16667 C 10.96 g/m*3 13.17 C 0 km/h
1714 17-10-2014 21:00:00 12.33333 C 10.55 g/m*3 12.33 C 0 km/h
1715 17-10-2014 22:00:00 11.7 C 10.15 g/m*3 11.7 C 0 km/h
1716 17-10-2014 23:00:00 11.25833 C 9.94 g/m*3 11.26 C 0 km/h
1717 18-10-2014 00:00:00 11.1 C 9.87 g/m*3 11.1 C 0 km/h
1718 18-10-2014 01:00:00 10.55 C 9.53 g/m*3 10.55 C 0 km/h
1719 18-10-2014 02:00:00 10.15 C 9.3 g/m*3 10.15 C 0 km/h
1720 18-10-2014 03:00:00 9.775 C 9.08 g/m*3 9.78 C 0 km/h
1721 18-10-2014 04:00:00 9.83333 C 9.11 g/m*3 9.83 C 0 km/h
1722 18-10-2014 05:00:00 9.875 C 9.14 g/m*3 9.88 C 0 km/h
1723 18-10-2014 06:00:00 9.55 C 8.96 g/m*3 9.55 C 0 km/h
1724 18-10-2014 07:00:00 9.925 C 9.23 g/m*3 9.93 C 0 km/h
1725 18-10-2014 08:00:00 10.31667 C 9.49 g/m*3 10.32 C 0 km/h
Sensor: Nr:Datum:Temp:Abs-Feuchte:Windchill:Wind:
Aussen-T/F 1726 18-10-2014 09:00:00 10.44167 C 9.57 g/m*3 10.44 C 0 km/h
1727 18-10-2014 10:00:00 10.6 C 9.66 g/m*3 10.6 C 0 km/h
1728 18-10-2014 11:00:00 11.25714 C 10.07 g/m*3 11.26 C 0 km/h
1729 18-10-2014 13:00:00 15.16667 C 12.82 g/m*3 15.17 C 0 km/h
1730 18-10-2014 14:00:00 15.875 C 13.33 g/m*3 15.88 C 0 km/h
1731 18-10-2014 15:00:00 16.45833 C 13.67 g/m*3 16.46 C 0 km/h
1732 18-10-2014 16:00:00 16.75 C 13.72 g/m*3 16.75 C 0 km/h
1733 18-10-2014 17:00:00 16.36667 C 13.37 g/m*3 16.37 C 0 km/h
1734 18-10-2014 18:00:00 15.69167 C 12.79 g/m*3 15.69 C 1.06667 km/h
1735 18-10-2014 19:00:00 15.05 C 12.23 g/m*3 15.05 C 1.73333 km/h
1736 18-10-2014 20:00:00 14.21667 C 11.81 g/m*3 14.22 C 0.53333 km/h
1737 18-10-2014 21:00:00 13.55833 C 11.43 g/m*3 13.56 C 0 km/h
1738 18-10-2014 22:00:00 13.20833 C 11.26 g/m*3 13.21 C 0 km/h
1739 18-10-2014 23:00:00 12.575 C 10.82 g/m*3 12.58 C 0 km/h
1740 19-10-2014 00:00:00 12.15833 C 10.55 g/m*3 12.16 C 0 km/h
1741 19-10-2014 01:00:00 11.71667 C 10.26 g/m*3 11.72 C 0 km/h
1742 19-10-2014 02:00:00 11.41667 C 10.1 g/m*3 11.42 C 0.26667 km/h
1743 19-10-2014 03:00:00 11.19167 C 9.95 g/m*3 11.19 C 0 km/h
1744 19-10-2014 04:00:00 10.91667 C 9.81 g/m*3 10.92 C 0 km/h
1745 19-10-2014 05:00:00 10.74167 C 9.75 g/m*3 10.74 C 0 km/h
1746 19-10-2014 06:00:00 10.43333 C 9.56 g/m*3 10.43 C 0 km/h
1747 19-10-2014 07:00:00 10.31667 C 9.49 g/m*3 10.32 C 0.13333 km/h
1748 19-10-2014 08:00:00 10.675 C 9.71 g/m*3 10.68 C 0 km/h
1749 19-10-2014 09:00:00 11.05833 C 9.95 g/m*3 11.06 C 0 km/h
1750 19-10-2014 10:00:00 11.55833 C 10.26 g/m*3 11.56 C 0 km/h
Sensor: Nr:Datum:Temp:Abs-Feuchte:Windchill:Wind:
Aussen-T/F 1751 19-10-2014 11:00:00 13.34167 C 11.47 g/m*3 13.34 C 0.93333 km/h
1752 19-10-2014 12:00:00 15.36667 C 12.99 g/m*3 15.37 C 6.7 km/h
1753 19-10-2014 13:00:00 18.25 C 14.19 g/m*3 18.25 C 5.75833 km/h
1754 19-10-2014 14:00:00 19.70833 C 14.38 g/m*3 19.71 C 10.89167 km/h
1755 19-10-2014 15:00:00 20.43333 C 14.59 g/m*3 20.43 C 10.2 km/h
1756 19-10-2014 16:00:00 19.74167 C 14.57 g/m*3 19.74 C 5.09167 km/h
1757 19-10-2014 17:00:00 19.98333 C 14.53 g/m*3 19.98 C 6.03333 km/h
1758 19-10-2014 18:00:00 19.5 C 14.25 g/m*3 19.5 C 5.76667 km/h
1759 19-10-2014 19:00:00 18.36667 C 13.92 g/m*3 18.37 C 4.28333 km/h
1760 19-10-2014 20:00:00 18.30833 C 13.75 g/m*3 18.31 C 5.90833 km/h
1761 19-10-2014 21:00:00 19.21667 C 13.7 g/m*3 19.22 C 12.89167 km/h
1762 19-10-2014 22:00:00 18.925 C 13.74 g/m*3 18.93 C 13.15833 km/h
1763 19-10-2014 23:00:00 19.00833 C 13.89 g/m*3 19.01 C 11.81667 km/h
1764 20-10-2014 00:00:00 17.85833 C 13.81 g/m*3 17.86 C 2.41667 km/h
1765 20-10-2014 01:00:00 18.16667 C 11.88 g/m*3 18.17 C 11.40833 km/h
1766 20-10-2014 02:00:00 16.8 C 11.54 g/m*3 16.8 C 4.41667 km/h
1767 20-10-2014 03:00:00 16.4 C 11.29 g/m*3 16.4 C 4.13333 km/h
1768 20-10-2014 04:00:00 15.29167 C 11.19 g/m*3 15.29 C 2.26667 km/h
1769 20-10-2014 05:00:00 14.85 C 11.12 g/m*3 14.85 C 1.2 km/h
1770 20-10-2014 06:00:00 14.19167 C 11.05 g/m*3 14.19 C 1.2 km/h
1771 20-10-2014 07:00:00 14.2 C 11.22 g/m*3 14.2 C 0.13333 km/h
1772 20-10-2014 08:00:00 13.75833 C 11.13 g/m*3 13.76 C 0.53333 km/h
1773 20-10-2014 09:00:00 14.03333 C 11.36 g/m*3 14.03 C 0 km/h
1774 20-10-2014 10:00:00 14.6 C 11.54 g/m*3 14.6 C 1.24444 km/h
1775 20-10-2014 11:00:00 16.35833 C 11.07 g/m*3 16.36 C 9.53333 km/h
Sensor: Nr:Datum:Temp:Abs-Feuchte:Windchill:Wind:
Aussen-T/F 1776 20-10-2014 12:00:00 16.88333 C 10.11 g/m*3 16.88 C 10.88333 km/h
1777 20-10-2014 13:00:00 17.7 C 10.11 g/m*3 17.7 C 9.275 km/h
1778 20-10-2014 14:00:00 17.40833 C 10.06 g/m*3 17.41 C 7.11667 km/h
1779 20-10-2014 15:00:00 17.325 C 10.2 g/m*3 17.33 C 5.09167 km/h
1780 20-10-2014 16:00:00 17.03333 C 10.25 g/m*3 17.03 C 1.6 km/h
1781 20-10-2014 18:00:00 13.88889 C 10.38 g/m*3 13.89 C 1.95556 km/h
1782 20-10-2014 19:00:00 13.18333 C 9.92 g/m*3 13.18 C 2.13333 km/h
1783 20-10-2014 20:00:00 12.2 C 9.69 g/m*3 12.2 C 0.93333 km/h
1784 20-10-2014 21:00:00 11.59167 C 9.53 g/m*3 11.59 C 1.2 km/h
1785 20-10-2014 22:00:00 11.61667 C 9.52 g/m*3 11.62 C 2.00833 km/h
1786 20-10-2014 23:00:00 12.11667 C 9.58 g/m*3 12.12 C 2.66667 km/h
1787 21-10-2014 00:00:00 12.375 C 9.5 g/m*3 12.38 C 3.2 km/h
1788 21-10-2014 01:00:00 10.89167 C 9.16 g/m*3 10.89 C 1.74167 km/h
1789 21-10-2014 02:00:00 11.04167 C 9.2 g/m*3 11.04 C 2.13333 km/h
1790 21-10-2014 03:00:00 10.775 C 9.1 g/m*3 10.78 C 3.6 km/h
1791 21-10-2014 04:00:00 10.475 C 9.05 g/m*3 9.5 C 8.33333 km/h
1792 21-10-2014 05:00:00 11.01667 C 9.14 g/m*3 11.02 C 4.80833 km/h
1793 21-10-2014 06:00:00 11.5 C 9.3 g/m*3 11.5 C 6.3 km/h
1794 21-10-2014 07:00:00 11.71667 C 9.35 g/m*3 11.72 C 1.6 km/h
1795 21-10-2014 08:00:00 11.71667 C 9.54 g/m*3 11.72 C 0.66667 km/h
1796 21-10-2014 09:00:00 12.35833 C 9.73 g/m*3 12.36 C 1.6 km/h
1797 21-10-2014 10:00:00 13.2 C 9.67 g/m*3 13.2 C 10.08333 km/h
1798 21-10-2014 11:00:00 13.32222 C 9.71 g/m*3 13.32 C 5.71111 km/h
1799 21-10-2014 12:00:00 14.00833 C 9.53 g/m*3 14.01 C 13.81667 km/h
1800 21-10-2014 13:00:00 14.175 C 9.17 g/m*3 14.18 C 17.05 km/h
Sensor: Nr:Datum:Temp:Abs-Feuchte:Windchill:Wind:
Aussen-T/F 1801 21-10-2014 14:00:00 13.79167 C 9.65 g/m*3 13.79 C 19.71667 km/h
1802 21-10-2014 15:00:00 13.54167 C 10.28 g/m*3 13.54 C 12.21667 km/h
1803 21-10-2014 16:00:00 13.70833 C 10.64 g/m*3 13.71 C 7.8 km/h
1804 21-10-2014 17:00:00 13.11667 C 9.87 g/m*3 13.12 C 17.84167 km/h
1805 21-10-2014 18:00:00 11.76667 C 8.38 g/m*3 11.77 C 12.61667 km/h
1806 21-10-2014 19:00:00 11.11667 C 7.79 g/m*3 11.12 C 16.23333 km/h
1807 21-10-2014 20:00:00 10.00833 C 7.1 g/m*3 7.87 C 15.43333 km/h
1808 21-10-2014 21:00:00 9.41667 C 7.09 g/m*3 7.52 C 12.625 km/h
1809 21-10-2014 22:00:00 9.2 C 6.99 g/m*3 7.43 C 11.43333 km/h
1810 21-10-2014 23:00:00 8.98333 C 7.01 g/m*3 6.8 C 13.96667 km/h
1811 22-10-2014 00:00:00 8.68333 C 7.12 g/m*3 6.84 C 11.28333 km/h
1812 22-10-2014 01:00:00 8.61667 C 6.97 g/m*3 6.46 C 13.16667 km/h
1813 22-10-2014 02:00:00 8.66667 C 7.14 g/m*3 6.15 C 15.96667 km/h
1814 22-10-2014 03:00:00 7.60833 C 7.19 g/m*3 5.79 C 9.94167 km/h
1815 22-10-2014 04:00:00 6.84167 C 6.93 g/m*3 4.66 C 11.025 km/h
1816 22-10-2014 05:00:00 7.01667 C 6.75 g/m*3 4.73 C 11.81667 km/h
1817 22-10-2014 06:00:00 7.21667 C 6.73 g/m*3 4.93 C 12.1 km/h
1818 22-10-2014 07:00:00 7.725 C 6.84 g/m*3 5.35 C 13.3 km/h
1819 22-10-2014 08:00:00 8.2 C 6.95 g/m*3 5.84 C 13.96667 km/h
1820 22-10-2014 09:00:00 7.875 C 7.07 g/m*3 4.94 C 17.83333 km/h
1821 22-10-2014 10:00:00 7.20833 C 7.1 g/m*3 5.23 C 10.35 km/h
1822 22-10-2014 11:00:00 7.725 C 7.46 g/m*3 6.26 C 8.33333 km/h
1823 22-10-2014 12:00:00 8.95833 C 7.59 g/m*3 6.92 C 12.89167 km/h
1824 22-10-2014 13:00:00 9.96667 C 7.67 g/m*3 7.8 C 15.56667 km/h
1825 22-10-2014 14:00:00 10.7 C 7.73 g/m*3 8.51 C 17.43333 km/h
Sensor: Nr:Datum:Temp:Abs-Feuchte:Windchill:Wind:
Aussen-T/F 1826 22-10-2014 15:00:00 10.83333 C 7.82 g/m*3 8.57 C 18.50833 km/h
1827 22-10-2014 16:00:00 11.25833 C 7.69 g/m*3 11.26 C 19.575 km/h
1828 22-10-2014 17:00:00 11.03333 C 7.81 g/m*3 11.03 C 15.96667 km/h
1829 22-10-2014 18:00:00 10.425 C 7.93 g/m*3 8.84 C 11.95 km/h
1830 22-10-2014 19:00:00 9.38333 C 8.3 g/m*3 9.38 C 3.48333 km/h
1831 22-10-2014 20:00:00 9.31667 C 8.15 g/m*3 8.44 C 6.95833 km/h
1832 22-10-2014 21:00:00 9.39167 C 8.07 g/m*3 8.69 C 6.31667 km/h
1833 22-10-2014 22:00:00 9.46667 C 8.06 g/m*3 8.67 C 6.71667 km/h
1834 22-10-2014 23:00:00 9.10833 C 8.03 g/m*3 9.11 C 2.4 km/h
1835 23-10-2014 00:00:00 8.79167 C 7.97 g/m*3 8.79 C 1.33333 km/h
1836 23-10-2014 01:00:00 9.16667 C 8.12 g/m*3 9.17 C 2.00833 km/h
1837 23-10-2014 02:00:00 9.05 C 8.11 g/m*3 9.05 C 0.93333 km/h
1838 23-10-2014 03:00:00 8.95 C 8.06 g/m*3 8.95 C 0.26667 km/h
1839 23-10-2014 04:00:00 9 C 7.88 g/m*3 9 C 0.93333 km/h
1840 23-10-2014 05:00:00 8.05833 C 7.6 g/m*3 8.06 C 0.93333 km/h
1841 23-10-2014 06:00:00 8.44167 C 7.83 g/m*3 8.44 C 0.26667 km/h
1842 23-10-2014 07:00:00 8.58333 C 7.95 g/m*3 8.58 C 0.66667 km/h
1843 23-10-2014 08:00:00 8.65833 C 8.05 g/m*3 8.66 C 0.4 km/h
1844 23-10-2014 09:00:00 9.05 C 8.1 g/m*3 9.05 C 2.26667 km/h
1845 23-10-2014 10:00:00 9.425 C 8.29 g/m*3 9.43 C 4.54167 km/h
1846 23-10-2014 11:00:00 10.24167 C 8.51 g/m*3 9.3 C 7.93333 km/h
1847 23-10-2014 12:00:00 11.15833 C 8.6 g/m*3 11.16 C 11.025 km/h
1848 23-10-2014 13:00:00 12.1 C 8.7 g/m*3 12.1 C 8.625 km/h
1849 23-10-2014 14:00:00 12.55833 C 8.71 g/m*3 12.56 C 7.79167 km/h
1850 23-10-2014 15:00:00 12.84167 C 8.9 g/m*3 12.84 C 4.94167 km/h
Sensor: Nr:Datum:Temp:Abs-Feuchte:Windchill:Wind:
Aussen-T/F 1851 23-10-2014 16:00:00 12.65833 C 8.84 g/m*3 12.66 C 5.09167 km/h
1852 23-10-2014 17:00:00 12.125 C 8.91 g/m*3 12.13 C 2.8 km/h
1853 23-10-2014 18:00:00 11.7 C 8.96 g/m*3 11.7 C 2.275 km/h
1854 23-10-2014 19:00:00 11.43333 C 8.97 g/m*3 11.43 C 0.66667 km/h
1855 23-10-2014 20:00:00 11.36667 C 9.02 g/m*3 11.37 C 0.4 km/h
1856 23-10-2014 21:00:00 11.35833 C 9.01 g/m*3 11.36 C 1.73333 km/h
1857 23-10-2014 22:00:00 11.33333 C 8.99 g/m*3 11.33 C 3.48333 km/h
1858 23-10-2014 23:00:00 11.10833 C 9.04 g/m*3 11.11 C 0.13333 km/h
1859 24-10-2014 00:00:00 10.725 C 9.08 g/m*3 10.73 C 0 km/h
1860 24-10-2014 01:00:00 10.675 C 9 g/m*3 10.68 C 0.13333 km/h
1861 24-10-2014 02:00:00 10.53333 C 8.98 g/m*3 10.53 C 0 km/h
1862 24-10-2014 03:00:00 10.34167 C 8.97 g/m*3 10.34 C 0 km/h
1863 24-10-2014 04:00:00 9.98333 C 8.82 g/m*3 9.98 C 0 km/h
1864 24-10-2014 05:00:00 9.54167 C 8.65 g/m*3 9.54 C 0.13333 km/h
1865 24-10-2014 06:00:00 8.83333 C 8.26 g/m*3 8.83 C 0 km/h
1866 24-10-2014 07:00:00 7.95 C 7.87 g/m*3 7.95 C 0 km/h
1867 24-10-2014 08:00:00 7.575 C 7.72 g/m*3 7.58 C 0 km/h
1868 24-10-2014 09:00:00 7.45 C 7.66 g/m*3 7.45 C 0 km/h
1869 24-10-2014 10:00:00 7.95833 C 7.99 g/m*3 7.96 C 0 km/h
1870 24-10-2014 11:00:00 9.00833 C 8.56 g/m*3 9.01 C 0.13333 km/h
1871 24-10-2014 12:00:00 10.71667 C 9.28 g/m*3 10.72 C 0.66667 km/h
1872 24-10-2014 13:00:00 13.15 C 9.4 g/m*3 13.15 C 4.15 km/h
1873 24-10-2014 14:00:00 14.11667 C 9.24 g/m*3 14.12 C 4.00833 km/h
1874 24-10-2014 15:00:00 14.34167 C 8.95 g/m*3 14.34 C 3.46667 km/h
1875 24-10-2014 16:00:00 13.88333 C 9.14 g/m*3 13.88 C 2 km/h
Sensor: Nr:Datum:Temp:Abs-Feuchte:Windchill:Wind:
Aussen-T/F 1876 24-10-2014 17:00:00 12.90833 C 9.19 g/m*3 12.91 C 1.73333 km/h
1877 24-10-2014 18:00:00 11.36667 C 8.89 g/m*3 11.37 C 1.06667 km/h
1878 24-10-2014 19:00:00 11.01667 C 8.97 g/m*3 11.02 C 0.66667 km/h
1879 24-10-2014 20:00:00 10.975 C 9.04 g/m*3 10.98 C 0.53333 km/h
1880 24-10-2014 21:00:00 10.59167 C 9.1 g/m*3 10.59 C 0.26667 km/h
1881 24-10-2014 22:00:00 10.30833 C 9.03 g/m*3 10.31 C 0 km/h
1882 24-10-2014 23:00:00 10.23333 C 9.06 g/m*3 10.23 C 0 km/h
1883 25-10-2014 00:00:00 10.28333 C 9.1 g/m*3 10.28 C 0 km/h
1884 25-10-2014 01:00:00 10.08333 C 9.07 g/m*3 10.08 C 0 km/h
1885 25-10-2014 02:00:00 9.875 C 9 g/m*3 9.88 C 0 km/h
1886 25-10-2014 03:00:00 10.05 C 9.14 g/m*3 10.05 C 0 km/h
1887 25-10-2014 04:00:00 10.1 C 9.17 g/m*3 10.1 C 0 km/h
1888 25-10-2014 05:00:00 9.96667 C 9.1 g/m*3 9.97 C 0 km/h
1889 25-10-2014 06:00:00 9.85833 C 8.98 g/m*3 9.86 C 0.4 km/h
1890 25-10-2014 07:00:00 9.91667 C 8.99 g/m*3 9.92 C 0 km/h
1891 25-10-2014 08:00:00 9.96667 C 9.1 g/m*3 9.97 C 0.26667 km/h
1892 25-10-2014 09:00:00 10.325 C 9.3 g/m*3 10.33 C 1.2 km/h
1893 25-10-2014 10:00:00 10.975 C 9.63 g/m*3 10.98 C 4.55833 km/h
1894 25-10-2014 11:00:00 11.825 C 9.93 g/m*3 11.83 C 8.60833 km/h
1895 25-10-2014 12:00:00 12.4 C 10.05 g/m*3 12.4 C 6.15 km/h
1896 25-10-2014 13:00:00 13.1 C 10.28 g/m*3 13.1 C 4.13333 km/h
1897 25-10-2014 14:00:00 13.39167 C 10.4 g/m*3 13.39 C 6.44167 km/h
1898 25-10-2014 15:00:00 13.325 C 10.39 g/m*3 13.33 C 6.99167 km/h
1899 25-10-2014 16:00:00 13.28333 C 10.44 g/m*3 13.28 C 2.94167 km/h
1900 25-10-2014 17:00:00 13.14167 C 10.43 g/m*3 13.14 C 1.075 km/h
Sensor: Nr:Datum:Temp:Abs-Feuchte:Windchill:Wind:
Aussen-T/F 1901 25-10-2014 18:00:00 12.825 C 10.41 g/m*3 12.83 C 0.93333 km/h
1902 25-10-2014 19:00:00 12.64167 C 10.39 g/m*3 12.64 C 0.66667 km/h
1903 25-10-2014 20:00:00 12.50833 C 10.4 g/m*3 12.51 C 0 km/h
1904 25-10-2014 21:00:00 12.35 C 10.44 g/m*3 12.35 C 0 km/h
1905 25-10-2014 22:00:00 12.26667 C 10.47 g/m*3 12.27 C 0 km/h
1906 25-10-2014 23:00:00 12.275 C 10.52 g/m*3 12.28 C 0.26667 km/h
1907 26-10-2014 00:00:00 12.21667 C 10.51 g/m*3 12.22 C 0 km/h
1908 26-10-2014 01:00:00 12.2 C 10.54 g/m*3 12.2 C 0 km/h
1909 26-10-2014 02:00:00 11.98333 C 10.4 g/m*3 11.98 C 0 km/h
1910 26-10-2014 04:00:00 10.87391 C 9.72 g/m*3 10.87 C 0 km/h
1911 26-10-2014 05:00:00 11.01538 C 9.82 g/m*3 11.02 C 0 km/h
1912 26-10-2014 06:00:00 10.8 C 9.69 g/m*3 10.8 C 0.13333 km/h
1913 26-10-2014 07:00:00 10.65833 C 9.6 g/m*3 10.66 C 0.8 km/h
1914 26-10-2014 08:00:00 11 C 9.81 g/m*3 11 C 1.33333 km/h
1915 26-10-2014 09:00:00 11.61667 C 10.03 g/m*3 11.62 C 3.2 km/h
1916 26-10-2014 10:00:00 12.18333 C 10.04 g/m*3 12.18 C 4.13333 km/h
1917 26-10-2014 11:00:00 12.50833 C 10.12 g/m*3 12.51 C 0.4 km/h
1918 26-10-2014 12:00:00 13.15 C 10.52 g/m*3 13.15 C 0.13333 km/h
1919 26-10-2014 13:00:00 12.875 C 10.24 g/m*3 12.88 C 0.4 km/h
1920 26-10-2014 14:00:00 13.3 C 10.52 g/m*3 13.3 C 0.26667 km/h
1921 26-10-2014 15:00:00 13.16667 C 10.42 g/m*3 13.17 C 0 km/h
1922 26-10-2014 16:00:00 12.65833 C 10.22 g/m*3 12.66 C 0.26667 km/h
1923 26-10-2014 17:00:00 11.74167 C 9.8 g/m*3 11.74 C 0.4 km/h
1924 26-10-2014 18:00:00 10.95833 C 9.49 g/m*3 10.96 C 0 km/h
1925 26-10-2014 19:00:00 10.25 C 9.16 g/m*3 10.25 C 0 km/h
Sensor: Nr:Datum:Temp:Abs-Feuchte:Windchill:Wind:
Aussen-T/F 1926 26-10-2014 20:00:00 9.6 C 8.85 g/m*3 9.6 C 0 km/h
1927 26-10-2014 21:00:00 9.10833 C 8.61 g/m*3 9.11 C 0 km/h
1928 26-10-2014 22:00:00 8.925 C 8.57 g/m*3 8.93 C 0.26667 km/h
1929 26-10-2014 23:00:00 8.875 C 8.56 g/m*3 8.88 C 0.13333 km/h
1930 27-10-2014 00:00:00 8.525 C 8.38 g/m*3 8.53 C 0 km/h
1931 27-10-2014 01:00:00 8.39167 C 8.31 g/m*3 8.39 C 0.13333 km/h
1932 27-10-2014 02:00:00 8.08333 C 8.15 g/m*3 8.08 C 0.13333 km/h
1933 27-10-2014 03:00:00 7.99167 C 8.1 g/m*3 7.99 C 0 km/h
1934 27-10-2014 04:00:00 7.85833 C 8.03 g/m*3 7.86 C 0.53333 km/h
1935 27-10-2014 05:00:00 8.01667 C 8.11 g/m*3 8.02 C 0.8 km/h
1936 27-10-2014 06:00:00 8.19167 C 8.27 g/m*3 8.19 C 0.13333 km/h
1937 27-10-2014 07:00:00 8.45 C 8.38 g/m*3 8.45 C 0 km/h
1938 27-10-2014 08:00:00 8.71667 C 8.57 g/m*3 8.72 C 1.2 km/h
1939 27-10-2014 09:00:00 8.8 C 8.62 g/m*3 8.8 C 4.53333 km/h
1940 27-10-2014 10:00:00 9.05 C 8.76 g/m*3 9.05 C 3.06667 km/h
1941 27-10-2014 11:00:00 9.8 C 9.19 g/m*3 9.8 C 0.66667 km/h
1942 27-10-2014 12:00:00 10.80833 C 9.79 g/m*3 10.81 C 0.66667 km/h
1943 27-10-2014 13:00:00 11.85 C 9.88 g/m*3 11.85 C 4.81667 km/h
1944 27-10-2014 14:00:00 12.59167 C 9.72 g/m*3 12.59 C 3.46667 km/h
1945 27-10-2014 15:00:00 12.21667 C 9.39 g/m*3 12.22 C 2 km/h
1946 27-10-2014 16:00:00 11.14167 C 8.96 g/m*3 11.14 C 3.475 km/h
1947 27-10-2014 17:00:00 9.86667 C 8.49 g/m*3 9.87 C 1.33333 km/h
1948 27-10-2014 18:00:00 8.4 C 8.06 g/m*3 8.4 C 0 km/h
1949 27-10-2014 19:00:00 8.08333 C 7.99 g/m*3 8.08 C 0 km/h
1950 27-10-2014 20:00:00 8.36667 C 8.21 g/m*3 8.37 C 0 km/h
Sensor: Nr:Datum:Temp:Abs-Feuchte:Windchill:Wind:
Aussen-T/F 1951 27-10-2014 21:00:00 8.69167 C 8.38 g/m*3 8.69 C 0 km/h
1952 27-10-2014 22:00:00 8.76667 C 8.37 g/m*3 8.77 C 0.66667 km/h
1953 27-10-2014 23:00:00 8.81667 C 8.36 g/m*3 8.82 C 0 km/h
1954 28-10-2014 00:00:00 8.8 C 8.31 g/m*3 8.8 C 0 km/h
1955 28-10-2014 01:00:00 8.775 C 8.23 g/m*3 8.78 C 1.73333 km/h
1956 28-10-2014 02:00:00 8.75 C 7.92 g/m*3 8.75 C 1.6 km/h
1957 28-10-2014 03:00:00 8.44167 C 7.62 g/m*3 8.44 C 2.26667 km/h
1958 28-10-2014 04:00:00 8.275 C 7.53 g/m*3 8.28 C 1.06667 km/h
1959 28-10-2014 05:00:00 8.11667 C 7.36 g/m*3 8.12 C 2.54167 km/h
1960 28-10-2014 06:00:00 7.93333 C 7.35 g/m*3 7.93 C 1.33333 km/h
1961 28-10-2014 07:00:00 7.81667 C 7.31 g/m*3 7.82 C 1.46667 km/h
1962 28-10-2014 08:00:00 7.95 C 7.22 g/m*3 7.95 C 1.6 km/h
1963 28-10-2014 09:00:00 8.26667 C 7.26 g/m*3 8.27 C 3.2 km/h
1964 28-10-2014 10:00:00 8.425 C 7.24 g/m*3 8.43 C 3.46667 km/h
1965 28-10-2014 11:00:00 8.425 C 7.14 g/m*3 8.43 C 4.28333 km/h
1966 28-10-2014 12:00:00 8.66667 C 7.17 g/m*3 7.58 C 7.39167 km/h
1967 28-10-2014 13:00:00 8.525 C 7.07 g/m*3 7.73 C 6.15833 km/h
1968 28-10-2014 14:00:00 8.45 C 7.07 g/m*3 7.64 C 6.15833 km/h
1969 28-10-2014 15:00:00 8.31667 C 7.12 g/m*3 8.32 C 3.33333 km/h
1970 28-10-2014 16:00:00 8.05 C 7.06 g/m*3 8.05 C 1.46667 km/h
1971 28-10-2014 17:00:00 7.63333 C 6.98 g/m*3 7.63 C 1.33333 km/h
1972 28-10-2014 18:00:00 6.11667 C 6.69 g/m*3 6.12 C 0 km/h
1973 28-10-2014 19:00:00 5.04167 C 6.42 g/m*3 5.04 C 0.53333 km/h
1974 28-10-2014 20:00:00 6.425 C 6.9 g/m*3 6.43 C 1.73333 km/h
1975 28-10-2014 21:00:00 7.4 C 7.16 g/m*3 7.4 C 1.86667 km/h
Sensor: Nr:Datum:Temp:Abs-Feuchte:Windchill:Wind:
Aussen-T/F 1976 28-10-2014 22:00:00 7.8 C 7.22 g/m*3 7.8 C 2.14167 km/h
1977 28-10-2014 23:00:00 8.08333 C 7.37 g/m*3 8.08 C 1.46667 km/h
1978 29-10-2014 00:00:00 8.6 C 7.56 g/m*3 8.6 C 1.33333 km/h
1979 29-10-2014 01:00:00 8.79167 C 7.66 g/m*3 8.79 C 1.46667 km/h
1980 29-10-2014 02:00:00 8.85833 C 7.73 g/m*3 8.86 C 0.13333 km/h
1981 29-10-2014 03:00:00 8.70833 C 7.84 g/m*3 8.71 C 0 km/h
1982 29-10-2014 04:00:00 9.1 C 7.97 g/m*3 9.1 C 1.33333 km/h
1983 29-10-2014 05:00:00 8.6 C 7.73 g/m*3 8.6 C 0.4 km/h
1984 29-10-2014 06:00:00 7.11667 C 7.29 g/m*3 7.12 C 0.13333 km/h
1985 29-10-2014 07:00:00 6.04167 C 6.93 g/m*3 6.04 C 0 km/h
1986 29-10-2014 08:00:00 5.81667 C 6.9 g/m*3 5.82 C 0 km/h
1987 29-10-2014 09:00:00 6.89167 C 7.45 g/m*3 6.89 C 0.8 km/h
1988 29-10-2014 10:00:00 8.325 C 7.85 g/m*3 8.32 C 3.08333 km/h
1989 29-10-2014 11:00:00 9.74167 C 8.31 g/m*3 9.74 C 2.81667 km/h
1990 29-10-2014 12:00:00 10.14167 C 8.64 g/m*3 10.14 C 0.26667 km/h
1991 29-10-2014 13:00:00 11.775 C 8.95 g/m*3 11.78 C 3.74167 km/h
1992 29-10-2014 14:00:00 12.80833 C 9.09 g/m*3 12.81 C 9.00833 km/h
1993 29-10-2014 15:00:00 12.075 C 8.99 g/m*3 12.08 C 6.70833 km/h
1994 29-10-2014 16:00:00 11.71667 C 8.95 g/m*3 11.72 C 6.025 km/h
1995 29-10-2014 17:00:00 11.14167 C 9.1 g/m*3 11.14 C 0.8 km/h
1996 29-10-2014 18:00:00 10.48333 C 9.22 g/m*3 10.48 C 0 km/h
1997 29-10-2014 19:00:00 10.31667 C 9.26 g/m*3 10.32 C 0 km/h
1998 29-10-2014 20:00:00 10.35 C 9.32 g/m*3 10.35 C 0 km/h
1999 29-10-2014 21:00:00 10.4 C 9.35 g/m*3 10.4 C 0 km/h
2000 29-10-2014 22:00:00 10.35 C 9.32 g/m*3 10.35 C 0 km/h
Sensor: Nr:Datum:Temp:Abs-Feuchte:Windchill:Wind:
Aussen-T/F 2001 29-10-2014 23:00:00 9.98333 C 9.16 g/m*3 9.98 C 0 km/h
2002 30-10-2014 00:00:00 10.35 C 9.42 g/m*3 10.35 C 0 km/h
2003 30-10-2014 01:00:00 10.4 C 9.44 g/m*3 10.4 C 0 km/h
2004 30-10-2014 02:00:00 10.55 C 9.53 g/m*3 10.55 C 0.13333 km/h
2005 30-10-2014 03:00:00 10.6 C 9.57 g/m*3 10.6 C 0.13333 km/h
2006 30-10-2014 04:00:00 10.6 C 9.57 g/m*3 10.6 C 0 km/h
2007 30-10-2014 05:00:00 10.7 C 9.63 g/m*3 10.7 C 0 km/h
2008 30-10-2014 06:00:00 10.74167 C 9.65 g/m*3 10.74 C 0 km/h
2009 30-10-2014 07:00:00 10.64167 C 9.6 g/m*3 10.64 C 0 km/h
2010 30-10-2014 08:00:00 11 C 9.88 g/m*3 11 C 0 km/h
2011 30-10-2014 09:00:00 11.40833 C 10.14 g/m*3 11.41 C 0 km/h
2012 30-10-2014 10:00:00 11.85833 C 10.4 g/m*3 11.86 C 0 km/h
2013 30-10-2014 11:00:00 12.74167 C 10.91 g/m*3 12.74 C 0.66667 km/h
2014 30-10-2014 12:00:00 13.74167 C 11.2 g/m*3 13.74 C 0.26667 km/h
2015 30-10-2014 13:00:00 14.575 C 11.44 g/m*3 14.58 C 0.26667 km/h
2016 30-10-2014 14:00:00 15.125 C 11.62 g/m*3 15.13 C 0.53333 km/h
2017 30-10-2014 15:00:00 14.90833 C 11.88 g/m*3 14.91 C 0 km/h
2018 30-10-2014 16:00:00 13.96667 C 11.46 g/m*3 13.97 C 0 km/h
2019 30-10-2014 17:00:00 12.80833 C 10.76 g/m*3 12.81 C 0 km/h
2020 30-10-2014 18:00:00 12.225 C 10.51 g/m*3 12.23 C 0 km/h
2021 30-10-2014 19:00:00 12.58333 C 10.83 g/m*3 12.58 C 0 km/h
2022 30-10-2014 20:00:00 12.73333 C 10.93 g/m*3 12.73 C 0 km/h
2023 30-10-2014 21:00:00 12.33333 C 10.66 g/m*3 12.33 C 0 km/h
2024 30-10-2014 22:00:00 12.11667 C 10.52 g/m*3 12.12 C 0 km/h
2025 30-10-2014 23:00:00 11.84167 C 10.34 g/m*3 11.84 C 0 km/h
Sensor: Nr:Datum:Temp:Abs-Feuchte:Windchill:Wind:
Aussen-T/F 2026 31-10-2014 00:00:00 11.68333 C 10.24 g/m*3 11.68 C 0 km/h
2027 31-10-2014 01:00:00 11.16667 C 9.91 g/m*3 11.17 C 0 km/h
2028 31-10-2014 02:00:00 10.55833 C 9.54 g/m*3 10.56 C 0 km/h
2029 31-10-2014 03:00:00 10.35 C 9.42 g/m*3 10.35 C 0.13333 km/h
2030 31-10-2014 04:00:00 10.64167 C 9.61 g/m*3 10.64 C 0 km/h
2031 31-10-2014 05:00:00 10.8 C 9.79 g/m*3 10.8 C 0.53333 km/h
2032 31-10-2014 06:00:00 10.63333 C 9.61 g/m*3 10.63 C 0.13333 km/h
2033 31-10-2014 07:00:00 10.25833 C 9.4 g/m*3 10.26 C 0 km/h
2034 31-10-2014 08:00:00 10.275 C 9.47 g/m*3 10.28 C 0 km/h
2035 31-10-2014 09:00:00 10.69167 C 9.72 g/m*3 10.69 C 0.26667 km/h
2036 31-10-2014 10:00:00 11.79167 C 10.41 g/m*3 11.79 C 0 km/h
2037 31-10-2014 11:00:00 13.14167 C 11.33 g/m*3 13.14 C 0.26667 km/h
2038 31-10-2014 12:00:00 14.71667 C 12.09 g/m*3 14.72 C 1.06667 km/h
2039 31-10-2014 13:00:00 16.3 C 12.58 g/m*3 16.3 C 0 km/h
2040 31-10-2014 14:00:00 16.21667 C 12.76 g/m*3 16.22 C 0 km/h
2041 31-10-2014 15:00:00 15.85 C 12.69 g/m*3 15.85 C 0 km/h
2042 31-10-2014 16:00:00 14.91667 C 12.06 g/m*3 14.92 C 0 km/h
2043 31-10-2014 17:00:00 13.425 C 11.09 g/m*3 13.43 C 0.13333 km/h
2044 31-10-2014 18:00:00 12.24167 C 10.44 g/m*3 12.24 C 0 km/h
2045 31-10-2014 19:00:00 11.71667 C 10.17 g/m*3 11.72 C 0 km/h
2046 31-10-2014 20:00:00 11.46667 C 10.06 g/m*3 11.47 C 0 km/h
2047 31-10-2014 21:00:00 10.74167 C 9.63 g/m*3 10.74 C 0 km/h
2048 31-10-2014 22:00:00 10.20833 C 9.33 g/m*3 10.21 C 0 km/h
2049 31-10-2014 23:00:00 9.625 C 8.99 g/m*3 9.63 C 0 km/h
2050 01-11-2014 00:00:00 9.51667 C 8.93 g/m*3 9.52 C 0 km/h
Sensor: Nr:Datum:Temp:Abs-Feuchte:Windchill:Wind:
Aussen-T/F 2051 01-11-2014 01:00:00 9.55 C 8.95 g/m*3 9.55 C 0.26667 km/h
2052 01-11-2014 02:00:00 9.63333 C 9.03 g/m*3 9.63 C 0 km/h
2053 01-11-2014 03:00:00 9.76667 C 9.17 g/m*3 9.77 C 0 km/h
2054 01-11-2014 04:00:00 9.48333 C 8.94 g/m*3 9.48 C 0.26667 km/h
2055 01-11-2014 05:00:00 9.1 C 8.74 g/m*3 9.1 C 0 km/h
2056 01-11-2014 06:00:00 8.79167 C 8.6 g/m*3 8.79 C 0 km/h
2057 01-11-2014 07:00:00 8.60833 C 8.5 g/m*3 8.61 C 0 km/h
2058 01-11-2014 08:00:00 8.73333 C 8.58 g/m*3 8.73 C 0.26667 km/h
2059 01-11-2014 09:00:00 9.275 C 8.88 g/m*3 9.28 C 0.26667 km/h
2060 01-11-2014 10:00:00 9.95 C 9.27 g/m*3 9.95 C 0.53333 km/h
2061 01-11-2014 11:00:00 11.13333 C 9.99 g/m*3 11.13 C 0.26667 km/h
2062 01-11-2014 12:00:00 12.14167 C 10.64 g/m*3 12.14 C 0.4 km/h
2063 01-11-2014 13:00:00 13.2 C 11.37 g/m*3 13.2 C 0 km/h
2064 01-11-2014 14:00:00 14.425 C 12.26 g/m*3 14.43 C 0.13333 km/h
2065 01-11-2014 15:00:00 15.275 C 12.88 g/m*3 15.28 C 0 km/h
2066 01-11-2014 16:00:00 14.775 C 12.31 g/m*3 14.78 C 0 km/h
2067 01-11-2014 17:00:00 13.8 C 11.56 g/m*3 13.8 C 0 km/h
2068 01-11-2014 18:00:00 12.74167 C 10.83 g/m*3 12.74 C 0 km/h
2069 01-11-2014 19:00:00 11.75 C 10.18 g/m*3 11.75 C 0 km/h
2070 01-11-2014 20:00:00 11.075 C 9.76 g/m*3 11.08 C 0.13333 km/h
2071 01-11-2014 21:00:00 10.33333 C 9.35 g/m*3 10.33 C 0 km/h
2072 01-11-2014 22:00:00 9.88333 C 9.14 g/m*3 9.88 C 0 km/h
2073 01-11-2014 23:00:00 9.3 C 8.81 g/m*3 9.3 C 0 km/h
2074 02-11-2014 00:00:00 9.04167 C 8.66 g/m*3 9.04 C 0 km/h
2075 02-11-2014 01:00:00 8.9 C 8.58 g/m*3 8.9 C 0 km/h
Sensor: Nr:Datum:Temp:Abs-Feuchte:Windchill:Wind:
Aussen-T/F 2076 02-11-2014 02:00:00 8.66667 C 8.46 g/m*3 8.67 C 0 km/h
2077 02-11-2014 03:00:00 8.69167 C 8.47 g/m*3 8.69 C 0 km/h
2078 02-11-2014 04:00:00 8.74167 C 8.53 g/m*3 8.74 C 0 km/h
2079 02-11-2014 05:00:00 8.8 C 8.62 g/m*3 8.8 C 0 km/h
2080 02-11-2014 06:00:00 8.91667 C 8.68 g/m*3 8.92 C 0 km/h
2081 02-11-2014 07:00:00 8.9 C 8.67 g/m*3 8.9 C 0 km/h
2082 02-11-2014 08:00:00 9.20833 C 8.85 g/m*3 9.21 C 0.13333 km/h
2083 02-11-2014 09:00:00 10.11667 C 9.37 g/m*3 10.12 C 0.13333 km/h
2084 02-11-2014 10:00:00 10.65 C 9.69 g/m*3 10.65 C 0 km/h
2085 02-11-2014 11:00:00 11.675 C 10.34 g/m*3 11.68 C 0.53333 km/h
2086 02-11-2014 12:00:00 12.65833 C 10.81 g/m*3 12.66 C 0.26667 km/h
2087 02-11-2014 13:00:00 13.775 C 11.07 g/m*3 13.78 C 1.46667 km/h
2088 02-11-2014 14:00:00 14.81667 C 11.74 g/m*3 14.82 C 1.2 km/h
2089 02-11-2014 15:00:00 14.85833 C 11.81 g/m*3 14.86 C 0.8 km/h
2090 02-11-2014 16:00:00 13.84167 C 11.32 g/m*3 13.84 C 0 km/h
2091 02-11-2014 17:00:00 12.59167 C 10.64 g/m*3 12.59 C 0.13333 km/h
2092 02-11-2014 18:00:00 12.1 C 10.4 g/m*3 12.1 C 0 km/h
2093 02-11-2014 19:00:00 11.75 C 10.21 g/m*3 11.75 C 0 km/h
2094 02-11-2014 20:00:00 11.59167 C 10.18 g/m*3 11.59 C 0.26667 km/h
2095 02-11-2014 21:00:00 12.2 C 10.58 g/m*3 12.2 C 0.4 km/h
2096 02-11-2014 22:00:00 12.69167 C 10.9 g/m*3 12.69 C 0.93333 km/h
2097 02-11-2014 23:00:00 13.2 C 11.07 g/m*3 13.2 C 1.86667 km/h
2098 03-11-2014 00:00:00 13.45833 C 11.14 g/m*3 13.46 C 2.93333 km/h
2099 03-11-2014 01:00:00 13.38333 C 11.16 g/m*3 13.38 C 1.33333 km/h
2100 03-11-2014 02:00:00 13.55 C 11.27 g/m*3 13.55 C 2.66667 km/h
Sensor: Nr:Datum:Temp:Abs-Feuchte:Windchill:Wind:
Aussen-T/F 2101 03-11-2014 03:00:00 13.7 C 11.24 g/m*3 13.7 C 3.08333 km/h
2102 03-11-2014 04:00:00 14.09167 C 11.08 g/m*3 14.09 C 4.425 km/h
2103 03-11-2014 05:00:00 13.375 C 10.68 g/m*3 13.38 C 1.46667 km/h
2104 03-11-2014 06:00:00 13.43333 C 10.51 g/m*3 13.43 C 2.4 km/h
2105 03-11-2014 07:00:00 13.56667 C 10.59 g/m*3 13.57 C 2.26667 km/h
2106 03-11-2014 08:00:00 13.15 C 10.59 g/m*3 13.15 C 4.68333 km/h
2107 03-11-2014 09:00:00 12.68333 C 10.37 g/m*3 12.68 C 3.48333 km/h
2108 03-11-2014 10:00:00 13.05 C 10.86 g/m*3 13.05 C 0 km/h
2109 03-11-2014 11:00:00 13.98333 C 11.55 g/m*3 13.98 C 2.13333 km/h
2110 03-11-2014 12:00:00 15.35 C 11.63 g/m*3 15.35 C 3.06667 km/h
2111 03-11-2014 13:00:00 16.01667 C 11.42 g/m*3 16.02 C 7.36667 km/h
2112 03-11-2014 14:00:00 16 C 11.1 g/m*3 16 C 7.10833 km/h
2113 03-11-2014 15:00:00 15.45833 C 10.7 g/m*3 15.46 C 8.2 km/h
2114 03-11-2014 16:00:00 14.85 C 10.65 g/m*3 14.85 C 4.4 km/h
2115 03-11-2014 17:00:00 13.7 C 10.3 g/m*3 13.7 C 3.33333 km/h
2116 03-11-2014 18:00:00 13.44167 C 10.06 g/m*3 13.44 C 2.93333 km/h
2117 03-11-2014 19:00:00 13.89167 C 10.09 g/m*3 13.89 C 4.96667 km/h
2118 03-11-2014 20:00:00 14.01667 C 10.2 g/m*3 14.02 C 8.59167 km/h
2119 03-11-2014 21:00:00 13.35833 C 10.32 g/m*3 13.36 C 5.75833 km/h
2120 03-11-2014 22:00:00 12.575 C 10.41 g/m*3 12.58 C 2.94167 km/h
2121 03-11-2014 23:00:00 12.08333 C 10.35 g/m*3 12.08 C 1.46667 km/h
2122 04-11-2014 00:00:00 11.83333 C 10.23 g/m*3 11.83 C 2.4 km/h
2123 04-11-2014 01:00:00 12.125 C 10.39 g/m*3 12.13 C 4.29167 km/h
2124 04-11-2014 02:00:00 11.85 C 10.13 g/m*3 11.85 C 3.74167 km/h
2125 04-11-2014 03:00:00 11.33333 C 9.88 g/m*3 11.33 C 0.93333 km/h
Sensor: Nr:Datum:Temp:Abs-Feuchte:Windchill:Wind:
Aussen-T/F 2126 04-11-2014 04:00:00 11.24167 C 9.88 g/m*3 11.24 C 2.94167 km/h
2127 04-11-2014 05:00:00 11.34167 C 9.92 g/m*3 11.34 C 2.95 km/h
2128 04-11-2014 06:00:00 11.24167 C 9.86 g/m*3 11.24 C 2.8 km/h
2129 04-11-2014 07:00:00 11.20833 C 9.87 g/m*3 11.21 C 0.53333 km/h
2130 04-11-2014 08:00:00 11.34167 C 10.02 g/m*3 11.34 C 0 km/h
2131 04-11-2014 09:00:00 11.76667 C 10.28 g/m*3 11.77 C 2.81667 km/h
2132 04-11-2014 10:00:00 12.775 C 10.33 g/m*3 12.78 C 5.23333 km/h
2133 04-11-2014 11:00:00 12.575 C 10.23 g/m*3 12.58 C 1.34167 km/h
2134 04-11-2014 12:00:00 12.35833 C 10.37 g/m*3 12.36 C 0 km/h
2135 04-11-2014 13:00:00 12.325 C 10.21 g/m*3 12.33 C 0.26667 km/h
2136 04-11-2014 14:00:00 12.06667 C 10.21 g/m*3 12.07 C 0 km/h
2137 04-11-2014 15:00:00 11.7 C 10.13 g/m*3 11.7 C 0.13333 km/h
2138 04-11-2014 16:00:00 11.41667 C 9.97 g/m*3 11.42 C 0 km/h
2139 04-11-2014 17:00:00 10.725 C 9.54 g/m*3 10.73 C 0 km/h
2140 04-11-2014 18:00:00 10.38333 C 9.39 g/m*3 10.38 C 0 km/h
2141 04-11-2014 19:00:00 10.25833 C 9.36 g/m*3 10.26 C 0 km/h
2142 04-11-2014 20:00:00 9.525 C 8.86 g/m*3 9.53 C 0.13333 km/h
2143 04-11-2014 21:00:00 9.3 C 8.77 g/m*3 9.3 C 0 km/h
2144 04-11-2014 22:00:00 9.3 C 8.81 g/m*3 9.3 C 0 km/h
2145 04-11-2014 23:00:00 9.3 C 8.81 g/m*3 9.3 C 0 km/h
2146 05-11-2014 00:00:00 9.3 C 8.81 g/m*3 9.3 C 0 km/h
2147 05-11-2014 01:00:00 9.36667 C 8.84 g/m*3 9.37 C 0 km/h
2148 05-11-2014 02:00:00 9.41667 C 8.87 g/m*3 9.42 C 0.13333 km/h
2149 05-11-2014 03:00:00 9.3 C 8.81 g/m*3 9.3 C 0 km/h
2150 05-11-2014 04:00:00 9.175 C 8.74 g/m*3 9.18 C 0.13333 km/h
Sensor: Nr:Datum:Temp:Abs-Feuchte:Windchill:Wind:
Aussen-T/F 2151 05-11-2014 05:00:00 9.075 C 8.68 g/m*3 9.07 C 0 km/h
2152 05-11-2014 06:00:00 8.84167 C 8.55 g/m*3 8.84 C 0 km/h
2153 05-11-2014 07:00:00 8.90833 C 8.6 g/m*3 8.91 C 0 km/h
2154 05-11-2014 08:00:00 8.91667 C 8.59 g/m*3 8.92 C 0 km/h
2155 05-11-2014 09:00:00 8.84167 C 8.55 g/m*3 8.84 C 2.00833 km/h
2156 05-11-2014 10:00:00 9.3 C 8.57 g/m*3 8.85 C 5.35833 km/h
2157 05-11-2014 11:00:00 9.99167 C 8.7 g/m*3 9.28 C 6.725 km/h
2158 05-11-2014 12:00:00 10.49167 C 8.7 g/m*3 9.83 C 6.85 km/h
2159 05-11-2014 13:00:00 10.725 C 8.67 g/m*3 9.9 C 7.78333 km/h
2160 05-11-2014 14:00:00 10.8 C 8.67 g/m*3 10.8 C 2.94167 km/h
2161 05-11-2014 15:00:00 10.79167 C 8.9 g/m*3 10.79 C 0.66667 km/h
2162 05-11-2014 16:00:00 9.825 C 8.8 g/m*3 9.82 C 0 km/h
2163 05-11-2014 17:00:00 9.26667 C 8.61 g/m*3 9.27 C 0 km/h
2164 05-11-2014 18:00:00 8.9 C 8.45 g/m*3 8.9 C 0.4 km/h
2165 05-11-2014 19:00:00 8.75 C 8.39 g/m*3 8.75 C 0 km/h
2166 05-11-2014 20:00:00 8.60833 C 8.3 g/m*3 8.61 C 0.26667 km/h
2167 05-11-2014 21:00:00 8.625 C 8.21 g/m*3 8.63 C 0.8 km/h
2168 05-11-2014 22:00:00 8.45 C 7.99 g/m*3 8.45 C 2.13333 km/h
2169 05-11-2014 23:00:00 8.30833 C 7.77 g/m*3 8.31 C 2.53333 km/h
2170 06-11-2014 00:00:00 7.625 C 7.52 g/m*3 7.63 C 0.26667 km/h
2171 06-11-2014 01:00:00 7.01667 C 7.34 g/m*3 7.02 C 0.4 km/h
2172 06-11-2014 02:00:00 6.8 C 7.27 g/m*3 6.8 C 0 km/h
2173 06-11-2014 03:00:00 6.71667 C 7.3 g/m*3 6.72 C 0 km/h
2174 06-11-2014 04:00:00 6.6 C 7.24 g/m*3 6.6 C 0 km/h
2175 06-11-2014 05:00:00 6.11667 C 7.01 g/m*3 6.12 C 1.06667 km/h
Sensor: Nr:Datum:Temp:Abs-Feuchte:Windchill:Wind:
Aussen-T/F 2176 06-11-2014 06:00:00 5.93333 C 6.88 g/m*3 5.93 C 1.73333 km/h
2177 06-11-2014 07:00:00 5.225 C 6.62 g/m*3 5.23 C 0.13333 km/h
2178 06-11-2014 08:00:00 4.51667 C 6.36 g/m*3 4.52 C 0 km/h
2179 06-11-2014 09:00:00 4.73333 C 6.49 g/m*3 4.73 C 0 km/h
2180 06-11-2014 10:00:00 6.66667 C 7.22 g/m*3 6.67 C 4.025 km/h
2181 06-11-2014 11:00:00 8.61667 C 7.48 g/m*3 8.62 C 4.00833 km/h
2182 06-11-2014 12:00:00 9.2 C 7.59 g/m*3 8.73 C 5.36667 km/h
2183 06-11-2014 13:00:00 8.98333 C 7.6 g/m*3 7.86 C 7.775 km/h
2184 06-11-2014 14:00:00 9.225 C 7.59 g/m*3 7.94 C 8.73333 km/h
2185 06-11-2014 15:00:00 9.29167 C 7.51 g/m*3 9.29 C 4.81667 km/h
2186 06-11-2014 16:00:00 8.95833 C 7.36 g/m*3 8.38 C 5.625 km/h
2187 06-11-2014 17:00:00 8.11667 C 7.36 g/m*3 8.12 C 1.6 km/h
2188 06-11-2014 18:00:00 6.575 C 6.98 g/m*3 6.58 C 1.46667 km/h
2189 06-11-2014 19:00:00 5.49167 C 6.65 g/m*3 5.49 C 0.26667 km/h
2190 06-11-2014 20:00:00 4.79167 C 6.43 g/m*3 4.79 C 0 km/h
2191 06-11-2014 21:00:00 4.2 C 6.2 g/m*3 4.2 C 0 km/h
2192 06-11-2014 22:00:00 3.625 C 6.01 g/m*3 3.63 C 0 km/h
2193 06-11-2014 23:00:00 3.25833 C 5.87 g/m*3 3.26 C 0 km/h
2194 07-11-2014 00:00:00 3.19167 C 5.85 g/m*3 3.19 C 0.13333 km/h
2195 07-11-2014 01:00:00 3.2 C 5.91 g/m*3 3.2 C 1.2 km/h
2196 07-11-2014 02:00:00 2.725 C 5.72 g/m*3 2.73 C 2.4 km/h
2197 07-11-2014 03:00:00 2.55833 C 5.66 g/m*3 2.56 C 0.4 km/h
2198 07-11-2014 04:00:00 2.44167 C 5.61 g/m*3 2.44 C 0 km/h
2199 07-11-2014 05:00:00 2.59167 C 5.67 g/m*3 2.59 C 0.13333 km/h
2200 07-11-2014 06:00:00 2.60833 C 5.67 g/m*3 2.61 C 0 km/h
Sensor: Nr:Datum:Temp:Abs-Feuchte:Windchill:Wind:
Aussen-T/F 2201 07-11-2014 07:00:00 2.15833 C 5.5 g/m*3 2.16 C 0 km/h
2202 07-11-2014 08:00:00 2.675 C 5.73 g/m*3 2.68 C 0 km/h
2203 07-11-2014 09:00:00 3.775 C 6.2 g/m*3 3.78 C 0.66667 km/h
2204 07-11-2014 10:00:00 4.81667 C 6.63 g/m*3 4.82 C 4.95 km/h
2205 07-11-2014 11:00:00 6.01667 C 6.96 g/m*3 6.02 C 3.46667 km/h
2206 07-11-2014 12:00:00 7.325 C 7.1 g/m*3 7.33 C 3.86667 km/h
2207 07-11-2014 13:00:00 8.09167 C 7.22 g/m*3 8.09 C 3.46667 km/h
2208 07-11-2014 14:00:00 8.2 C 7.26 g/m*3 8.2 C 2 km/h
2209 07-11-2014 15:00:00 8.19167 C 7.3 g/m*3 8.19 C 1.73333 km/h
2210 07-11-2014 16:00:00 8.075 C 7.4 g/m*3 8.07 C 1.46667 km/h
2211 07-11-2014 17:00:00 8.15 C 7.53 g/m*3 8.15 C 2 km/h
2212 07-11-2014 18:00:00 8.1 C 7.82 g/m*3 8.1 C 0.8 km/h
2213 07-11-2014 19:00:00 8.13333 C 7.93 g/m*3 8.13 C 0 km/h
2214 07-11-2014 20:00:00 7.925 C 7.84 g/m*3 7.93 C 1.46667 km/h
2215 07-11-2014 21:00:00 7.60833 C 7.69 g/m*3 7.61 C 0.8 km/h
2216 07-11-2014 22:00:00 7.9 C 7.87 g/m*3 7.9 C 2.80833 km/h
2217 07-11-2014 23:00:00 7.99167 C 7.86 g/m*3 7.99 C 0.4 km/h
2218 08-11-2014 00:00:00 7.18333 C 7.56 g/m*3 7.18 C 0.53333 km/h
2219 08-11-2014 01:00:00 7.49167 C 7.78 g/m*3 7.49 C 0.93333 km/h
2220 08-11-2014 02:00:00 8.80833 C 8.42 g/m*3 8.81 C 1.6 km/h
2221 08-11-2014 03:00:00 9.19167 C 8.37 g/m*3 9.19 C 1.33333 km/h
2222 08-11-2014 04:00:00 8.90833 C 8.32 g/m*3 8.91 C 1.46667 km/h
2223 08-11-2014 05:00:00 9.66667 C 8.44 g/m*3 9.67 C 1.86667 km/h
2224 08-11-2014 06:00:00 9.125 C 8.13 g/m*3 9.13 C 1.46667 km/h
2225 08-11-2014 07:00:00 8.19167 C 7.87 g/m*3 8.19 C 1.33333 km/h
Sensor: Nr:Datum:Temp:Abs-Feuchte:Windchill:Wind:
Aussen-T/F 2226 08-11-2014 08:00:00 7.775 C 7.77 g/m*3 7.78 C 1.33333 km/h
2227 08-11-2014 09:00:00 8.55 C 8.03 g/m*3 8.55 C 2.13333 km/h
2228 08-11-2014 10:00:00 9.85 C 7.99 g/m*3 8.68 C 8.74167 km/h
2229 08-11-2014 11:00:00 11.03333 C 8.13 g/m*3 11.03 C 9 km/h
2230 08-11-2014 12:00:00 11.975 C 8.38 g/m*3 11.98 C 5.225 km/h
2231 08-11-2014 13:00:00 12.25833 C 8.84 g/m*3 12.26 C 2.68333 km/h
2232 08-11-2014 14:00:00 12.53333 C 8.93 g/m*3 12.53 C 1.875 km/h
2233 08-11-2014 15:00:00 11.79167 C 8.94 g/m*3 11.79 C 1.33333 km/h
2234 08-11-2014 16:00:00 10.43333 C 8.35 g/m*3 10.43 C 1.875 km/h
2235 08-11-2014 17:00:00 8.325 C 7.84 g/m*3 8.32 C 1.73333 km/h
2236 08-11-2014 18:00:00 7.64167 C 7.61 g/m*3 7.64 C 2.13333 km/h
2237 08-11-2014 19:00:00 6.975 C 7.37 g/m*3 6.98 C 1.6 km/h
2238 08-11-2014 20:00:00 6.75 C 7.32 g/m*3 6.75 C 0.26667 km/h
2239 08-11-2014 21:00:00 6.45833 C 7.25 g/m*3 6.46 C 0.53333 km/h
2240 08-11-2014 22:00:00 6.55 C 7.3 g/m*3 6.55 C 0.8 km/h
2241 08-11-2014 23:00:00 5.99167 C 7.04 g/m*3 5.99 C 0 km/h
2242 09-11-2014 00:00:00 5.69167 C 6.93 g/m*3 5.69 C 0.13333 km/h
2243 09-11-2014 01:00:00 5.34167 C 6.78 g/m*3 5.34 C 0 km/h
2244 09-11-2014 02:00:00 5.23333 C 6.76 g/m*3 5.23 C 0 km/h
2245 09-11-2014 03:00:00 5.06667 C 6.69 g/m*3 5.07 C 0.26667 km/h
2246 09-11-2014 04:00:00 4.675 C 6.52 g/m*3 4.68 C 0.53333 km/h
2247 09-11-2014 05:00:00 4.40833 C 6.4 g/m*3 4.41 C 0 km/h
2248 09-11-2014 06:00:00 4.125 C 6.28 g/m*3 4.13 C 0.13333 km/h
2249 09-11-2014 07:00:00 3.89167 C 6.19 g/m*3 3.89 C 0 km/h
2250 09-11-2014 08:00:00 4.25833 C 6.34 g/m*3 4.26 C 0 km/h
Sensor: Nr:Datum:Temp:Abs-Feuchte:Windchill:Wind:
Aussen-T/F 2251 09-11-2014 09:00:00 4.7 C 6.55 g/m*3 4.7 C 0 km/h
2252 09-11-2014 10:00:00 5.325 C 6.85 g/m*3 5.33 C 0.66667 km/h
2253 09-11-2014 11:00:00 6.075 C 7.22 g/m*3 6.08 C 0.13333 km/h
2254 09-11-2014 12:00:00 7.225 C 7.78 g/m*3 7.23 C 0.4 km/h
2255 09-11-2014 13:00:00 8.6 C 8.51 g/m*3 8.6 C 0.13333 km/h
2256 09-11-2014 14:00:00 9.55 C 8.88 g/m*3 9.55 C 0.53333 km/h
2257 09-11-2014 15:00:00 10.25833 C 8.64 g/m*3 10.26 C 2 km/h
2258 09-11-2014 16:00:00 9.875 C 8.25 g/m*3 9.88 C 1.86667 km/h
2259 09-11-2014 17:00:00 7.91667 C 7.72 g/m*3 7.92 C 0.93333 km/h
2260 09-11-2014 18:00:00 7.78333 C 7.73 g/m*3 7.78 C 1.6 km/h
2261 09-11-2014 19:00:00 7.45833 C 7.66 g/m*3 7.46 C 0.13333 km/h
2262 09-11-2014 20:00:00 7.83333 C 7.93 g/m*3 7.83 C 0.26667 km/h
2263 09-11-2014 21:00:00 7.875 C 7.93 g/m*3 7.88 C 0.13333 km/h
2264 09-11-2014 22:00:00 7.875 C 7.95 g/m*3 7.88 C 0 km/h
2265 09-11-2014 23:00:00 7.9 C 7.97 g/m*3 7.9 C 0 km/h
2266 10-11-2014 00:00:00 8.08333 C 8.06 g/m*3 8.08 C 0 km/h
2267 10-11-2014 01:00:00 8.05 C 8.05 g/m*3 8.05 C 0 km/h
2268 10-11-2014 02:00:00 7.9 C 8.03 g/m*3 7.9 C 0 km/h
2269 10-11-2014 03:00:00 7.99167 C 8.1 g/m*3 7.99 C 0 km/h
2270 10-11-2014 04:00:00 8.18333 C 8.2 g/m*3 8.18 C 0 km/h
2271 10-11-2014 05:00:00 8.26667 C 8.24 g/m*3 8.27 C 0.4 km/h
2272 10-11-2014 06:00:00 8.44167 C 8.34 g/m*3 8.44 C 0.4 km/h
2273 10-11-2014 07:00:00 8.56667 C 8.4 g/m*3 8.57 C 2.66667 km/h
2274 10-11-2014 08:00:00 8.775 C 8.52 g/m*3 8.78 C 0.4 km/h
2275 10-11-2014 09:00:00 9.3 C 8.81 g/m*3 9.3 C 0.53333 km/h
Sensor: Nr:Datum:Temp:Abs-Feuchte:Windchill:Wind:
Aussen-T/F 2276 10-11-2014 10:00:00 9.95833 C 9.17 g/m*3 9.96 C 1.33333 km/h
2277 10-11-2014 11:00:00 10.81667 C 9.39 g/m*3 10.82 C 1.06667 km/h
2278 10-11-2014 12:00:00 11.71667 C 9.54 g/m*3 11.72 C 0.66667 km/h
2279 10-11-2014 13:00:00 11.95833 C 9.48 g/m*3 11.96 C 0.93333 km/h
2280 10-11-2014 14:00:00 11.78333 C 9.64 g/m*3 11.78 C 0.26667 km/h
2281 10-11-2014 15:00:00 11.275 C 9.62 g/m*3 11.28 C 0 km/h
2282 10-11-2014 16:00:00 10.625 C 9.3 g/m*3 10.63 C 2.13333 km/h
2283 10-11-2014 17:00:00 8.90833 C 8.39 g/m*3 8.91 C 3.06667 km/h
2284 10-11-2014 18:00:00 7.925 C 7.94 g/m*3 7.93 C 1.06667 km/h
2285 10-11-2014 19:00:00 7.30833 C 7.67 g/m*3 7.31 C 0.8 km/h
2286 10-11-2014 20:00:00 6.825 C 7.48 g/m*3 6.83 C 0.8 km/h
2287 10-11-2014 21:00:00 6.50833 C 7.35 g/m*3 6.51 C 0 km/h
2288 10-11-2014 22:00:00 5.85 C 7.04 g/m*3 5.85 C 0 km/h
2289 10-11-2014 23:00:00 5.31667 C 6.8 g/m*3 5.32 C 1.06667 km/h
2290 11-11-2014 00:00:00 5.46667 C 6.87 g/m*3 5.47 C 0.26667 km/h
2291 11-11-2014 01:00:00 5.55833 C 6.92 g/m*3 5.56 C 0 km/h
2292 11-11-2014 02:00:00 6.04167 C 7.17 g/m*3 6.04 C 0 km/h
2293 11-11-2014 03:00:00 6.25 C 7.3 g/m*3 6.25 C 0 km/h
2294 11-11-2014 04:00:00 7.31667 C 7.83 g/m*3 7.32 C 0 km/h
2295 11-11-2014 05:00:00 7.225 C 7.78 g/m*3 7.23 C 0.4 km/h
2296 11-11-2014 06:00:00 7.275 C 7.81 g/m*3 7.28 C 1.2 km/h
2297 11-11-2014 07:00:00 7.725 C 8.04 g/m*3 7.73 C 0.8 km/h
2298 11-11-2014 08:00:00 7.85 C 8.11 g/m*3 7.85 C 0 km/h
2299 11-11-2014 09:00:00 8.54167 C 8.48 g/m*3 8.54 C 0.26667 km/h
2300 11-11-2014 10:00:00 8.81667 C 8.63 g/m*3 8.82 C 2.4 km/h
Sensor: Nr:Datum:Temp:Abs-Feuchte:Windchill:Wind:
Aussen-T/F 2301 11-11-2014 11:00:00 9.14286 C 8.86 g/m*3 9.14 C 2.05714 km/h
2302 11-11-2014 12:00:00 10.90909 C 9.12 g/m*3 10.91 C 4.52727 km/h
2303 11-11-2014 13:00:00 11.41667 C 9.08 g/m*3 11.42 C 5.08333 km/h
2304 11-11-2014 14:00:00 11.61667 C 8.95 g/m*3 11.62 C 5.35 km/h
2305 11-11-2014 15:00:00 10.83333 C 8.55 g/m*3 10.29 C 6.58333 km/h
2306 11-11-2014 16:00:00 9.80833 C 8.22 g/m*3 9.81 C 3.46667 km/h
2307 11-11-2014 17:00:00 9.2 C 8.13 g/m*3 9.2 C 0.66667 km/h
2308 11-11-2014 18:00:00 9.04167 C 8.15 g/m*3 9.04 C 0.66667 km/h
2309 11-11-2014 19:00:00 8.85833 C 8.17 g/m*3 8.86 C 0.26667 km/h
2310 11-11-2014 20:00:00 8.8 C 8.17 g/m*3 8.8 C 0.4 km/h
2311 11-11-2014 21:00:00 8.8 C 8.21 g/m*3 8.8 C 0 km/h
2312 11-11-2014 22:00:00 8.7 C 8.22 g/m*3 8.7 C 0 km/h
2313 11-11-2014 23:00:00 8.7 C 8.2 g/m*3 8.7 C 0 km/h
2314 12-11-2014 00:00:00 8.65 C 8.19 g/m*3 8.65 C 0 km/h
2315 12-11-2014 01:00:00 8.40833 C 8.11 g/m*3 8.41 C 0 km/h
2316 12-11-2014 02:00:00 8.39167 C 8.14 g/m*3 8.39 C 0.26667 km/h
2317 12-11-2014 03:00:00 8.49167 C 8.19 g/m*3 8.49 C 0 km/h
2318 12-11-2014 04:00:00 8.675 C 8.25 g/m*3 8.68 C 0.26667 km/h
2319 12-11-2014 05:00:00 8.7 C 8.22 g/m*3 8.7 C 0.53333 km/h
2320 12-11-2014 06:00:00 8.7 C 8.22 g/m*3 8.7 C 0.13333 km/h
2321 12-11-2014 07:00:00 8.7 C 8.22 g/m*3 8.7 C 0.13333 km/h
2322 12-11-2014 08:00:00 8.9 C 8.26 g/m*3 8.9 C 0.66667 km/h
2323 12-11-2014 09:00:00 9.275 C 8.37 g/m*3 9.28 C 1.33333 km/h
2324 12-11-2014 10:00:00 9.4 C 8.42 g/m*3 9.4 C 2 km/h
2325 12-11-2014 11:00:00 9.63333 C 8.54 g/m*3 9.63 C 0.4 km/h
Sensor: Nr:Datum:Temp:Abs-Feuchte:Windchill:Wind:
Aussen-T/F 2326 12-11-2014 12:00:00 10.20833 C 8.8 g/m*3 10.21 C 0.53333 km/h
2327 12-11-2014 13:00:00 10.91667 C 9.06 g/m*3 10.92 C 0.26667 km/h
2328 12-11-2014 14:00:00 11.16667 C 9.27 g/m*3 11.17 C 0 km/h
2329 12-11-2014 15:00:00 10.925 C 9.41 g/m*3 10.93 C 0 km/h
2330 12-11-2014 16:00:00 10.45833 C 9.33 g/m*3 10.46 C 0.13333 km/h
2331 12-11-2014 17:00:00 10.15833 C 9.21 g/m*3 10.16 C 1.33333 km/h
2332 12-11-2014 18:00:00 10.03333 C 9.15 g/m*3 10.03 C 1.06667 km/h
2333 12-11-2014 19:00:00 9.88333 C 9.1 g/m*3 9.88 C 0.13333 km/h
2334 12-11-2014 20:00:00 9.78333 C 9.05 g/m*3 9.78 C 0.53333 km/h
2335 12-11-2014 21:00:00 9.68333 C 9.02 g/m*3 9.68 C 0 km/h
2336 12-11-2014 22:00:00 9.575 C 8.96 g/m*3 9.57 C 0.26667 km/h
2337 12-11-2014 23:00:00 9.30833 C 8.81 g/m*3 9.31 C 0.26667 km/h
2338 13-11-2014 00:00:00 9.36667 C 8.84 g/m*3 9.37 C 0 km/h
2339 13-11-2014 01:00:00 9.28333 C 8.8 g/m*3 9.28 C 0 km/h
2340 13-11-2014 02:00:00 9.20833 C 8.76 g/m*3 9.21 C 0 km/h
2341 13-11-2014 03:00:00 9.3 C 8.81 g/m*3 9.3 C 0 km/h
2342 13-11-2014 04:00:00 9.10833 C 8.7 g/m*3 9.11 C 0 km/h
2343 13-11-2014 05:00:00 9.00833 C 8.65 g/m*3 9.01 C 1.46667 km/h
2344 13-11-2014 06:00:00 8.975 C 8.64 g/m*3 8.98 C 4.40833 km/h
2345 13-11-2014 07:00:00 8.75 C 8.5 g/m*3 8.75 C 1.46667 km/h
2346 13-11-2014 08:00:00 8.28333 C 8.25 g/m*3 8.28 C 3.06667 km/h
2347 13-11-2014 09:00:00 8.46667 C 8.35 g/m*3 8.47 C 3.88333 km/h
2348 13-11-2014 10:00:00 8.44167 C 8.34 g/m*3 7.32 C 7.4 km/h
2349 13-11-2014 11:00:00 8.88333 C 8.56 g/m*3 8.88 C 3.74167 km/h
2350 13-11-2014 12:00:00 9.79167 C 8.95 g/m*3 9.79 C 2.53333 km/h
Sensor: Nr:Datum:Temp:Abs-Feuchte:Windchill:Wind:
Aussen-T/F 2351 13-11-2014 13:00:00 10.36667 C 9.15 g/m*3 10.37 C 0.8 km/h
2352 13-11-2014 14:00:00 10.775 C 9.29 g/m*3 10.78 C 1.6 km/h
2353 13-11-2014 15:00:00 10.8 C 9.29 g/m*3 10.8 C 1.2 km/h
2354 13-11-2014 16:00:00 10.63333 C 9.26 g/m*3 10.63 C 0 km/h
2355 13-11-2014 17:00:00 10.31667 C 9.23 g/m*3 10.32 C 0.8 km/h
2356 13-11-2014 18:00:00 10.3 C 9.28 g/m*3 10.3 C 0.26667 km/h
2357 13-11-2014 19:00:00 10.3 C 9.29 g/m*3 10.3 C 0 km/h
2358 13-11-2014 20:00:00 10.4 C 9.26 g/m*3 10.4 C 0.53333 km/h
2359 13-11-2014 21:00:00 10.525 C 9.19 g/m*3 10.53 C 1.73333 km/h
2360 13-11-2014 22:00:00 10.54167 C 9.1 g/m*3 10.54 C 0.8 km/h
2361 13-11-2014 23:00:00 10.19167 C 9.07 g/m*3 10.19 C 0.4 km/h
2362 14-11-2014 00:00:00 10.09167 C 9.03 g/m*3 10.09 C 1.06667 km/h
2363 14-11-2014 01:00:00 10.13333 C 8.89 g/m*3 10.13 C 0.93333 km/h
2364 14-11-2014 02:00:00 9.925 C 8.78 g/m*3 9.93 C 1.06667 km/h
2365 14-11-2014 03:00:00 9.9 C 8.7 g/m*3 9.9 C 1.46667 km/h
2366 14-11-2014 04:00:00 9.85833 C 8.58 g/m*3 9.86 C 0.66667 km/h
2367 14-11-2014 05:00:00 9.59167 C 8.6 g/m*3 9.59 C 0 km/h
2368 14-11-2014 06:00:00 9.41667 C 8.54 g/m*3 9.42 C 0 km/h
2369 14-11-2014 07:00:00 9.39167 C 8.59 g/m*3 9.39 C 0.66667 km/h
2370 14-11-2014 08:00:00 9.68333 C 8.78 g/m*3 9.68 C 0 km/h
2371 14-11-2014 09:00:00 10.10833 C 8.96 g/m*3 10.11 C 0 km/h
2372 14-11-2014 10:00:00 10.975 C 9.05 g/m*3 10.98 C 0.4 km/h
2373 14-11-2014 11:00:00 11.925 C 9.1 g/m*3 11.93 C 3.475 km/h
2374 14-11-2014 12:00:00 12.4 C 8.88 g/m*3 12.4 C 6.45 km/h
2375 14-11-2014 13:00:00 12.675 C 8.88 g/m*3 12.68 C 6.30833 km/h
Sensor: Nr:Datum:Temp:Abs-Feuchte:Windchill:Wind:
Aussen-T/F 2376 14-11-2014 14:00:00 12.55 C 8.99 g/m*3 12.55 C 3.74167 km/h
2377 14-11-2014 15:00:00 12.08333 C 8.87 g/m*3 12.08 C 2.93333 km/h
2378 14-11-2014 16:00:00 11.11667 C 8.78 g/m*3 11.12 C 2.40833 km/h
2379 14-11-2014 17:00:00 10.225 C 8.59 g/m*3 10.23 C 2.40833 km/h
2380 14-11-2014 18:00:00 10.175 C 8.62 g/m*3 10.18 C 3.20833 km/h
2381 14-11-2014 19:00:00 10.76667 C 8.7 g/m*3 10.6 C 5.08333 km/h
2382 14-11-2014 20:00:00 10.63333 C 8.62 g/m*3 10.45 C 5.09167 km/h
2383 14-11-2014 21:00:00 10.40833 C 8.6 g/m*3 10.41 C 4.68333 km/h
2384 14-11-2014 22:00:00 10.50833 C 8.72 g/m*3 10.16 C 5.6 km/h
2385 14-11-2014 23:00:00 9.9 C 8.75 g/m*3 9.9 C 1.06667 km/h
2386 15-11-2014 00:00:00 9.38333 C 8.67 g/m*3 9.38 C 0.4 km/h
2387 15-11-2014 01:00:00 8.75 C 8.39 g/m*3 8.75 C 2.4 km/h
2388 15-11-2014 02:00:00 8.10833 C 8.08 g/m*3 8.11 C 1.73333 km/h
2389 15-11-2014 03:00:00 7.86667 C 7.99 g/m*3 7.87 C 0.66667 km/h
2390 15-11-2014 04:00:00 8.1 C 8.15 g/m*3 8.1 C 1.06667 km/h
2391 15-11-2014 05:00:00 8.19167 C 8.2 g/m*3 8.19 C 1.86667 km/h
2392 15-11-2014 06:00:00 8.3 C 8.26 g/m*3 8.3 C 2 km/h
2393 15-11-2014 07:00:00 8.575 C 8.32 g/m*3 8.57 C 1.73333 km/h
2394 15-11-2014 08:00:00 8.75 C 8.42 g/m*3 8.75 C 0.93333 km/h
2395 15-11-2014 09:00:00 9.24167 C 8.57 g/m*3 9.24 C 1.73333 km/h
2396 15-11-2014 10:00:00 10.06667 C 8.59 g/m*3 9.69 C 5.48333 km/h
2397 15-11-2014 11:00:00 10.35 C 8.87 g/m*3 10.35 C 3.06667 km/h
2398 15-11-2014 12:00:00 10.75833 C 8.93 g/m*3 10.76 C 3.74167 km/h
2399 15-11-2014 13:00:00 11.30833 C 9.11 g/m*3 11.31 C 3.46667 km/h
2400 15-11-2014 14:00:00 11.65 C 9.25 g/m*3 11.65 C 3.34167 km/h
Sensor: Nr:Datum:Temp:Abs-Feuchte:Windchill:Wind:
Aussen-T/F 2401 15-11-2014 15:00:00 11.50833 C 9.26 g/m*3 11.51 C 2.13333 km/h
2402 15-11-2014 16:00:00 11.1 C 9.28 g/m*3 11.1 C 0.53333 km/h
2403 15-11-2014 17:00:00 10.95 C 9.13 g/m*3 10.95 C 2.13333 km/h
2404 15-11-2014 18:00:00 10.775 C 9.17 g/m*3 10.78 C 0.8 km/h
2405 15-11-2014 19:00:00 10.35833 C 9.13 g/m*3 10.36 C 0.26667 km/h
2406 15-11-2014 20:00:00 10.325 C 9.11 g/m*3 10.33 C 0.13333 km/h
2407 15-11-2014 21:00:00 10.26667 C 9.17 g/m*3 10.27 C 0.26667 km/h
2408 15-11-2014 22:00:00 9.99167 C 9.11 g/m*3 9.99 C 0.8 km/h
2409 15-11-2014 23:00:00 9.55 C 8.86 g/m*3 9.55 C 0.93333 km/h
2410 16-11-2014 00:00:00 9.325 C 8.8 g/m*3 9.32 C 0.13333 km/h
2411 16-11-2014 01:00:00 9.28333 C 8.8 g/m*3 9.28 C 0.13333 km/h
2412 16-11-2014 02:00:00 9.18333 C 8.74 g/m*3 9.18 C 0.13333 km/h
2413 16-11-2014 03:00:00 8.9 C 8.58 g/m*3 8.9 C 0.13333 km/h
2414 16-11-2014 04:00:00 8.8 C 8.53 g/m*3 8.8 C 2.13333 km/h
2415 16-11-2014 05:00:00 8.725 C 8.42 g/m*3 8.73 C 2.53333 km/h
2416 16-11-2014 06:00:00 8.65833 C 8.37 g/m*3 8.66 C 2.26667 km/h
2417 16-11-2014 07:00:00 8.46667 C 8.26 g/m*3 8.47 C 2.53333 km/h
2418 16-11-2014 08:00:00 8.25 C 8.15 g/m*3 8.25 C 1.06667 km/h
2419 16-11-2014 09:00:00 8.3 C 8.18 g/m*3 8.3 C 0.66667 km/h
2420 16-11-2014 10:00:00 8.43333 C 8.25 g/m*3 8.43 C 0.4 km/h
2421 16-11-2014 11:00:00 8.8 C 8.44 g/m*3 8.8 C 0.13333 km/h
2422 16-11-2014 12:00:00 9.14167 C 8.63 g/m*3 9.14 C 0 km/h
2423 16-11-2014 13:00:00 9.34167 C 8.74 g/m*3 9.34 C 0.53333 km/h
2424 16-11-2014 14:00:00 9.73333 C 8.89 g/m*3 9.73 C 0 km/h
2425 16-11-2014 15:00:00 9.9875 C 9.07 g/m*3 9.99 C 0 km/h
Sensor: Nr:Datum:Temp:Abs-Feuchte:Windchill:Wind:
Aussen-T/F 2426 16-11-2014 16:00:00 9.21 C 8.67 g/m*3 9.21 C 0 km/h
2427 16-11-2014 17:00:00 8.60833 C 8.39 g/m*3 8.61 C 0 km/h
2428 16-11-2014 18:00:00 8.775 C 8.52 g/m*3 8.78 C 0 km/h
2429 16-11-2014 19:00:00 8.7 C 8.48 g/m*3 8.7 C 0 km/h
2430 16-11-2014 20:00:00 8.56667 C 8.4 g/m*3 8.57 C 0 km/h
2431 16-11-2014 21:00:00 8.28333 C 8.25 g/m*3 8.28 C 0 km/h
2432 16-11-2014 22:00:00 8.075 C 8.14 g/m*3 8.07 C 0 km/h
2433 16-11-2014 23:00:00 7.1 C 7.64 g/m*3 7.1 C 0 km/h
2434 17-11-2014 00:00:00 7.6 C 7.94 g/m*3 7.6 C 0 km/h
2435 17-11-2014 01:00:00 7.80833 C 8.02 g/m*3 7.81 C 1.2 km/h
2436 17-11-2014 02:00:00 8.08333 C 8.15 g/m*3 8.08 C 2.93333 km/h
2437 17-11-2014 03:00:00 8.39167 C 8.36 g/m*3 8.39 C 1.06667 km/h
2438 17-11-2014 04:00:00 8.45 C 8.34 g/m*3 8.45 C 1.6 km/h
2439 17-11-2014 05:00:00 8.225 C 8.22 g/m*3 8.23 C 2 km/h
2440 17-11-2014 06:00:00 8.21667 C 8.22 g/m*3 8.22 C 1.73333 km/h
2441 17-11-2014 07:00:00 8.19167 C 8.2 g/m*3 8.19 C 0.93333 km/h
2442 17-11-2014 08:00:00 8.06667 C 8.14 g/m*3 8.07 C 1.06667 km/h
2443 17-11-2014 09:00:00 8.25833 C 8.24 g/m*3 8.26 C 0.66667 km/h
2444 17-11-2014 10:00:00 8.8 C 8.53 g/m*3 8.8 C 0.4 km/h
2445 17-11-2014 11:00:00 9.43333 C 8.84 g/m*3 9.43 C 0.8 km/h
2446 17-11-2014 12:00:00 10.025 C 9.05 g/m*3 10.03 C 0.8 km/h
2447 17-11-2014 13:00:00 9.93333 C 8.97 g/m*3 9.93 C 0.13333 km/h
2448 17-11-2014 14:00:00 10.43333 C 9.12 g/m*3 10.43 C 0.13333 km/h
2449 17-11-2014 15:00:00 10.175 C 9.14 g/m*3 10.18 C 0.26667 km/h
2450 17-11-2014 16:00:00 9.50833 C 8.83 g/m*3 9.51 C 3.6 km/h
Sensor: Nr:Datum:Temp:Abs-Feuchte:Windchill:Wind:
Aussen-T/F 2451 17-11-2014 17:00:00 8.75 C 8.44 g/m*3 8.75 C 4.53333 km/h
2452 17-11-2014 18:00:00 8.66667 C 8.46 g/m*3 8.67 C 3.06667 km/h
2453 17-11-2014 19:00:00 8.30833 C 8.26 g/m*3 8.31 C 2.53333 km/h
2454 17-11-2014 20:00:00 8.44167 C 8.34 g/m*3 8.44 C 2.26667 km/h
2455 17-11-2014 21:00:00 8.48333 C 8.36 g/m*3 8.48 C 0.93333 km/h
2456 17-11-2014 22:00:00 8.50833 C 8.37 g/m*3 8.51 C 0.26667 km/h
2457 17-11-2014 23:00:00 8.31667 C 8.27 g/m*3 8.32 C 1.06667 km/h
2458 18-11-2014 00:00:00 8.15 C 8.18 g/m*3 8.15 C 1.46667 km/h
2459 18-11-2014 01:00:00 7.95833 C 8.08 g/m*3 7.96 C 1.2 km/h
2460 18-11-2014 02:00:00 7.6 C 7.9 g/m*3 7.6 C 1.73333 km/h
2461 18-11-2014 03:00:00 7.75833 C 7.98 g/m*3 7.76 C 0 km/h
2462 18-11-2014 04:00:00 7.8 C 8 g/m*3 7.8 C 0 km/h
2463 18-11-2014 05:00:00 7.775 C 7.99 g/m*3 7.78 C 0 km/h
2464 18-11-2014 06:00:00 7.71667 C 7.95 g/m*3 7.72 C 0 km/h
2465 18-11-2014 07:00:00 7.76667 C 7.98 g/m*3 7.77 C 0 km/h
2466 18-11-2014 08:00:00 7.90833 C 8.05 g/m*3 7.91 C 0 km/h
2467 18-11-2014 09:00:00 8.19167 C 8.2 g/m*3 8.19 C 0 km/h
2468 18-11-2014 10:00:00 8.40833 C 8.32 g/m*3 8.41 C 0 km/h
2469 18-11-2014 11:00:00 8.675 C 8.45 g/m*3 8.68 C 0 km/h
2470 18-11-2014 12:00:00 9.275 C 8.64 g/m*3 9.28 C 0.26667 km/h
2471 18-11-2014 13:00:00 9.74167 C 8.63 g/m*3 9.74 C 0.26667 km/h
2472 18-11-2014 14:00:00 10.07143 C 8.67 g/m*3 10.07 C 0.22857 km/h
2473 18-11-2014 15:00:00 9.8 C 8.67 g/m*3 9.8 C 0.96 km/h
2474 18-11-2014 16:00:00 9.75 C 8.59 g/m*3 9.75 C 3.06667 km/h
2475 18-11-2014 17:00:00 9.6 C 8.53 g/m*3 9.6 C 3.46667 km/h
Sensor: Nr:Datum:Temp:Abs-Feuchte:Windchill:Wind:
Aussen-T/F 2476 18-11-2014 18:00:00 9.35 C 8.53 g/m*3 9.35 C 2.53333 km/h
2477 18-11-2014 19:00:00 9.05 C 8.56 g/m*3 9.05 C 0.93333 km/h
2478 18-11-2014 20:00:00 8.925 C 8.52 g/m*3 8.93 C 1.46667 km/h
2479 18-11-2014 21:00:00 8.9 C 8.58 g/m*3 8.9 C 0 km/h
2480 18-11-2014 22:00:00 8.83333 C 8.55 g/m*3 8.83 C 0 km/h
2481 18-11-2014 23:00:00 8.79167 C 8.53 g/m*3 8.79 C 0 km/h
2482 19-11-2014 00:00:00 8.64167 C 8.44 g/m*3 8.64 C 0 km/h
2483 19-11-2014 01:00:00 8.525 C 8.38 g/m*3 8.53 C 0.26667 km/h
2484 19-11-2014 02:00:00 8.4 C 8.31 g/m*3 8.4 C 0 km/h
2485 19-11-2014 03:00:00 8.31667 C 8.27 g/m*3 8.32 C 0 km/h
2486 19-11-2014 04:00:00 8.26667 C 8.24 g/m*3 8.27 C 0.26667 km/h
2487 19-11-2014 05:00:00 8.25 C 8.23 g/m*3 8.25 C 0.13333 km/h
2488 19-11-2014 06:00:00 8.05 C 8.14 g/m*3 8.05 C 1.6 km/h
2489 19-11-2014 07:00:00 8.1 C 8.2 g/m*3 8.1 C 0.26667 km/h
2490 19-11-2014 08:00:00 8.11667 C 8.18 g/m*3 8.12 C 0.13333 km/h
2491 19-11-2014 09:00:00 8.45833 C 8.41 g/m*3 8.46 C 0 km/h
2492 19-11-2014 10:00:00 8.7 C 8.35 g/m*3 8.7 C 0.26667 km/h
2493 19-11-2014 11:00:00 9.46667 C 8.19 g/m*3 9.47 C 0.13333 km/h
2494 19-11-2014 12:00:00 9.99167 C 8.37 g/m*3 9.99 C 3.73333 km/h
2495 19-11-2014 13:00:00 10.175 C 8.28 g/m*3 10.18 C 2.13333 km/h
2496 19-11-2014 14:00:00 10.1 C 8.41 g/m*3 10.1 C 2.13333 km/h
2497 19-11-2014 15:00:00 8.95833 C 8.28 g/m*3 8.96 C 2.93333 km/h
2498 19-11-2014 16:00:00 8.36667 C 8.04 g/m*3 8.37 C 4.4 km/h
2499 19-11-2014 17:00:00 7.45833 C 7.66 g/m*3 7.46 C 4 km/h
2500 19-11-2014 18:00:00 6.76667 C 7.36 g/m*3 6.77 C 0.4 km/h
Sensor: Nr:Datum:Temp:Abs-Feuchte:Windchill:Wind:
Aussen-T/F 2501 19-11-2014 19:00:00 6.525 C 7.31 g/m*3 6.53 C 0 km/h
2502 19-11-2014 20:00:00 6.8 C 7.49 g/m*3 6.8 C 0 km/h
2503 19-11-2014 21:00:00 6.41667 C 7.26 g/m*3 6.42 C 0 km/h
2504 19-11-2014 22:00:00 5.575 C 6.87 g/m*3 5.58 C 0 km/h
2505 19-11-2014 23:00:00 5.36667 C 6.82 g/m*3 5.37 C 0 km/h
2506 20-11-2014 00:00:00 5.70833 C 6.98 g/m*3 5.71 C 0.26667 km/h
2507 20-11-2014 01:00:00 5.625 C 6.94 g/m*3 5.63 C 1.2 km/h
2508 20-11-2014 02:00:00 5.21667 C 6.76 g/m*3 5.22 C 0.26667 km/h
2509 20-11-2014 03:00:00 5.05 C 6.68 g/m*3 5.05 C 0.4 km/h
2510 20-11-2014 04:00:00 5.225 C 6.76 g/m*3 5.23 C 0.13333 km/h
2511 20-11-2014 05:00:00 5.3 C 6.79 g/m*3 5.3 C 0 km/h
2512 20-11-2014 06:00:00 5.38333 C 6.84 g/m*3 5.38 C 0.26667 km/h
2513 20-11-2014 07:00:00 5.31667 C 6.8 g/m*3 5.32 C 0.53333 km/h
2514 20-11-2014 08:00:00 5.40833 C 6.84 g/m*3 5.41 C 0.4 km/h
2515 20-11-2014 09:00:00 5.56667 C 6.92 g/m*3 5.57 C 2.66667 km/h
2516 20-11-2014 10:00:00 6.1 C 7.2 g/m*3 6.1 C 0.93333 km/h
2517 20-11-2014 11:00:00 6.95833 C 7.51 g/m*3 6.96 C 1.73333 km/h
2518 20-11-2014 12:00:00 8.08333 C 7.67 g/m*3 8.08 C 2.93333 km/h
2519 20-11-2014 13:00:00 8.325 C 7.47 g/m*3 8.32 C 4.69167 km/h
2520 20-11-2014 14:00:00 8.14167 C 7.31 g/m*3 8.14 C 2.93333 km/h
2521 20-11-2014 15:00:00 7.95 C 7.19 g/m*3 7.95 C 3.2 km/h
2522 20-11-2014 16:00:00 7.74167 C 7.26 g/m*3 7.74 C 0.93333 km/h
2523 20-11-2014 17:00:00 7.31667 C 7.2 g/m*3 7.32 C 0.8 km/h
2524 20-11-2014 18:00:00 6.85833 C 7.15 g/m*3 6.86 C 0.53333 km/h
2525 20-11-2014 19:00:00 6.96667 C 7.2 g/m*3 6.97 C 0.13333 km/h
Sensor: Nr:Datum:Temp:Abs-Feuchte:Windchill:Wind:
Aussen-T/F 2526 20-11-2014 20:00:00 6.99167 C 7.13 g/m*3 6.99 C 0.13333 km/h
2527 20-11-2014 21:00:00 7 C 7.06 g/m*3 7 C 0.8 km/h
2528 20-11-2014 22:00:00 6.36667 C 6.89 g/m*3 6.37 C 1.6 km/h
2529 20-11-2014 23:00:00 6.31667 C 6.93 g/m*3 6.32 C 0.4 km/h
2530 21-11-2014 00:00:00 6.23333 C 6.92 g/m*3 6.23 C 0 km/h
2531 21-11-2014 01:00:00 6.075 C 6.83 g/m*3 6.08 C 0.26667 km/h
2532 21-11-2014 02:00:00 6.06667 C 6.85 g/m*3 6.07 C 0 km/h
2533 21-11-2014 03:00:00 5.55833 C 6.62 g/m*3 5.56 C 0.8 km/h
2534 21-11-2014 04:00:00 4.81667 C 6.35 g/m*3 4.82 C 3.73333 km/h
2535 21-11-2014 05:00:00 3.925 C 6.06 g/m*3 3.93 C 3.6 km/h
2536 21-11-2014 06:00:00 3.39167 C 5.89 g/m*3 3.39 C 2.13333 km/h
2537 21-11-2014 07:00:00 3.05833 C 5.79 g/m*3 3.06 C 2.26667 km/h
2538 21-11-2014 08:00:00 2.81667 C 5.7 g/m*3 2.82 C 0.26667 km/h
2539 21-11-2014 09:00:00 3.05 C 5.84 g/m*3 3.05 C 0 km/h
2540 21-11-2014 10:00:00 3.56667 C 6.05 g/m*3 3.57 C 2.53333 km/h
2541 21-11-2014 11:00:00 4.38333 C 6.39 g/m*3 4.38 C 3.33333 km/h
2542 21-11-2014 12:00:00 5.44167 C 6.86 g/m*3 5.44 C 2.8 km/h
2543 21-11-2014 13:00:00 6.16667 C 7.07 g/m*3 6.17 C 3.6 km/h
2544 21-11-2014 14:00:00 6.70833 C 7.23 g/m*3 6.71 C 4.8 km/h
2545 21-11-2014 15:00:00 6.725 C 7.21 g/m*3 6.73 C 4.4 km/h
2546 21-11-2014 16:00:00 7.25833 C 7.49 g/m*3 7.26 C 2.26667 km/h
2547 21-11-2014 17:00:00 7.4 C 7.48 g/m*3 7.4 C 0.8 km/h
2548 21-11-2014 18:00:00 7.55 C 7.35 g/m*3 7.55 C 2 km/h
2549 21-11-2014 19:00:00 7.76667 C 7.29 g/m*3 7.77 C 1.33333 km/h
2550 21-11-2014 20:00:00 6.35 C 6.83 g/m*3 6.35 C 2.4 km/h
Sensor: Nr:Datum:Temp:Abs-Feuchte:Windchill:Wind:
Aussen-T/F 2551 21-11-2014 21:00:00 5.275 C 6.53 g/m*3 5.28 C 3.2 km/h
2552 21-11-2014 22:00:00 4.775 C 6.38 g/m*3 4.78 C 2.8 km/h
2553 21-11-2014 23:00:00 4.39167 C 6.27 g/m*3 4.39 C 1.73333 km/h
2554 22-11-2014 00:00:00 3.98333 C 6.11 g/m*3 3.98 C 2 km/h
2555 22-11-2014 01:00:00 3.825 C 6.1 g/m*3 3.83 C 0.66667 km/h
2556 22-11-2014 02:00:00 3.49167 C 5.96 g/m*3 3.49 C 1.46667 km/h
2557 22-11-2014 03:00:00 3.14167 C 5.82 g/m*3 3.14 C 0.13333 km/h
2558 22-11-2014 04:00:00 3.05833 C 5.81 g/m*3 3.06 C 1.86667 km/h
2559 22-11-2014 05:00:00 3.11667 C 5.87 g/m*3 3.12 C 0.53333 km/h
2560 22-11-2014 06:00:00 3.475 C 6.02 g/m*3 3.48 C 0.53333 km/h
2561 22-11-2014 07:00:00 3.475 C 6.02 g/m*3 3.48 C 0.53333 km/h
2562 22-11-2014 08:00:00 4.23333 C 6.33 g/m*3 4.23 C 1.33333 km/h
2563 22-11-2014 09:00:00 5.36667 C 6.79 g/m*3 5.37 C 1.86667 km/h
2564 22-11-2014 10:00:00 6.525 C 7.18 g/m*3 6.53 C 0.26667 km/h
2565 22-11-2014 11:00:00 6.96667 C 7.33 g/m*3 6.97 C 1.2 km/h
2566 22-11-2014 12:00:00 7.68333 C 7.78 g/m*3 7.68 C 2.13333 km/h
2567 22-11-2014 13:00:00 8.9 C 8.34 g/m*3 8.9 C 1.46667 km/h
2568 22-11-2014 14:00:00 10.44167 C 8.76 g/m*3 10.44 C 1.06667 km/h
2569 22-11-2014 15:00:00 10.25833 C 8.5 g/m*3 10.26 C 2.53333 km/h
2570 22-11-2014 16:00:00 8.8 C 7.91 g/m*3 8.8 C 3.34167 km/h
2571 22-11-2014 17:00:00 7.41667 C 7.52 g/m*3 7.42 C 2.13333 km/h
2572 22-11-2014 18:00:00 7.26667 C 7.46 g/m*3 7.27 C 2.675 km/h
2573 22-11-2014 19:00:00 6.53333 C 7.16 g/m*3 6.53 C 1.46667 km/h
2574 22-11-2014 20:00:00 5.96667 C 6.96 g/m*3 5.97 C 1.46667 km/h
2575 22-11-2014 21:00:00 5.53333 C 6.8 g/m*3 5.53 C 2.66667 km/h
Sensor: Nr:Datum:Temp:Abs-Feuchte:Windchill:Wind:
Aussen-T/F 2576 22-11-2014 22:00:00 5.30833 C 6.73 g/m*3 5.31 C 2 km/h
2577 22-11-2014 23:00:00 5.29167 C 6.77 g/m*3 5.29 C 2.26667 km/h
2578 23-11-2014 00:00:00 5.20833 C 6.73 g/m*3 5.21 C 0.93333 km/h
2579 23-11-2014 01:00:00 4.975 C 6.65 g/m*3 4.97 C 0.4 km/h
2580 23-11-2014 02:00:00 4.875 C 6.6 g/m*3 4.88 C 0 km/h
2581 23-11-2014 03:00:00 4.53333 C 6.46 g/m*3 4.53 C 0.4 km/h
2582 23-11-2014 04:00:00 4.31667 C 6.36 g/m*3 4.32 C 0 km/h
2583 23-11-2014 05:00:00 4.31667 C 6.36 g/m*3 4.32 C 0.4 km/h
2584 23-11-2014 06:00:00 4.50833 C 6.47 g/m*3 4.51 C 0 km/h
2585 23-11-2014 07:00:00 5.19167 C 6.79 g/m*3 5.19 C 1.2 km/h
2586 23-11-2014 08:00:00 5.325 C 6.86 g/m*3 5.33 C 0.66667 km/h
2587 23-11-2014 09:00:00 5.575 C 6.98 g/m*3 5.58 C 0.13333 km/h
2588 23-11-2014 10:00:00 6.45 C 7.4 g/m*3 6.45 C 1.06667 km/h
2589 23-11-2014 11:00:00 6.71667 C 7.45 g/m*3 6.72 C 1.6 km/h
2590 23-11-2014 12:00:00 7.18333 C 7.65 g/m*3 7.18 C 1.06667 km/h
2591 23-11-2014 13:00:00 8.08333 C 7.92 g/m*3 8.08 C 2.53333 km/h
2592 23-11-2014 14:00:00 8.34167 C 7.93 g/m*3 8.34 C 1.2 km/h
2593 23-11-2014 15:00:00 8.25833 C 7.94 g/m*3 8.26 C 0.93333 km/h
2594 23-11-2014 16:00:00 7.55 C 7.59 g/m*3 7.55 C 0.53333 km/h
2595 23-11-2014 17:00:00 6.48333 C 7.19 g/m*3 6.48 C 2.40833 km/h
2596 23-11-2014 18:00:00 7.08333 C 7.35 g/m*3 7.08 C 4.01667 km/h
2597 23-11-2014 19:00:00 6.725 C 7.28 g/m*3 6.73 C 1.73333 km/h
2598 23-11-2014 20:00:00 7.14167 C 7.53 g/m*3 7.14 C 0.53333 km/h
2599 23-11-2014 21:00:00 7.28333 C 7.61 g/m*3 7.28 C 1.6 km/h
2600 23-11-2014 22:00:00 7.49167 C 7.76 g/m*3 7.49 C 1.2 km/h
Sensor: Nr:Datum:Temp:Abs-Feuchte:Windchill:Wind:
Aussen-T/F 2601 23-11-2014 23:00:00 7.60833 C 7.82 g/m*3 7.61 C 0.53333 km/h
2602 24-11-2014 00:00:00 7.6 C 7.81 g/m*3 7.6 C 0 km/h
2603 24-11-2014 01:00:00 7.63333 C 7.83 g/m*3 7.63 C 0.8 km/h
2604 24-11-2014 02:00:00 7.93333 C 7.98 g/m*3 7.93 C 0.4 km/h
2605 24-11-2014 03:00:00 7.90833 C 7.97 g/m*3 7.91 C 0 km/h
2606 24-11-2014 04:00:00 7.95 C 7.99 g/m*3 7.95 C 1.06667 km/h
2607 24-11-2014 05:00:00 8.19167 C 8.05 g/m*3 8.19 C 2.8 km/h
2608 24-11-2014 06:00:00 9.36667 C 8.75 g/m*3 9.37 C 2.93333 km/h
2609 24-11-2014 07:00:00 9.775 C 8.94 g/m*3 9.78 C 4.41667 km/h
2610 24-11-2014 08:00:00 9.85 C 8.78 g/m*3 9.4 C 5.64167 km/h
2611 24-11-2014 09:00:00 9.675 C 8.76 g/m*3 9.68 C 3.2 km/h
2612 24-11-2014 10:00:00 9.70833 C 8.76 g/m*3 9.71 C 3.35833 km/h
2613 24-11-2014 11:00:00 9.83333 C 8.69 g/m*3 9.83 C 2.80833 km/h
2614 24-11-2014 12:00:00 10.025 C 8.49 g/m*3 9.76 C 5.09167 km/h
2615 24-11-2014 13:00:00 9.99167 C 8.03 g/m*3 8.9 C 8.46667 km/h
2616 24-11-2014 14:00:00 10.2 C 7.87 g/m*3 9 C 9.275 km/h
2617 24-11-2014 15:00:00 9.6 C 7.58 g/m*3 9.6 C 3.54 km/h
2618 24-11-2014 16:00:00 6.35 C 6.98 g/m*3 5.4 C 5.6 km/h
2619 24-11-2014 17:00:00 5.85 C 6.82 g/m*3 5.85 C 3.6 km/h
2620 24-11-2014 18:00:00 5.04167 C 6.53 g/m*3 5.04 C 0.66667 km/h
2621 24-11-2014 19:00:00 4.16667 C 6.2 g/m*3 4.17 C 0 km/h
2622 24-11-2014 20:00:00 3.53333 C 5.98 g/m*3 3.53 C 0 km/h
2623 24-11-2014 21:00:00 2.81667 C 5.7 g/m*3 2.82 C 0 km/h
2624 24-11-2014 22:00:00 2.29167 C 5.5 g/m*3 2.29 C 0.13333 km/h
2625 24-11-2014 23:00:00 1.96667 C 5.41 g/m*3 1.97 C 0.26667 km/h
Sensor: Nr:Datum:Temp:Abs-Feuchte:Windchill:Wind:
Aussen-T/F 2626 25-11-2014 00:00:00 1.86667 C 5.4 g/m*3 1.87 C 0.4 km/h
2627 25-11-2014 01:00:00 2.06667 C 5.47 g/m*3 2.07 C 0 km/h
2628 25-11-2014 02:00:00 1.86667 C 5.4 g/m*3 1.87 C 0.26667 km/h
2629 25-11-2014 03:00:00 1.76667 C 5.36 g/m*3 1.77 C 1.2 km/h
2630 25-11-2014 04:00:00 1.55833 C 5.29 g/m*3 1.56 C 0.13333 km/h
2631 25-11-2014 05:00:00 2.1 C 5.5 g/m*3 2.1 C 0.66667 km/h
2632 25-11-2014 06:00:00 2.25 C 5.55 g/m*3 2.25 C 0.66667 km/h
2633 25-11-2014 07:00:00 2.21667 C 5.56 g/m*3 2.22 C 0.4 km/h
2634 25-11-2014 08:00:00 2.175 C 5.53 g/m*3 2.17 C 0 km/h
2635 25-11-2014 09:00:00 2.475 C 5.68 g/m*3 2.48 C 1.33333 km/h
2636 25-11-2014 10:00:00 2.875 C 5.84 g/m*3 2.88 C 2.2 km/h
2637 25-11-2014 11:00:00 3.45833 C 6.05 g/m*3 3.46 C 1.33333 km/h
2638 25-11-2014 12:00:00 3.53333 C 6.04 g/m*3 3.53 C 1.06667 km/h
2639 25-11-2014 13:00:00 3.54167 C 6.04 g/m*3 3.54 C 0.26667 km/h
2640 25-11-2014 14:00:00 3.95556 C 6.21 g/m*3 3.96 C 3.02222 km/h
2641 25-11-2014 15:00:00 4.2 C 6.31 g/m*3 4.2 C 3.2 km/h
2642 25-11-2014 17:00:00 3.4 C 5.92 g/m*3 3.4 C 4.4 km/h
2643 25-11-2014 18:00:00 3.25 C 5.86 g/m*3 3.25 C 4 km/h
2644 25-11-2014 19:00:00 3.35 C 5.96 g/m*3 3.35 C 2.66667 km/h
2645 25-11-2014 20:00:00 4.14167 C 6.29 g/m*3 4.14 C 1.2 km/h
2646 25-11-2014 21:00:00 4.825 C 6.53 g/m*3 4.83 C 1.2 km/h
2647 25-11-2014 22:00:00 5.2 C 6.64 g/m*3 5.2 C 0.53333 km/h
2648 25-11-2014 23:00:00 5.39167 C 6.49 g/m*3 5.39 C 4.68333 km/h
2649 26-11-2014 00:00:00 5.36667 C 6.33 g/m*3 5.37 C 4 km/h
2650 26-11-2014 01:00:00 5.21667 C 6.27 g/m*3 5.22 C 2.93333 km/h
Sensor: Nr:Datum:Temp:Abs-Feuchte:Windchill:Wind:
Aussen-T/F 2651 26-11-2014 02:00:00 4.88333 C 6.14 g/m*3 4.88 C 2 km/h
2652 26-11-2014 03:00:00 4.73333 C 6.04 g/m*3 4.73 C 2.4 km/h
2653 26-11-2014 04:00:00 4.6 C 5.96 g/m*3 3.6 C 5.08333 km/h
2654 26-11-2014 05:00:00 4.40833 C 5.89 g/m*3 4.41 C 1.73333 km/h
2655 26-11-2014 06:00:00 4.35833 C 5.9 g/m*3 4.36 C 0.53333 km/h
2656 26-11-2014 07:00:00 4.35833 C 5.88 g/m*3 4.36 C 0.93333 km/h
2657 26-11-2014 08:00:00 4.4 C 5.88 g/m*3 4.4 C 2 km/h
2658 26-11-2014 09:00:00 4.57143 C 5.87 g/m*3 4.57 C 3.42857 km/h
2659 26-11-2014 11:00:00 5.7 C 6.03 g/m*3 5.7 C 2.88 km/h
2660 26-11-2014 12:00:00 5.66667 C 6.22 g/m*3 5.67 C 2.53333 km/h
2661 26-11-2014 13:00:00 5.875 C 6.41 g/m*3 5.88 C 3.6 km/h
2662 26-11-2014 14:00:00 5.96667 C 6.42 g/m*3 5.97 C 2.53333 km/h
2663 26-11-2014 15:00:00 6.15 C 6.46 g/m*3 6.15 C 3.46667 km/h
2664 26-11-2014 16:00:00 5.94167 C 6.4 g/m*3 5.94 C 1.73333 km/h
2665 26-11-2014 17:00:00 5.85833 C 6.34 g/m*3 5.86 C 2 km/h
2666 26-11-2014 18:00:00 5.75833 C 6.3 g/m*3 5.76 C 0.93333 km/h
2667 26-11-2014 19:00:00 5.7 C 6.35 g/m*3 5.7 C 0.13333 km/h
2668 26-11-2014 20:00:00 5.60833 C 6.35 g/m*3 5.61 C 0 km/h
2669 26-11-2014 21:00:00 5.75 C 6.41 g/m*3 5.75 C 0.26667 km/h
2670 26-11-2014 22:00:00 5.625 C 6.54 g/m*3 5.63 C 0 km/h
2671 26-11-2014 23:00:00 5.3 C 6.58 g/m*3 5.3 C 0 km/h
2672 27-11-2014 00:00:00 5.225 C 6.54 g/m*3 5.23 C 0.26667 km/h
2673 27-11-2014 01:00:00 5.28333 C 6.51 g/m*3 5.28 C 0 km/h
2674 27-11-2014 02:00:00 5.30833 C 6.52 g/m*3 5.31 C 0 km/h
2675 27-11-2014 03:00:00 5.33333 C 6.53 g/m*3 5.33 C 0 km/h
Sensor: Nr:Datum:Temp:Abs-Feuchte:Windchill:Wind:
Aussen-T/F 2676 27-11-2014 04:00:00 5.33333 C 6.51 g/m*3 5.33 C 0 km/h
2677 27-11-2014 05:00:00 5.3 C 6.45 g/m*3 5.3 C 0 km/h
2678 27-11-2014 06:00:00 5.3 C 6.45 g/m*3 5.3 C 0 km/h
2679 27-11-2014 07:00:00 5.14167 C 6.4 g/m*3 5.14 C 0 km/h
2680 27-11-2014 08:00:00 5.26667 C 6.39 g/m*3 5.27 C 0.93333 km/h
2681 27-11-2014 09:00:00 5.71667 C 6.42 g/m*3 5.72 C 2.93333 km/h
2682 27-11-2014 10:00:00 6.08889 C 6.55 g/m*3 6.09 C 1.24444 km/h
2683 27-11-2014 13:00:00 7.4625 C 6.98 g/m*3 7.46 C 1 km/h
2684 27-11-2014 14:00:00 7.50833 C 6.98 g/m*3 7.51 C 3.46667 km/h
2685 27-11-2014 15:00:00 7.275 C 6.95 g/m*3 7.28 C 2.53333 km/h
2686 27-11-2014 16:00:00 6.775 C 7.05 g/m*3 6.78 C 0.8 km/h
2687 27-11-2014 17:00:00 6.3 C 7 g/m*3 6.3 C 1.2 km/h
2688 27-11-2014 18:00:00 6.05 C 6.91 g/m*3 6.05 C 0.8 km/h
2689 27-11-2014 19:00:00 5.825 C 6.82 g/m*3 5.83 C 0.4 km/h
2690 27-11-2014 20:00:00 5.74167 C 6.78 g/m*3 5.74 C 1.06667 km/h
2691 27-11-2014 21:00:00 5.7 C 6.76 g/m*3 5.7 C 0.4 km/h
2692 27-11-2014 22:00:00 5.7 C 6.77 g/m*3 5.7 C 0 km/h
2693 27-11-2014 23:00:00 5.75833 C 6.79 g/m*3 5.76 C 0 km/h
2694 28-11-2014 00:00:00 5.80833 C 6.81 g/m*3 5.81 C 0.13333 km/h
2695 28-11-2014 01:00:00 5.9 C 6.83 g/m*3 5.9 C 0.66667 km/h
2696 28-11-2014 02:00:00 5.675 C 6.61 g/m*3 5.68 C 1.33333 km/h
2697 28-11-2014 03:00:00 4.98333 C 6.37 g/m*3 4.98 C 0.4 km/h
2698 28-11-2014 04:00:00 4.98333 C 6.36 g/m*3 4.98 C 0.93333 km/h
2699 28-11-2014 05:00:00 4.875 C 6.31 g/m*3 4.88 C 0.53333 km/h
2700 28-11-2014 06:00:00 4.75 C 6.27 g/m*3 4.75 C 0.93333 km/h
Sensor: Nr:Datum:Temp:Abs-Feuchte:Windchill:Wind:
Aussen-T/F 2701 28-11-2014 07:00:00 4.86667 C 6.25 g/m*3 4.87 C 1.86667 km/h
2702 28-11-2014 08:00:00 4.96667 C 6.29 g/m*3 4.97 C 2 km/h
2703 28-11-2014 09:00:00 5.6 C 6.46 g/m*3 5.6 C 4.27778 km/h
2704 28-11-2014 10:00:00 6.1 C 6.61 g/m*3 5.3 C 5.09167 km/h
2705 28-11-2014 11:00:00 6.2 C 6.61 g/m*3 6.2 C 4.37273 km/h
2706 28-11-2014 12:00:00 6.5 C 7.5 g/m*3 5.58 C 5.6 km/h
2707 28-11-2014 16:00:00 5.53 C 6.34 g/m*3 5.53 C 4.99 km/h
2708 28-11-2014 17:00:00 5.5 C 6.33 g/m*3 5.5 C 4.675 km/h
2709 28-11-2014 18:00:00 5.45 C 6.32 g/m*3 5.45 C 3.33333 km/h
2710 28-11-2014 19:00:00 5.40833 C 6.29 g/m*3 5.41 C 4 km/h
2711 28-11-2014 20:00:00 5.56667 C 6.35 g/m*3 5.57 C 3.33333 km/h
2712 28-11-2014 21:00:00 5.56667 C 6.35 g/m*3 5.57 C 3.2 km/h
2713 28-11-2014 22:00:00 5.38333 C 6.27 g/m*3 5.38 C 4.4 km/h
2714 28-11-2014 23:00:00 5.275 C 6.21 g/m*3 4.21 C 5.50833 km/h
2715 29-11-2014 00:00:00 5.11667 C 6.16 g/m*3 5.12 C 4.55 km/h
2716 29-11-2014 01:00:00 4.94167 C 6.09 g/m*3 4.94 C 4.95 km/h
2717 29-11-2014 02:00:00 4.75833 C 5.97 g/m*3 3.78 C 5.075 km/h
2718 29-11-2014 03:00:00 4.55 C 5.9 g/m*3 4.55 C 4.675 km/h
2719 29-11-2014 04:00:00 4.43333 C 5.88 g/m*3 4.43 C 1.73333 km/h
2720 29-11-2014 05:00:00 4.375 C 5.8 g/m*3 4.38 C 2.8 km/h
2721 29-11-2014 06:00:00 4.28333 C 5.81 g/m*3 4.28 C 3.06667 km/h
2722 29-11-2014 07:00:00 4.18333 C 5.79 g/m*3 4.18 C 2.53333 km/h
2723 29-11-2014 08:00:00 4.13333 C 5.77 g/m*3 4.13 C 3.55556 km/h
2724 29-11-2014 09:00:00 4.2 C 5.78 g/m*3 4.2 C 4.14167 km/h
2725 29-11-2014 10:00:00 4.23333 C 5.75 g/m*3 3.18 C 5.075 km/h
Sensor: Nr:Datum:Temp:Abs-Feuchte:Windchill:Wind:
Aussen-T/F 2726 29-11-2014 11:00:00 4.41667 C 5.81 g/m*3 4.42 C 4.8 km/h
2727 29-11-2014 12:00:00 4.66667 C 5.86 g/m*3 4.67 C 3.34167 km/h
2728 29-11-2014 13:00:00 4.78333 C 5.89 g/m*3 4.78 C 3.86667 km/h
2729 29-11-2014 14:00:00 4.79167 C 5.9 g/m*3 4.79 C 4.14167 km/h
2730 29-11-2014 15:00:00 4.7 C 5.92 g/m*3 4.7 C 2.66667 km/h
2731 29-11-2014 16:00:00 4.61667 C 5.93 g/m*3 4.62 C 2.13333 km/h
2732 29-11-2014 17:00:00 4.58333 C 5.94 g/m*3 4.58 C 0.8 km/h
2733 29-11-2014 18:00:00 4.45 C 5.84 g/m*3 4.45 C 2.4 km/h
2734 29-11-2014 19:00:00 4.3 C 5.8 g/m*3 4.3 C 2.13333 km/h
2735 29-11-2014 20:00:00 4.25833 C 5.82 g/m*3 4.26 C 3.20833 km/h
2736 29-11-2014 21:00:00 4.175 C 5.79 g/m*3 4.18 C 2.66667 km/h
2737 29-11-2014 22:00:00 4.1 C 5.76 g/m*3 4.1 C 1.86667 km/h
2738 29-11-2014 23:00:00 4.05 C 5.74 g/m*3 4.05 C 2.53333 km/h
2739 30-11-2014 00:00:00 3.9 C 5.68 g/m*3 3.9 C 2 km/h
2740 30-11-2014 01:00:00 3.9 C 5.69 g/m*3 3.9 C 1.73333 km/h
2741 30-11-2014 02:00:00 3.94167 C 5.74 g/m*3 3.94 C 0.8 km/h
2742 30-11-2014 03:00:00 3.975 C 5.78 g/m*3 3.98 C 1.2 km/h
2743 30-11-2014 04:00:00 3.90833 C 5.75 g/m*3 3.91 C 0.4 km/h
2744 30-11-2014 05:00:00 3.9 C 5.75 g/m*3 3.9 C 0.8 km/h
2745 30-11-2014 06:00:00 3.85833 C 5.73 g/m*3 3.86 C 1.86667 km/h
2746 30-11-2014 07:00:00 3.8 C 5.73 g/m*3 3.8 C 2.55 km/h
2747 30-11-2014 08:00:00 3.8 C 5.76 g/m*3 3.8 C 2.26667 km/h
2748 30-11-2014 09:00:00 3.875 C 5.8 g/m*3 3.88 C 2.8 km/h
2749 30-11-2014 10:00:00 4.01667 C 5.85 g/m*3 4.02 C 2.94167 km/h
2750 30-11-2014 11:00:00 4.15 C 5.9 g/m*3 4.15 C 2.8 km/h
Sensor: Nr:Datum:Temp:Abs-Feuchte:Windchill:Wind:
Aussen-T/F 2751 30-11-2014 12:00:00 4.325 C 5.93 g/m*3 4.33 C 2.93333 km/h
2752 30-11-2014 13:00:00 4.30833 C 5.91 g/m*3 4.31 C 2 km/h
2753 30-11-2014 14:00:00 4.20833 C 5.89 g/m*3 4.21 C 2.13333 km/h
2754 30-11-2014 15:00:00 4.075 C 5.87 g/m*3 4.08 C 3.20833 km/h
2755 30-11-2014 16:00:00 3.85 C 5.8 g/m*3 3.85 C 2 km/h
2756 30-11-2014 17:00:00 3.8 C 5.81 g/m*3 3.8 C 0.93333 km/h
2757 30-11-2014 18:00:00 3.75 C 5.8 g/m*3 3.75 C 2.40833 km/h
2758 30-11-2014 19:00:00 3.69167 C 5.79 g/m*3 3.69 C 3.06667 km/h
2759 30-11-2014 20:00:00 3.66667 C 5.78 g/m*3 3.67 C 2.13333 km/h
2760 30-11-2014 21:00:00 3.65833 C 5.79 g/m*3 3.66 C 2 km/h
2761 30-11-2014 22:00:00 3.53333 C 5.79 g/m*3 3.53 C 2.26667 km/h
2762 30-11-2014 23:00:00 3.46667 C 5.77 g/m*3 3.47 C 2.4 km/h
2763 01-12-2014 00:00:00 3.375 C 5.73 g/m*3 3.38 C 3.75 km/h
2764 01-12-2014 01:00:00 3.3 C 5.73 g/m*3 3.3 C 3.2 km/h
2765 01-12-2014 02:00:00 3.3 C 5.76 g/m*3 3.3 C 0.4 km/h
2766 01-12-2014 03:00:00 3.39167 C 5.8 g/m*3 3.39 C 1.46667 km/h
2767 01-12-2014 04:00:00 3.63333 C 5.88 g/m*3 3.63 C 2.4 km/h
2768 01-12-2014 05:00:00 3.83333 C 5.91 g/m*3 3.83 C 1.06667 km/h
2769 01-12-2014 06:00:00 4.13333 C 5.95 g/m*3 4.13 C 4.675 km/h
2770 01-12-2014 07:00:00 4.175 C 5.92 g/m*3 2.42 C 7.11667 km/h
2771 01-12-2014 08:00:00 3.98333 C 5.82 g/m*3 2.55 C 6.025 km/h
2772 01-12-2014 09:00:00 3.73333 C 5.68 g/m*3 0.76 C 11.83333 km/h
2773 01-12-2014 10:00:00 3.78333 C 5.64 g/m*3 1.31 C 9.55 km/h
2774 01-12-2014 11:00:00 3.86667 C 5.62 g/m*3 0.97 C 11.56667 km/h
2775 01-12-2014 12:00:00 3.8 C 5.59 g/m*3 1.17 C 10.225 km/h
Sensor: Nr:Datum:Temp:Abs-Feuchte:Windchill:Wind:
Aussen-T/F 2776 01-12-2014 13:00:00 3.825 C 5.66 g/m*3 3.83 C 3.875 km/h
2777 01-12-2014 14:00:00 3.68333 C 5.62 g/m*3 1.98 C 6.69167 km/h
2778 01-12-2014 15:00:00 3.36667 C 5.48 g/m*3 1.39 C 7.39167 km/h
2779 01-12-2014 16:00:00 3.2 C 5.37 g/m*3 1.95 C 5.23333 km/h
2780 01-12-2014 17:00:00 3 C 5.29 g/m*3 1 C 7.25833 km/h
2781 01-12-2014 18:00:00 2.73333 C 5.21 g/m*3 2.73 C 3.06667 km/h
2782 01-12-2014 19:00:00 2.65833 C 5.22 g/m*3 2.66 C 2.53333 km/h
2783 01-12-2014 20:00:00 2.59167 C 5.21 g/m*3 2.59 C 1.2 km/h
2784 01-12-2014 21:00:00 2.4 C 5.12 g/m*3 2.4 C 2.26667 km/h
2785 01-12-2014 22:00:00 2.2 C 5.02 g/m*3 2.2 C 2 km/h
2786 01-12-2014 23:00:00 2.025 C 4.96 g/m*3 2.03 C 4.69167 km/h
2787 02-12-2014 00:00:00 1.825 C 4.94 g/m*3 1.83 C 1.86667 km/h
2788 02-12-2014 01:00:00 1.75833 C 4.98 g/m*3 1.76 C 0.13333 km/h
2789 02-12-2014 02:00:00 1.7 C 5.01 g/m*3 1.7 C 0.8 km/h
2790 02-12-2014 03:00:00 1.65833 C 5.06 g/m*3 1.66 C 3.2 km/h
2791 02-12-2014 04:00:00 1.5 C 5.03 g/m*3 1.5 C 3.73333 km/h
2792 02-12-2014 05:00:00 1.34167 C 4.97 g/m*3 1.34 C 1.2 km/h
2793 02-12-2014 06:00:00 1.2 C 4.98 g/m*3 1.2 C 0.4 km/h
2794 02-12-2014 07:00:00 1.21667 C 4.99 g/m*3 1.22 C 1.06667 km/h
2795 02-12-2014 08:00:00 1.2 C 4.95 g/m*3 1.2 C 0 km/h
2796 02-12-2014 09:00:00 1.28333 C 4.95 g/m*3 1.28 C 0.8 km/h
2797 02-12-2014 10:00:00 1.56667 C 4.96 g/m*3 1.57 C 2.13333 km/h
2798 02-12-2014 11:00:00 1.94167 C 4.93 g/m*3 1.94 C 4.26667 km/h
2799 02-12-2014 12:00:00 2.025 C 4.86 g/m*3 2.03 C 3.73333 km/h
2800 02-12-2014 13:00:00 2.14167 C 4.83 g/m*3 0.43 C 6.01667 km/h
Sensor: Nr:Datum:Temp:Abs-Feuchte:Windchill:Wind:
Aussen-T/F 2801 02-12-2014 14:00:00 2.1 C 4.79 g/m*3 0.48 C 5.76667 km/h
2802 02-12-2014 15:00:00 2.2 C 4.84 g/m*3 2.2 C 2.4 km/h
2803 02-12-2014 16:00:00 2.2 C 4.84 g/m*3 2.2 C 1.2 km/h
2804 02-12-2014 17:00:00 2.2 C 4.84 g/m*3 2.2 C 0 km/h
2805 02-12-2014 18:00:00 2 C 4.9 g/m*3 2 C 0.6 km/h
2806 02-12-2014 19:00:00 1.9 C 4.97 g/m*3 1.9 C 0 km/h
2807 02-12-2014 20:00:00 1.41667 C 4.95 g/m*3 1.42 C 0.26667 km/h
2808 02-12-2014 21:00:00 1.225 C 4.98 g/m*3 1.23 C 0 km/h
2809 02-12-2014 22:00:00 1.13333 C 5.01 g/m*3 1.13 C 0 km/h
2810 02-12-2014 23:00:00 1.21667 C 5.08 g/m*3 1.22 C 0.13333 km/h
2811 03-12-2014 00:00:00 1.275 C 5.13 g/m*3 1.27 C 0.4 km/h
2812 03-12-2014 01:00:00 1.33333 C 5.13 g/m*3 1.33 C 0.26667 km/h
2813 03-12-2014 02:00:00 1.425 C 5.13 g/m*3 1.43 C 0 km/h
2814 03-12-2014 03:00:00 1.56667 C 5.22 g/m*3 1.57 C 0 km/h
2815 03-12-2014 04:00:00 1.475 C 5.19 g/m*3 1.48 C 0 km/h
2816 03-12-2014 05:00:00 1.725 C 5.29 g/m*3 1.73 C 0 km/h
2817 03-12-2014 06:00:00 1.8 C 5.32 g/m*3 1.8 C 0 km/h
2818 03-12-2014 07:00:00 1.96667 C 5.38 g/m*3 1.97 C 0 km/h
2819 03-12-2014 08:00:00 2.01667 C 5.4 g/m*3 2.02 C 0 km/h
2820 03-12-2014 09:00:00 1.84167 C 5.33 g/m*3 1.84 C 0.13333 km/h
2821 03-12-2014 10:00:00 2 C 5.38 g/m*3 2 C 0.66667 km/h
2822 03-12-2014 11:00:00 2.22857 C 5.42 g/m*3 2.23 C 3.65714 km/h
2823 03-12-2014 12:00:00 2.5375 C 5.35 g/m*3 2.54 C 0.8 km/h
2824 03-12-2014 16:00:00 2.1 C 5.1 g/m*3 2.1 C 1.01818 km/h
2825 03-12-2014 17:00:00 1.94 C 5.07 g/m*3 1.94 C 0.64 km/h
Sensor: Nr:Datum:Temp:Abs-Feuchte:Windchill:Wind:
Aussen-T/F 2826 03-12-2014 18:00:00 1.85556 C 4.91 g/m*3 1.86 C 1.42222 km/h
2827 03-12-2014 19:00:00 1.725 C 4.87 g/m*3 1.73 C 1.46667 km/h
2828 03-12-2014 20:00:00 1.7 C 4.79 g/m*3 1.7 C 3.06667 km/h
2829 03-12-2014 21:00:00 1.575 C 4.84 g/m*3 1.58 C 0.13333 km/h
2830 03-12-2014 22:00:00 1.54167 C 4.85 g/m*3 1.54 C 0.13333 km/h
2831 03-12-2014 23:00:00 1.575 C 4.82 g/m*3 1.58 C 1.33333 km/h
2832 04-12-2014 00:00:00 1.6 C 4.85 g/m*3 1.6 C 0 km/h
2833 04-12-2014 01:00:00 1.6 C 4.88 g/m*3 1.6 C 0.4 km/h
2834 04-12-2014 02:00:00 1.6 C 4.87 g/m*3 1.6 C 0 km/h
2835 04-12-2014 03:00:00 1.6 C 4.88 g/m*3 1.6 C 0.13333 km/h
2836 04-12-2014 04:00:00 1.6 C 4.9 g/m*3 1.6 C 0.53333 km/h
2837 04-12-2014 05:00:00 1.6 C 4.93 g/m*3 1.6 C 0.13333 km/h
2838 04-12-2014 06:00:00 1.6 C 4.98 g/m*3 1.6 C 0.13333 km/h
2839 04-12-2014 07:00:00 1.6 C 5.03 g/m*3 1.6 C 0 km/h
2840 04-12-2014 08:00:00 1.6 C 5.08 g/m*3 1.6 C 0 km/h
2841 04-12-2014 09:00:00 1.70833 C 5.18 g/m*3 1.71 C 0.13333 km/h
2842 04-12-2014 10:00:00 2.025 C 5.26 g/m*3 2.03 C 3.46667 km/h
2843 04-12-2014 11:00:00 2.275 C 5.26 g/m*3 2.28 C 1.06667 km/h
2844 04-12-2014 12:00:00 2.63333 C 5.34 g/m*3 2.63 C 1.6 km/h
2845 04-12-2014 13:00:00 2.90833 C 5.43 g/m*3 2.91 C 0.8 km/h
2846 04-12-2014 14:00:00 3.16667 C 5.51 g/m*3 3.17 C 1.6 km/h
2847 04-12-2014 15:00:00 3.2 C 5.54 g/m*3 3.2 C 2.26667 km/h
2848 04-12-2014 16:00:00 3.08333 C 5.55 g/m*3 3.08 C 0.53333 km/h
2849 04-12-2014 17:00:00 2.91667 C 5.55 g/m*3 2.92 C 0 km/h
2850 04-12-2014 18:00:00 2.8 C 5.55 g/m*3 2.8 C 0 km/h
Sensor: Nr:Datum:Temp:Abs-Feuchte:Windchill:Wind:
Aussen-T/F 2851 04-12-2014 19:00:00 2.84167 C 5.59 g/m*3 2.84 C 0 km/h
2852 04-12-2014 20:00:00 2.975 C 5.59 g/m*3 2.98 C 0.53333 km/h
2853 04-12-2014 21:00:00 3.1 C 5.63 g/m*3 3.1 C 0 km/h
2854 04-12-2014 22:00:00 2.925 C 5.59 g/m*3 2.93 C 0 km/h
2855 04-12-2014 23:00:00 2.94167 C 5.6 g/m*3 2.94 C 0.53333 km/h
2856 05-12-2014 00:00:00 2.94167 C 5.63 g/m*3 2.94 C 0 km/h
2857 05-12-2014 01:00:00 3.15 C 5.71 g/m*3 3.15 C 0.26667 km/h
2858 05-12-2014 02:00:00 3.24167 C 5.74 g/m*3 3.24 C 0 km/h
2859 05-12-2014 03:00:00 3.3 C 5.69 g/m*3 3.3 C 1.86667 km/h
2860 05-12-2014 04:00:00 3.2 C 5.6 g/m*3 3.2 C 1.86667 km/h
2861 05-12-2014 05:00:00 3.11667 C 5.57 g/m*3 3.12 C 0.93333 km/h
2862 05-12-2014 06:00:00 3.1 C 5.59 g/m*3 3.1 C 0.13333 km/h
2863 05-12-2014 07:00:00 3.15833 C 5.65 g/m*3 3.16 C 0.26667 km/h
2864 05-12-2014 08:00:00 3.20833 C 5.67 g/m*3 3.21 C 0 km/h
2865 05-12-2014 09:00:00 3.50833 C 5.75 g/m*3 3.51 C 0.13333 km/h
2866 05-12-2014 10:00:00 4.11667 C 5.86 g/m*3 4.12 C 3.46667 km/h
2867 05-12-2014 11:00:00 4.51667 C 5.97 g/m*3 4.52 C 1.73333 km/h
2868 05-12-2014 12:00:00 4.85 C 6.06 g/m*3 4.85 C 4.26667 km/h
2869 05-12-2014 13:00:00 5.08333 C 6.14 g/m*3 5.08 C 4.93333 km/h
2870 05-12-2014 14:00:00 5.33333 C 6.23 g/m*3 5.33 C 2.26667 km/h
2871 05-12-2014 15:00:00 5.375 C 6.25 g/m*3 5.38 C 0.13333 km/h
2872 05-12-2014 16:00:00 5.10833 C 6.27 g/m*3 5.11 C 0 km/h
2873 05-12-2014 17:00:00 4.81667 C 6.24 g/m*3 4.82 C 0 km/h
2874 05-12-2014 18:00:00 4.74167 C 6.26 g/m*3 4.74 C 0 km/h
2875 05-12-2014 19:00:00 4.70833 C 6.27 g/m*3 4.71 C 0.4 km/h
Sensor: Nr:Datum:Temp:Abs-Feuchte:Windchill:Wind:
Aussen-T/F 2876 05-12-2014 20:00:00 4.8 C 6.3 g/m*3 4.8 C 0.8 km/h
2877 05-12-2014 21:00:00 4.8 C 6.27 g/m*3 4.8 C 0.93333 km/h
2878 05-12-2014 22:00:00 4.75 C 6.24 g/m*3 4.75 C 0.26667 km/h
2879 05-12-2014 23:00:00 4.74167 C 6.11 g/m*3 4.74 C 1.73333 km/h
2880 06-12-2014 00:00:00 3.93333 C 5.84 g/m*3 3.93 C 1.06667 km/h
2881 06-12-2014 01:00:00 2.78333 C 5.57 g/m*3 2.78 C 1.33333 km/h
2882 06-12-2014 02:00:00 3.13333 C 5.76 g/m*3 3.13 C 0 km/h
2883 06-12-2014 03:00:00 3.46667 C 5.85 g/m*3 3.47 C 2.26667 km/h
2884 06-12-2014 04:00:00 3.61667 C 5.89 g/m*3 3.62 C 2 km/h
2885 06-12-2014 05:00:00 3.71667 C 5.93 g/m*3 3.72 C 1.73333 km/h
2886 06-12-2014 06:00:00 3.80833 C 5.91 g/m*3 3.81 C 1.73333 km/h
2887 06-12-2014 07:00:00 3.9 C 5.94 g/m*3 3.9 C 0.66667 km/h
2888 06-12-2014 08:00:00 4.04167 C 6.04 g/m*3 4.04 C 1.6 km/h
2889 06-12-2014 09:00:00 4.19167 C 6.12 g/m*3 4.19 C 2.4 km/h
2890 06-12-2014 10:00:00 4.35 C 6.2 g/m*3 4.35 C 1.33333 km/h
2891 06-12-2014 11:00:00 4.60833 C 6.29 g/m*3 4.61 C 1.33333 km/h
2892 06-12-2014 12:00:00 4.80833 C 6.42 g/m*3 4.81 C 0.53333 km/h
2893 06-12-2014 13:00:00 5.125 C 6.57 g/m*3 5.13 C 0.13333 km/h
2894 06-12-2014 14:00:00 5.35 C 6.61 g/m*3 5.35 C 0.8 km/h
2895 06-12-2014 15:00:00 5.4 C 6.63 g/m*3 5.4 C 0 km/h
2896 06-12-2014 16:00:00 5.4 C 6.63 g/m*3 5.4 C 0.13333 km/h
2897 06-12-2014 17:00:00 5.275 C 6.59 g/m*3 5.28 C 0 km/h
2898 06-12-2014 18:00:00 5.33333 C 6.67 g/m*3 5.33 C 0.13333 km/h
2899 06-12-2014 19:00:00 5.4 C 6.7 g/m*3 5.4 C 0.26667 km/h
2900 06-12-2014 20:00:00 5.36667 C 6.63 g/m*3 5.37 C 2.13333 km/h
Sensor: Nr:Datum:Temp:Abs-Feuchte:Windchill:Wind:
Aussen-T/F 2901 06-12-2014 21:00:00 5.30833 C 6.54 g/m*3 5.31 C 2 km/h
2902 06-12-2014 22:00:00 5.10833 C 6.5 g/m*3 5.11 C 0.93333 km/h
2903 06-12-2014 23:00:00 4.90833 C 6.42 g/m*3 4.91 C 0 km/h
2904 07-12-2014 00:00:00 4.8 C 6.37 g/m*3 4.8 C 0.66667 km/h
2905 07-12-2014 01:00:00 4.125 C 6.07 g/m*3 4.13 C 1.06667 km/h
2906 07-12-2014 02:00:00 3 C 5.71 g/m*3 3 C 2.26667 km/h
2907 07-12-2014 03:00:00 3.43333 C 5.94 g/m*3 3.43 C 0.13333 km/h
2908 07-12-2014 04:00:00 3.51667 C 5.97 g/m*3 3.52 C 0 km/h
2909 07-12-2014 05:00:00 3.59167 C 6 g/m*3 3.59 C 0.26667 km/h
2910 07-12-2014 06:00:00 3.63333 C 6.02 g/m*3 3.63 C 0.4 km/h
2911 07-12-2014 07:00:00 3.775 C 6.07 g/m*3 3.78 C 0 km/h
2912 07-12-2014 08:00:00 3.75833 C 6.02 g/m*3 3.76 C 1.86667 km/h
2913 07-12-2014 09:00:00 3.875 C 6.04 g/m*3 3.88 C 3.20833 km/h
2914 07-12-2014 10:00:00 4.3 C 6.09 g/m*3 4.3 C 3.89167 km/h
2915 07-12-2014 11:00:00 3.74167 C 5.93 g/m*3 3.74 C 3.06667 km/h
2916 07-12-2014 12:00:00 4.50833 C 6.09 g/m*3 4.51 C 4.81667 km/h
2917 07-12-2014 13:00:00 5.6 C 5.96 g/m*3 3.04 C 11.675 km/h
2918 07-12-2014 14:00:00 5.70833 C 5.87 g/m*3 2.25 C 17.7 km/h
2919 07-12-2014 15:00:00 5.38333 C 5.87 g/m*3 2.2 C 15.16667 km/h
2920 07-12-2014 16:00:00 5.375 C 5.9 g/m*3 2.19 C 15.16667 km/h
2921 07-12-2014 17:00:00 5.4 C 5.91 g/m*3 2.1 C 15.96667 km/h
2922 07-12-2014 18:00:00 4.45833 C 5.97 g/m*3 2.31 C 8.725 km/h
2923 07-12-2014 19:00:00 4.26667 C 5.93 g/m*3 2.52 C 7.11667 km/h
2924 07-12-2014 20:00:00 4.2 C 5.91 g/m*3 1.27 C 12.08333 km/h
2925 07-12-2014 21:00:00 4.35 C 5.93 g/m*3 1.12 C 13.96667 km/h
Sensor: Nr:Datum:Temp:Abs-Feuchte:Windchill:Wind:
Aussen-T/F 2926 07-12-2014 22:00:00 4.40833 C 5.95 g/m*3 0.93 C 15.56667 km/h
2927 07-12-2014 23:00:00 4.48333 C 5.98 g/m*3 1.44 C 13.03333 km/h
2928 08-12-2014 00:00:00 4.725 C 6.08 g/m*3 2.28 C 10.21667 km/h
2929 08-12-2014 01:00:00 4.60833 C 6.2 g/m*3 2.53 C 8.575 km/h
2930 08-12-2014 02:00:00 3.80833 C 5.91 g/m*3 3.81 C 4.4 km/h
2931 08-12-2014 03:00:00 3.34167 C 5.85 g/m*3 3.34 C 2.8 km/h
2932 08-12-2014 04:00:00 3.94167 C 6.03 g/m*3 2.85 C 5.09167 km/h
2933 08-12-2014 05:00:00 4.1 C 6.01 g/m*3 4.1 C 4.55 km/h
2934 08-12-2014 06:00:00 2.68333 C 5.51 g/m*3 2.68 C 2.4 km/h
2935 08-12-2014 07:00:00 2.24167 C 5.43 g/m*3 2.24 C 3.06667 km/h
2936 08-12-2014 08:00:00 1.86667 C 5.3 g/m*3 1.87 C 2.53333 km/h
2937 08-12-2014 09:00:00 2.08333 C 5.38 g/m*3 2.08 C 2 km/h
2938 08-12-2014 10:00:00 3.01667 C 5.64 g/m*3 1.11 C 6.975 km/h
2939 08-12-2014 11:00:00 3.75833 C 5.72 g/m*3 1.01 C 10.76667 km/h
2940 08-12-2014 12:00:00 3.85 C 5.55 g/m*3 1.03 C 11.15833 km/h
2941 08-12-2014 13:00:00 3.91667 C 5.5 g/m*3 1.53 C 9.275 km/h
2942 08-12-2014 14:00:00 4.11667 C 5.49 g/m*3 1.52 C 10.35833 km/h
2943 08-12-2014 15:00:00 3.99167 C 5.51 g/m*3 2.05 C 7.63333 km/h
2944 08-12-2014 16:00:00 3.58333 C 5.37 g/m*3 2.23 C 5.63333 km/h
2945 08-12-2014 17:00:00 2.26667 C 5.29 g/m*3 2.27 C 2.4 km/h
2946 08-12-2014 18:00:00 2.09167 C 5.29 g/m*3 2.09 C 2.53333 km/h
2947 08-12-2014 19:00:00 1.93333 C 5.26 g/m*3 1.93 C 0.66667 km/h
2948 08-12-2014 20:00:00 1.875 C 5.23 g/m*3 1.88 C 0 km/h
2949 08-12-2014 21:00:00 2.05833 C 5.36 g/m*3 2.06 C 0 km/h
2950 08-12-2014 22:00:00 2.3 C 5.44 g/m*3 2.3 C 0 km/h
Sensor: Nr:Datum:Temp:Abs-Feuchte:Windchill:Wind:
Aussen-T/F 2951 08-12-2014 23:00:00 2.39167 C 5.53 g/m*3 2.39 C 0 km/h
2952 09-12-2014 00:00:00 2.275 C 5.49 g/m*3 2.28 C 0 km/h
2953 09-12-2014 01:00:00 2.2 C 5.46 g/m*3 2.2 C 1.06667 km/h
2954 09-12-2014 02:00:00 2.24167 C 5.48 g/m*3 2.24 C 1.33333 km/h
2955 09-12-2014 03:00:00 2.275 C 5.49 g/m*3 2.28 C 1.06667 km/h
2956 09-12-2014 04:00:00 1.825 C 5.33 g/m*3 1.83 C 0.4 km/h
2957 09-12-2014 05:00:00 1.69167 C 5.31 g/m*3 1.69 C 0.13333 km/h
2958 09-12-2014 06:00:00 1.18333 C 5.1 g/m*3 1.18 C 0.53333 km/h
2959 09-12-2014 07:00:00 1.05833 C 5.1 g/m*3 1.06 C 0.66667 km/h
2960 09-12-2014 08:00:00 1.35833 C 5.21 g/m*3 1.36 C 0.4 km/h
2961 09-12-2014 09:00:00 1.84167 C 5.39 g/m*3 1.84 C 0.4 km/h
2962 09-12-2014 10:00:00 2.51667 C 5.64 g/m*3 2.52 C 0.66667 km/h
2963 09-12-2014 11:00:00 3.08333 C 5.86 g/m*3 3.08 C 0.53333 km/h
2964 09-12-2014 12:00:00 3.76667 C 6.04 g/m*3 3.77 C 4.4 km/h
2965 09-12-2014 13:00:00 4.125 C 6.09 g/m*3 4.13 C 1.86667 km/h
2966 09-12-2014 14:00:00 4.49167 C 6.14 g/m*3 4.49 C 4.4 km/h
2967 09-12-2014 15:00:00 4.26667 C 6 g/m*3 2.96 C 5.75833 km/h
2968 09-12-2014 16:00:00 3.86667 C 5.9 g/m*3 3.87 C 0.8 km/h
2969 09-12-2014 17:00:00 3.58333 C 5.89 g/m*3 3.58 C 0.26667 km/h
2970 09-12-2014 18:00:00 3.25 C 5.8 g/m*3 3.25 C 0.4 km/h
2971 09-12-2014 19:00:00 2.79167 C 5.63 g/m*3 2.79 C 0.93333 km/h
2972 09-12-2014 20:00:00 2.15 C 5.42 g/m*3 2.15 C 2 km/h
2973 09-12-2014 21:00:00 2.28333 C 5.45 g/m*3 2.28 C 1.86667 km/h
2974 09-12-2014 22:00:00 2.01667 C 5.33 g/m*3 2.02 C 2.13333 km/h
2975 09-12-2014 23:00:00 1.675 C 5.21 g/m*3 1.68 C 1.46667 km/h
Sensor: Nr:Datum:Temp:Abs-Feuchte:Windchill:Wind:
Aussen-T/F 2976 10-12-2014 00:00:00 2.025 C 5.36 g/m*3 2.03 C 2.13333 km/h
2977 10-12-2014 01:00:00 2.525 C 5.47 g/m*3 2.53 C 3.61667 km/h
2978 10-12-2014 02:00:00 3.55833 C 5.53 g/m*3 1.66 C 7.24167 km/h
2979 10-12-2014 03:00:00 3.81667 C 5.56 g/m*3 2.09 C 6.83333 km/h
2980 10-12-2014 04:00:00 4.23333 C 5.54 g/m*3 1.41 C 11.55833 km/h
2981 10-12-2014 05:00:00 4.19167 C 5.39 g/m*3 2.28 C 7.64167 km/h
2982 10-12-2014 06:00:00 4 C 5.14 g/m*3 2.56 C 6.03333 km/h
2983 10-12-2014 07:00:00 4.01667 C 5.14 g/m*3 4.02 C 4.94167 km/h
2984 10-12-2014 08:00:00 3.725 C 5.41 g/m*3 2.07 C 6.56667 km/h
2985 10-12-2014 09:00:00 4.23333 C 5.69 g/m*3 1.69 C 10.225 km/h
2986 10-12-2014 10:00:00 4.65833 C 5.92 g/m*3 1.26 C 15.425 km/h
2987 10-12-2014 11:00:00 4.91667 C 5.95 g/m*3 0.79 C 21.44167 km/h
2988 10-12-2014 12:00:00 5.16667 C 6.05 g/m*3 1.3 C 19.84167 km/h
2989 10-12-2014 13:00:00 5.63333 C 6.23 g/m*3 2.22 C 17.16667 km/h
2990 10-12-2014 14:00:00 5.5 C 6.32 g/m*3 2.77 C 12.5 km/h
2991 10-12-2014 15:00:00 5.54167 C 6.37 g/m*3 3.1 C 11.025 km/h
2992 10-12-2014 16:00:00 5.1 C 6.21 g/m*3 3.2 C 8.18333 km/h
2993 10-12-2014 17:00:00 4.23333 C 6.04 g/m*3 4.23 C 2.4 km/h
2994 10-12-2014 18:00:00 3.90833 C 6.01 g/m*3 3.91 C 1.73333 km/h
2995 10-12-2014 19:00:00 4.14167 C 6.13 g/m*3 4.14 C 2.4 km/h
2996 10-12-2014 20:00:00 4.675 C 6.28 g/m*3 3.63 C 5.21667 km/h
2997 10-12-2014 21:00:00 5.24167 C 6.42 g/m*3 5.24 C 3.74167 km/h
2998 10-12-2014 22:00:00 5.30833 C 6.57 g/m*3 5.31 C 3.46667 km/h
2999 10-12-2014 23:00:00 5.75833 C 6.54 g/m*3 4.8 C 5.38333 km/h
3000 11-12-2014 00:00:00 5.23333 C 6.53 g/m*3 5.23 C 3.06667 km/h
Sensor: Nr:Datum:Temp:Abs-Feuchte:Windchill:Wind:
Aussen-T/F 3001 11-12-2014 01:00:00 5.50833 C 6.65 g/m*3 4.39 C 5.76667 km/h
3002 11-12-2014 02:00:00 5.19167 C 6.53 g/m*3 5.19 C 4.54167 km/h
3003 11-12-2014 03:00:00 5.34167 C 6.5 g/m*3 3.94 C 6.55833 km/h
3004 11-12-2014 04:00:00 6.06667 C 6.52 g/m*3 3.63 C 11.56667 km/h
3005 11-12-2014 05:00:00 6.31667 C 6.5 g/m*3 3.55 C 13.825 km/h
3006 11-12-2014 06:00:00 6.58333 C 6.57 g/m*3 4.02 C 12.89167 km/h
3007 11-12-2014 07:00:00 6.36667 C 6.71 g/m*3 3.85 C 12.35833 km/h
3008 11-12-2014 08:00:00 6.775 C 6.66 g/m*3 3.86 C 15.56667 km/h
3009 11-12-2014 09:00:00 6.83333 C 6.71 g/m*3 4.06 C 14.63333 km/h
3010 11-12-2014 10:00:00 6.81667 C 6.79 g/m*3 3.89 C 15.7 km/h
3011 11-12-2014 11:00:00 7.05833 C 6.8 g/m*3 4.03 C 16.9 km/h
3012 11-12-2014 12:00:00 7.15 C 6.82 g/m*3 4.11 C 17.16667 km/h
3013 11-12-2014 13:00:00 6.98333 C 6.91 g/m*3 4.15 C 15.3 km/h
3014 11-12-2014 14:00:00 5.94167 C 6.79 g/m*3 4.37 C 7.50833 km/h
3015 11-12-2014 15:00:00 6.21667 C 6.63 g/m*3 2.98 C 16.9 km/h
3016 11-12-2014 16:00:00 6.06667 C 6.4 g/m*3 2.43 C 19.85 km/h
3017 11-12-2014 17:00:00 5.35833 C 6.38 g/m*3 2.91 C 10.85833 km/h
3018 11-12-2014 18:00:00 5.15 C 6.43 g/m*3 3.52 C 7.24167 km/h
3019 11-12-2014 19:00:00 6.04167 C 6.48 g/m*3 3.34 C 13.03333 km/h
3020 11-12-2014 20:00:00 6.25833 C 6.59 g/m*3 3.11 C 16.38333 km/h
3021 11-12-2014 21:00:00 6.66667 C 6.65 g/m*3 4.35 C 11.56667 km/h
3022 11-12-2014 22:00:00 7.01667 C 6.79 g/m*3 5.03 C 10.20833 km/h
3023 11-12-2014 23:00:00 7.475 C 6.85 g/m*3 4.6 C 16.5 km/h
3024 12-12-2014 00:00:00 7.325 C 6.92 g/m*3 4.97 C 12.625 km/h
3025 12-12-2014 01:00:00 7.8 C 7.18 g/m*3 4.96 C 16.89167 km/h
Sensor: Nr:Datum:Temp:Abs-Feuchte:Windchill:Wind:
Aussen-T/F 3026 12-12-2014 02:00:00 8.28333 C 7.33 g/m*3 4.92 C 22.90833 km/h
3027 12-12-2014 03:00:00 8.15 C 7.37 g/m*3 5.06 C 19.85 km/h
3028 12-12-2014 04:00:00 8.24167 C 7.32 g/m*3 5.33 C 18.36667 km/h
3029 12-12-2014 05:00:00 8.4 C 7.24 g/m*3 5.8 C 16.1 km/h
3030 12-12-2014 06:00:00 8.69167 C 7.12 g/m*3 6.25 C 15.43333 km/h
3031 12-12-2014 07:00:00 8.925 C 7.14 g/m*3 6.28 C 17.575 km/h
3032 12-12-2014 08:00:00 8.65833 C 7.22 g/m*3 6.02 C 16.9 km/h
3033 12-12-2014 09:00:00 8.51667 C 7.31 g/m*3 5.74 C 17.83333 km/h
3034 12-12-2014 10:00:00 8.975 C 7.34 g/m*3 5.83 C 22.64167 km/h
3035 12-12-2014 11:00:00 9.50833 C 7.43 g/m*3 6.39 C 24 km/h
3036 12-12-2014 12:00:00 9.6 C 7.55 g/m*3 6.76 C 21.175 km/h
3037 12-12-2014 13:00:00 9.75833 C 7.62 g/m*3 6.78 C 23.19167 km/h
3038 12-12-2014 14:00:00 10.21667 C 7.72 g/m*3 7.63 C 20.23333 km/h
3039 12-12-2014 15:00:00 10.4 C 7.85 g/m*3 7.52 C 24.125 km/h
3040 12-12-2014 16:00:00 10.45833 C 8.03 g/m*3 8.05 C 19.03333 km/h
3041 12-12-2014 17:00:00 10.34167 C 8.15 g/m*3 7.85 C 19.575 km/h
3042 12-12-2014 18:00:00 10.14167 C 8.11 g/m*3 7.81 C 17.43333 km/h
3043 12-12-2014 19:00:00 10 C 8.13 g/m*3 6.99 C 24.39167 km/h
3044 12-12-2014 20:00:00 9.925 C 8.27 g/m*3 7.63 C 16.625 km/h
3045 12-12-2014 21:00:00 9.04167 C 8.33 g/m*3 8.09 C 7.1 km/h
3046 12-12-2014 22:00:00 8.675 C 8.24 g/m*3 8.22 C 5.09167 km/h
3047 12-12-2014 23:00:00 7.875 C 7.71 g/m*3 7.88 C 4.80833 km/h
3048 13-12-2014 00:00:00 7.175 C 7.41 g/m*3 7.18 C 3.46667 km/h
3049 13-12-2014 01:00:00 6.80833 C 7.26 g/m*3 6.81 C 4.8 km/h
3050 13-12-2014 02:00:00 6.53333 C 7.2 g/m*3 6.53 C 2.4 km/h
Sensor: Nr:Datum:Temp:Abs-Feuchte:Windchill:Wind:
Aussen-T/F 3051 13-12-2014 03:00:00 6.34167 C 7.13 g/m*3 6.34 C 2.26667 km/h
3052 13-12-2014 04:00:00 6.125 C 7.09 g/m*3 6.13 C 0 km/h
3053 13-12-2014 05:00:00 5.93333 C 7.01 g/m*3 5.93 C 0 km/h
3054 13-12-2014 06:00:00 5.86667 C 6.98 g/m*3 5.87 C 0.93333 km/h
3055 13-12-2014 07:00:00 5.675 C 6.95 g/m*3 5.68 C 0.66667 km/h
3056 13-12-2014 08:00:00 5.25 C 6.7 g/m*3 5.25 C 3.075 km/h
3057 13-12-2014 09:00:00 4.68333 C 6.45 g/m*3 4.68 C 1.46667 km/h
3058 13-12-2014 10:00:00 4.55 C 6.4 g/m*3 4.55 C 1.06667 km/h
3059 13-12-2014 11:00:00 4.475 C 6.34 g/m*3 4.47 C 1.86667 km/h
3060 13-12-2014 12:00:00 4.31667 C 6.23 g/m*3 4.32 C 1.06667 km/h
3061 13-12-2014 13:00:00 4.2 C 6.16 g/m*3 4.2 C 0.13333 km/h
3062 13-12-2014 14:00:00 3.975 C 6.04 g/m*3 3.98 C 2.66667 km/h
3063 13-12-2014 15:00:00 3.675 C 5.96 g/m*3 3.68 C 4.40833 km/h
3064 13-12-2014 16:00:00 3.29167 C 5.82 g/m*3 2 C 5.35 km/h
3065 13-12-2014 17:00:00 2.83333 C 5.67 g/m*3 2.83 C 0.8 km/h
3066 13-12-2014 18:00:00 2.7 C 5.62 g/m*3 2.7 C 0.13333 km/h
3067 13-12-2014 19:00:00 2.60833 C 5.62 g/m*3 2.61 C 0.13333 km/h
3068 13-12-2014 20:00:00 2.43333 C 5.55 g/m*3 2.43 C 0 km/h
3069 13-12-2014 21:00:00 2.44167 C 5.55 g/m*3 2.44 C 0 km/h
3070 13-12-2014 22:00:00 2.48333 C 5.57 g/m*3 2.48 C 0 km/h
3071 13-12-2014 23:00:00 2.575 C 5.66 g/m*3 2.58 C 0.26667 km/h
3072 14-12-2014 00:00:00 2.66667 C 5.65 g/m*3 2.67 C 0 km/h
3073 14-12-2014 01:00:00 2.73333 C 5.66 g/m*3 2.73 C 0 km/h
3074 14-12-2014 02:00:00 2.65 C 5.64 g/m*3 2.65 C 0.13333 km/h
3075 14-12-2014 03:00:00 2.36667 C 5.53 g/m*3 2.37 C 0 km/h
Sensor: Nr:Datum:Temp:Abs-Feuchte:Windchill:Wind:
Aussen-T/F 3076 14-12-2014 04:00:00 2.19167 C 5.49 g/m*3 2.19 C 0 km/h
3077 14-12-2014 05:00:00 2.05833 C 5.46 g/m*3 2.06 C 0.13333 km/h
3078 14-12-2014 06:00:00 2.23333 C 5.53 g/m*3 2.23 C 0 km/h
3079 14-12-2014 07:00:00 2.40833 C 5.6 g/m*3 2.41 C 0 km/h
3080 14-12-2014 08:00:00 2.51667 C 5.64 g/m*3 2.52 C 0 km/h
3081 14-12-2014 09:00:00 2.80833 C 5.75 g/m*3 2.81 C 0.8 km/h
3082 14-12-2014 10:00:00 3.21667 C 5.91 g/m*3 3.22 C 0.4 km/h
3083 14-12-2014 11:00:00 3.73333 C 6.05 g/m*3 3.73 C 2.53333 km/h
3084 14-12-2014 12:00:00 4.2 C 6.1 g/m*3 4.2 C 2.13333 km/h
3085 14-12-2014 13:00:00 4.63333 C 6.16 g/m*3 4.63 C 0.93333 km/h
3086 14-12-2014 14:00:00 4.88333 C 6.06 g/m*3 4.88 C 0.4 km/h
3087 14-12-2014 15:00:00 4.25 C 6 g/m*3 4.25 C 2 km/h
3088 14-12-2014 16:00:00 2.76667 C 5.6 g/m*3 2.77 C 3.6 km/h
3089 14-12-2014 17:00:00 1.81667 C 5.3 g/m*3 1.82 C 3.73333 km/h
3090 14-12-2014 18:00:00 1.75833 C 5.3 g/m*3 1.76 C 3.46667 km/h
3091 14-12-2014 19:00:00 1.21667 C 5.11 g/m*3 1.22 C 1.06667 km/h
3092 14-12-2014 20:00:00 0.66667 C 4.92 g/m*3 0.67 C 0.8 km/h
3093 14-12-2014 21:00:00 0.76667 C 5 g/m*3 0.77 C 3.2 km/h
3094 14-12-2014 22:00:00 1.61667 C 5.31 g/m*3 1.62 C 2 km/h
3095 14-12-2014 23:00:00 2.01667 C 5.45 g/m*3 2.02 C 0.66667 km/h
3096 15-12-2014 00:00:00 2.11667 C 5.42 g/m*3 2.12 C 1.6 km/h
3097 15-12-2014 01:00:00 2.05 C 5.33 g/m*3 2.05 C 1.6 km/h
3098 15-12-2014 02:00:00 1.55833 C 5.21 g/m*3 1.56 C 2.93333 km/h
3099 15-12-2014 03:00:00 1.93333 C 5.37 g/m*3 1.93 C 2.26667 km/h
3100 15-12-2014 04:00:00 2.2 C 5.43 g/m*3 2.2 C 2.8 km/h
Sensor: Nr:Datum:Temp:Abs-Feuchte:Windchill:Wind:
Aussen-T/F 3101 15-12-2014 05:00:00 1.60833 C 5.19 g/m*3 1.61 C 3.46667 km/h
3102 15-12-2014 06:00:00 0.98333 C 4.97 g/m*3 0.98 C 2.26667 km/h
3103 15-12-2014 07:00:00 1.16667 C 5.08 g/m*3 1.17 C 1.6 km/h
3104 15-12-2014 08:00:00 1.575 C 5.18 g/m*3 1.58 C 3.075 km/h
3105 15-12-2014 09:00:00 2.38333 C 5.28 g/m*3 2.38 C 4.825 km/h
3106 15-12-2014 10:00:00 3.45 C 5.48 g/m*3 2.29 C 5.08333 km/h
3107 15-12-2014 11:00:00 4.51667 C 5.8 g/m*3 1.9 C 10.86667 km/h
3108 15-12-2014 12:00:00 4.575 C 5.85 g/m*3 0.92 C 17.03333 km/h
3109 15-12-2014 13:00:00 4.30833 C 5.94 g/m*3 1.35 C 12.35 km/h
3110 15-12-2014 14:00:00 4.30833 C 5.98 g/m*3 1.2 C 13.16667 km/h
3111 15-12-2014 15:00:00 4.59167 C 6.02 g/m*3 1.5 C 13.43333 km/h
3112 15-12-2014 16:00:00 4.70833 C 6.09 g/m*3 3.61 C 5.375 km/h
3113 15-12-2014 17:00:00 4.70833 C 6.2 g/m*3 4.71 C 2.53333 km/h
3114 15-12-2014 18:00:00 4.825 C 6.27 g/m*3 4.83 C 3.075 km/h
3115 15-12-2014 19:00:00 4.98333 C 6.32 g/m*3 4.98 C 2.13333 km/h
3116 15-12-2014 20:00:00 5.06667 C 6.39 g/m*3 5.07 C 2 km/h
3117 15-12-2014 21:00:00 4.9 C 6.42 g/m*3 4.9 C 0 km/h
3118 15-12-2014 22:00:00 4.925 C 6.49 g/m*3 4.93 C 0 km/h
3119 15-12-2014 23:00:00 4.875 C 6.52 g/m*3 4.88 C 0 km/h
3120 16-12-2014 00:00:00 4.9 C 6.55 g/m*3 4.9 C 0.26667 km/h
3121 16-12-2014 01:00:00 4.99167 C 6.63 g/m*3 4.99 C 0 km/h
3122 16-12-2014 02:00:00 5.26667 C 6.78 g/m*3 5.27 C 0.93333 km/h
3123 16-12-2014 03:00:00 5.63333 C 6.9 g/m*3 5.63 C 4.01667 km/h
3124 16-12-2014 04:00:00 5.75 C 6.9 g/m*3 5.75 C 3.075 km/h
3125 16-12-2014 05:00:00 6.125 C 6.99 g/m*3 6.13 C 3.6 km/h
Sensor: Nr:Datum:Temp:Abs-Feuchte:Windchill:Wind:
Aussen-T/F 3126 16-12-2014 06:00:00 6.19167 C 7.03 g/m*3 6.19 C 2.93333 km/h
3127 16-12-2014 07:00:00 6.44167 C 7.03 g/m*3 5.06 C 7.1 km/h
3128 16-12-2014 08:00:00 6.44167 C 6.99 g/m*3 6.44 C 3.2 km/h
3129 16-12-2014 09:00:00 6.875 C 7.1 g/m*3 5.52 C 7.25 km/h
3130 16-12-2014 10:00:00 7.3 C 7.14 g/m*3 5.31 C 10.49167 km/h
3131 16-12-2014 11:00:00 7.66667 C 7.2 g/m*3 5.96 C 9.40833 km/h
3132 16-12-2014 12:00:00 7.65833 C 7.36 g/m*3 6.69 C 6.30833 km/h
3133 16-12-2014 13:00:00 7.46667 C 7.51 g/m*3 7.47 C 2.26667 km/h
3134 16-12-2014 14:00:00 7.55833 C 7.24 g/m*3 7.56 C 3.2 km/h
3135 16-12-2014 15:00:00 7.53333 C 6.74 g/m*3 6.55 C 6.3 km/h
3136 16-12-2014 16:00:00 6.16667 C 6.27 g/m*3 6.17 C 3.46667 km/h
3137 16-12-2014 17:00:00 5.91667 C 6.29 g/m*3 4.95 C 5.49167 km/h
3138 16-12-2014 18:00:00 5.84167 C 6.21 g/m*3 5.84 C 4.81667 km/h
3139 16-12-2014 19:00:00 5.825 C 6.18 g/m*3 4.58 C 6.29167 km/h
3140 16-12-2014 20:00:00 5.43333 C 6.15 g/m*3 4.39 C 5.49167 km/h
3141 16-12-2014 21:00:00 4.775 C 6.12 g/m*3 4.78 C 3.06667 km/h
3142 16-12-2014 22:00:00 4.58333 C 6.08 g/m*3 4.58 C 4.28333 km/h
3143 16-12-2014 23:00:00 4.55 C 6.03 g/m*3 4.55 C 3.35 km/h
3144 17-12-2014 00:00:00 4.7 C 6.15 g/m*3 4.7 C 2.40833 km/h
3145 17-12-2014 01:00:00 4.59167 C 5.99 g/m*3 3.2 C 6.175 km/h
3146 17-12-2014 02:00:00 3.8 C 5.78 g/m*3 3.8 C 4.80833 km/h
3147 17-12-2014 03:00:00 3.06667 C 5.62 g/m*3 3.07 C 1.73333 km/h
3148 17-12-2014 04:00:00 2.86667 C 5.61 g/m*3 2.87 C 1.33333 km/h
3149 17-12-2014 05:00:00 3.45 C 5.88 g/m*3 3.45 C 0